GFSSW_925_spd_000.txt.gz
Wind_Speed
12 13 14 14 14 14 15 15 16 17 18 18 19 19 18 19 20 18 20 19 26 14 5 9 11 11 9 5 6 6 3 6 10 13 11 5 5 4 3 4 0 5 6 10 22
13 13 12 12 12 13 15 15 16 16 18 19 20 19 17 17 15 25 26 28 26 18 11 14 10 12 5 5 4 4 4 8 13 8 9 11 6 8 1 7 5 6 7 18 17
13 15 14 11 11 13 14 15 16 17 18 20 20 19 19 14 12 20 31 29 23 19 14 12 12 9 8 8 6 6 10 14 20 6 9 9 12 8 6 8 6 9 13 11 12
11 12 12 12 13 15 14 14 14 15 17 19 20 21 20 16 12 23 32 34 30 15 12 12 9 12 6 7 9 12 14 14 15 7 3 9 9 10 8 11 5 7 11 10 10
9 7 8 9 10 11 13 14 13 15 17 21 22 23 16 10 19 7 40 40 38 21 16 12 12 10 11 7 10 12 13 12 13 11 6 9 9 10 10 8 5 6 4 10 9
10 10 10 10 11 12 13 13 13 14 13 17 19 24 15 21 34 32 38 45 41 28 19 16 9 12 8 9 10 9 7 10 12 9 9 6 10 3 8 8 7 9 7 6 9
9 9 9 9 10 12 11 12 12 13 11 14 10 18 15 15 34 33 29 39 43 35 16 25 21 8 4 7 11 9 11 11 10 8 8 2 7 11 14 4 5 6 8 8 10
11 9 7 9 11 11 11 11 12 11 10 14 10 10 5 20 19 25 23 34 35 37 34 26 24 4 7 8 5 6 8 10 12 13 6 6 8 18 9 3 6 8 7 8 10
10 8 8 8 7 9 8 7 7 10 16 13 3 1 7 10 17 24 29 31 31 23 15 15 6 5 6 6 6 7 7 12 15 10 6 8 8 5 5 7 8 8 7 7 6
12 12 6 12 8 6 7 9 12 10 6 4 6 1 4 8 23 25 33 30 22 16 7 6 5 6 7 6 6 7 10 14 10 7 4 8 10 11 6 7 8 7 5 6 9
13 12 11 5 3 6 14 8 4 3 4 8 12 4 13 14 21 16 28 18 14 12 8 11 7 11 12 12 13 9 8 10 5 7 2 8 10 2 5 9 5 9 10 10 10
12 10 11 5 1 8 6 3 1 2 7 7 18 10 5 5 11 5 18 8 9 16 10 11 12 11 13 11 3 7 7 8 2 4 2 8 6 4 4 5 6 10 10 9 8
14 12 10 3 1 7 4 1 2 3 2 9 8 10 5 1 7 5 9 11 16 14 15 13 11 9 6 5 4 6 6 5 4 2 8 6 5 6 5 9 9 9 8 7 8
17 15 7 4 4 8 2 3 6 4 5 6 6 6 2 5 7 4 2 6 3 18 16 11 1 8 7 6 7 6 2 2 5 6 2 7 2 6 7 7 9 9 6 7 8
16 12 7 6 12 3 3 3 7 1 4 3 3 3 4 9 12 6 2 7 14 11 4 3 8 8 6 7 2 2 2 2 4 6 6 6 1 6 10 8 8 8 7 7 8
11 8 2 3 3 1 1 5 3 3 6 4 1 8 12 9 11 12 12 17 1 5 6 5 2 4 1 4 1 0 4 6 5 3 3 3 2 5 10 10 8 7 7 7 7
9 4 3 6 4 7 3 3 2 5 2 4 3 7 16 9 5 10 7 6 5 8 6 5 4 3 1 4 3 5 4 1 2 2 3 3 1 7 6 12 10 10 9 7 8
11 6 9 10 5 8 8 2 8 4 7 10 6 11 8 3 4 6 9 4 2 6 10 5 2 6 5 2 4 7 2 2 3 3 2 2 4 2 9 10 10 9 8 7 7
8 4 5 2 5 17 3 4 4 4 6 7 10 11 4 3 3 1 5 3 4 2 1 6 4 3 4 3 4 3 3 1 4 1 1 3 4 5 10 9 10 8 8 7 6
9 4 5 17 2 10 1 5 4 5 6 12 5 6 6 6 3 3 3 4 3 4 4 4 6 3 2 3 1 2 4 1 2 2 3 4 3 4 8 8 9 9 7 7 6
3 3 11 24 1 1 3 6 7 6 4 3 4 15 14 8 4 5 5 2 3 2 4 5 3 3 3 5 2 2 2 3 1 0 1 1 3 5 6 8 10 8 7 7 7
4 1 17 17 3 4 4 3 5 3 1 3 8 10 7 9 5 3 4 5 4 1 2 1 2 4 2 2 2 2 3 7 2 1 3 3 6 5 9 9 8 7 7 7 7
3 2 12 4 5 6 7 6 7 6 7 3 4 3 2 3 4 5 6 5 5 5 2 3 1 4 2 2 3 2 2 3 5 2 3 3 4 2 7 8 6 8 7 7 6
3 2 3 4 7 8 8 6 4 3 4 6 2 5 5 7 6 6 5 2 2 3 2 2 2 3 2 5 2 3 2 3 3 2 3 8 9 9 5 6 5 3 7 8 7
3 2 1 3 5 7 6 4 6 3 3 3 4 7 3 4 6 4 5 4 4 0 2 3 2 5 5 3 2 5 8 8 10 12 6 15 12 14 11 12 12 4 7 5 5
2 1 2 3 1 3 2 4 6 4 7 4 6 5 8 8 6 4 5 2 3 0 2 3 1 3 2 7 4 6 11 11 14 17 15 16 20 18 15 3 3 4 6 6 6
2 1 2 2 1 2 3 4 6 2 5 7 5 5 10 8 8 7 6 5 4 3 4 2 1 3 3 4 4 9 12 14 10 11 8 12 16 9 4 5 5 5 2 5 8

GFSSW_925_spd_003.txt.gz
Wind_Speed
10 11 12 13 13 12 12 13 13 13 14 13 13 13 12 14 15 15 14 13 26 7 4 8 11 11 9 2 3 2 3 3 5 3 4 9 9 9 3 3 3 5 3 3 26
10 12 13 13 13 12 12 13 13 13 13 13 14 14 13 12 14 18 17 24 28 19 5 6 7 10 2 4 2 3 4 6 6 6 9 8 5 5 5 6 2 4 5 18 21
11 9 12 16 15 13 13 13 13 13 14 14 15 15 13 10 7 10 27 24 31 20 22 13 12 5 5 2 3 5 5 7 16 11 8 7 8 5 7 3 5 7 10 8 8
13 9 10 13 16 15 14 13 12 12 14 15 15 15 13 11 8 10 30 33 28 17 16 8 4 5 6 5 5 5 8 7 15 12 5 8 6 10 3 7 6 3 12 8 9
11 5 7 8 11 13 13 15 14 13 14 15 16 15 11 10 13 7 26 40 33 23 15 7 5 5 5 5 4 5 11 9 12 10 7 8 6 6 10 13 6 5 10 10 9
11 10 9 9 11 12 13 14 14 15 16 17 19 19 9 17 32 22 14 32 32 26 17 7 6 8 2 6 3 5 7 7 6 9 7 6 8 2 8 8 5 7 9 10 11
10 9 11 10 10 12 13 14 15 16 16 16 18 21 13 16 23 25 26 31 34 33 13 23 16 2 2 4 7 8 7 8 7 7 6 1 6 11 14 3 6 5 8 9 13
8 7 6 7 10 12 13 14 15 17 16 13 19 19 6 23 35 25 21 25 35 32 25 21 18 4 2 5 7 4 2 2 7 6 8 7 7 16 13 9 9 7 7 7 9
13 9 12 13 11 11 12 13 15 16 14 14 12 7 5 7 11 31 25 26 32 26 30 15 3 6 2 2 4 2 4 6 8 8 7 6 6 8 8 4 6 7 7 7 8
15 12 11 11 13 11 9 8 8 14 18 11 8 4 4 6 9 11 25 29 29 19 13 7 1 3 2 4 6 6 4 6 7 3 6 5 8 11 6 2 5 4 7 8 8
17 13 11 8 2 7 10 11 4 4 5 4 9 3 7 7 13 10 19 24 26 21 7 10 4 9 13 8 5 5 4 7 3 1 4 6 7 12 5 7 9 7 8 8 8
17 15 12 4 4 7 13 2 3 4 4 10 6 2 4 13 8 5 19 13 27 23 11 7 9 12 9 11 9 9 7 6 3 5 4 4 7 3 4 5 7 8 8 8 7
17 15 10 8 4 6 8 3 9 6 3 4 7 4 5 3 6 8 8 11 22 20 15 11 8 9 13 6 10 6 2 1 3 5 3 2 7 3 5 6 6 6 6 6 7
19 14 7 5 2 1 2 5 8 5 3 5 6 2 4 3 5 3 1 5 2 22 10 7 6 13 8 7 6 4 4 3 3 5 3 5 4 3 6 5 5 7 7 6 6
20 10 1 12 9 4 4 4 2 2 4 3 1 4 7 5 13 5 8 5 8 13 3 7 8 11 7 7 6 4 1 2 1 1 3 3 3 6 6 5 6 7 7 6 6
19 7 5 11 10 12 12 10 6 3 5 2 2 4 9 1 4 4 5 6 4 1 3 6 4 6 7 3 5 5 1 2 3 3 1 6 6 4 9 9 6 5 7 8 7
18 9 14 10 5 22 20 6 4 4 1 2 4 10 18 7 11 11 10 8 5 8 5 5 3 0 3 5 3 4 5 1 2 1 5 3 2 8 12 12 12 10 9 7 7
17 13 13 18 11 24 14 4 4 7 7 9 10 20 12 10 10 13 13 10 12 9 5 5 3 5 2 4 5 5 7 4 3 3 4 2 5 6 12 10 10 9 9 8 8
17 6 6 8 19 22 3 3 4 4 4 10 11 5 7 6 9 9 6 3 3 2 5 5 1 1 3 2 3 4 4 4 2 2 2 3 4 5 7 9 9 9 8 8 8
11 3 5 8 25 12 1 4 5 4 10 5 4 3 16 14 8 6 4 3 3 2 2 4 5 1 1 2 2 3 1 2 2 3 2 5 3 3 6 8 7 8 9 7 7
2 2 6 4 20 2 4 4 4 2 6 4 5 6 5 5 2 3 4 2 2 3 2 2 4 2 3 4 5 2 1 1 2 4 4 2 5 5 7 8 10 8 8 9 7
1 3 14 25 4 2 3 3 3 4 3 5 9 5 6 5 4 4 4 3 5 1 2 1 5 4 2 2 2 2 4 5 4 1 1 4 5 3 5 9 9 9 8 6 8
3 2 10 5 3 2 3 4 5 5 5 4 4 2 5 3 5 4 4 4 6 3 3 0 3 4 4 3 2 3 2 3 3 2 3 3 5 1 2 6 5 7 7 7 7
1 3 5 5 3 6 5 4 4 5 5 4 4 5 5 7 6 4 3 3 5 3 2 1 3 3 5 4 4 4 3 3 5 3 4 7 5 5 4 3 3 5 9 8 7
2 1 3 1 4 6 5 3 3 3 2 5 5 4 3 4 3 4 3 2 4 3 3 3 3 3 2 2 1 4 6 6 7 5 6 2 8 8 5 6 6 6 8 8 8
2 3 3 1 1 7 5 4 4 3 4 4 6 11 12 5 1 4 6 3 3 1 2 4 2 3 2 3 4 6 8 9 10 8 8 9 17 9 8 4 4 8 8 8 8
3 2 4 3 2 4 1 3 3 6 5 6 3 6 10 3 3 2 4 3 5 5 2 3 3 3 0 4 5 8 8 10 4 3 5 7 9 5 3 4 3 3 8 9 8

GFSSW_925_spd_006.txt.gz
Wind_Speed
7 9 10 10 11 13 13 14 14 14 16 15 16 13 11 12 11 13 13 15 23 11 9 8 13 12 6 2 2 3 3 2 5 3 4 7 7 5 4 3 2 5 2 4 13
8 9 11 12 12 13 15 15 14 14 14 14 15 13 11 12 13 17 14 24 22 15 4 5 7 7 2 3 2 4 4 7 6 2 5 8 6 7 7 9 2 3 4 6 24
9 9 12 13 14 14 14 14 14 14 15 14 14 13 11 8 6 9 25 27 28 19 15 3 4 5 4 3 4 5 5 5 7 9 6 6 8 3 4 6 5 5 5 5 6
10 10 11 13 15 14 14 15 15 16 15 16 15 13 13 11 7 3 21 33 31 23 12 10 5 5 5 5 5 3 8 6 8 6 4 5 4 7 5 9 5 9 6 8 8
13 11 9 11 12 12 14 14 15 15 14 14 14 14 12 10 11 8 5 30 34 22 16 12 7 6 6 5 3 4 6 6 12 10 7 7 7 8 6 12 6 9 7 12 10
14 14 12 13 13 13 12 13 14 16 14 14 15 16 9 13 26 17 10 24 28 25 21 14 7 6 6 5 5 4 5 7 7 9 5 5 8 2 7 7 9 5 10 9 10
12 12 12 14 14 14 13 13 14 16 14 15 16 17 11 15 6 18 15 12 26 28 13 19 7 5 5 3 3 5 6 7 9 6 6 2 8 9 11 5 9 8 9 9 13
10 12 14 13 12 14 14 13 14 15 14 16 18 17 7 25 31 15 8 11 20 20 20 20 6 4 2 2 5 2 2 3 5 4 7 8 9 13 9 5 11 10 6 6 5
13 14 13 18 18 14 12 13 14 16 17 15 11 10 5 8 12 27 23 8 14 20 19 8 3 3 2 3 3 3 4 5 9 7 3 6 7 11 2 6 8 4 4 5 6
18 17 14 13 12 13 13 11 9 15 13 10 5 6 5 7 10 13 24 21 8 14 15 8 4 3 2 4 6 5 4 5 6 4 7 6 11 9 4 4 4 7 6 6 7
17 18 14 10 6 7 14 9 5 1 6 4 7 5 2 9 13 15 18 21 16 12 11 10 4 10 12 9 5 4 3 4 8 9 7 8 6 11 3 5 8 6 6 6 5
17 18 15 10 5 13 17 3 4 8 7 4 3 11 5 8 6 5 24 15 18 20 18 5 17 12 9 6 5 5 7 9 9 4 1 1 8 7 3 4 5 8 6 5 4
17 16 12 9 7 12 16 13 10 17 5 3 4 8 5 6 4 8 14 11 22 23 23 8 8 12 9 5 9 7 8 5 6 6 4 1 6 3 3 3 4 3 5 5 6
17 14 8 6 5 8 7 12 12 4 5 4 7 5 5 5 4 1 3 10 9 21 17 5 5 15 11 11 8 8 9 8 3 2 3 2 4 3 4 5 3 5 6 6 7
16 13 2 12 4 1 9 10 9 4 3 7 5 7 7 4 13 1 1 5 22 21 6 8 12 15 12 10 9 10 6 2 0 1 3 2 1 6 6 6 7 7 7 6 6
14 9 3 8 7 6 7 8 2 3 3 7 7 10 14 11 4 5 3 1 7 9 4 2 7 9 9 5 7 6 4 7 4 2 2 7 7 4 8 10 6 4 6 8 7
17 9 14 11 5 18 14 4 3 2 4 7 6 10 10 8 6 8 4 7 6 13 6 4 3 1 4 5 2 5 6 1 1 1 6 1 3 8 9 8 15 11 9 8 7
24 16 21 25 18 22 14 4 2 3 2 4 11 12 4 14 5 8 7 8 3 11 8 6 9 8 5 6 7 6 7 5 6 4 3 1 6 6 5 4 9 10 9 8 7
23 2 7 22 17 24 3 4 2 1 4 9 14 7 4 9 5 7 3 4 5 6 6 7 4 1 1 3 6 5 4 4 2 1 2 3 6 3 7 8 10 10 8 8 7
6 3 4 15 28 12 4 4 3 4 9 6 5 5 8 17 9 7 8 5 7 8 3 5 5 1 2 3 2 4 4 2 2 3 4 4 5 4 2 7 8 9 9 7 6
2 1 4 31 22 3 2 3 6 10 4 4 7 10 16 10 8 6 3 2 1 5 4 6 4 1 3 4 7 2 2 2 3 4 4 1 5 5 8 8 13 9 8 9 8
1 1 22 30 2 1 2 3 4 4 7 4 15 19 7 4 3 3 5 2 2 3 6 2 5 4 3 1 1 3 7 5 4 3 1 3 5 4 1 7 8 9 9 5 6
2 1 16 8 2 2 1 4 2 2 2 9 4 1 4 4 5 2 4 2 5 3 5 5 3 4 3 4 2 4 4 4 4 3 4 5 5 4 6 6 2 6 5 7 6
1 1 2 3 1 6 4 2 3 1 7 4 4 5 3 6 6 4 3 3 2 2 1 2 3 5 7 4 5 5 5 5 5 4 3 5 2 1 2 4 4 6 8 6 7
1 2 2 2 2 3 2 3 3 3 5 4 5 4 5 4 3 3 2 3 4 2 3 3 4 2 3 3 3 4 6 8 7 4 6 1 5 3 6 6 7 8 5 9 8
3 1 2 2 1 4 4 0 3 3 3 4 6 4 7 5 2 5 5 2 2 3 3 3 3 2 2 4 2 3 5 6 5 4 6 2 11 5 6 4 2 2 7 8 8
0 0 3 4 2 3 2 5 4 6 4 6 9 11 12 0 4 4 4 7 4 4 2 3 3 2 2 3 5 5 6 5 4 4 5 4 5 4 5 5 5 3 6 8 7

GFSSW_925_spd_009.txt.gz
Wind_Speed
7 8 8 9 9 10 11 12 15 16 17 16 16 16 13 12 10 11 9 14 22 7 4 15 14 10 3 2 2 4 2 3 4 4 5 5 7 6 5 4 5 1 2 5 7
8 9 8 10 11 11 12 13 14 14 14 17 16 16 13 11 11 14 16 20 20 19 6 12 7 7 1 2 2 4 3 7 5 3 5 7 4 6 6 8 5 4 2 4 11
8 8 9 11 11 13 13 14 15 15 17 15 14 15 12 7 6 7 25 28 26 21 15 3 6 7 4 3 4 5 5 4 5 8 5 4 7 4 4 6 5 7 7 3 5
8 8 8 8 10 11 13 15 14 15 15 15 15 13 12 10 7 3 9 29 29 21 16 6 3 7 6 5 4 2 7 6 5 3 3 6 4 7 7 11 8 8 8 4 9
10 11 10 9 9 10 12 14 16 15 16 17 17 14 10 7 9 8 11 18 31 23 20 8 6 6 7 6 3 3 5 5 8 9 7 6 9 8 10 12 8 9 6 9 10
12 12 11 13 11 11 12 13 15 17 16 15 15 15 6 16 17 25 12 3 25 26 21 12 8 6 5 5 7 5 5 8 7 12 5 6 9 3 6 6 9 6 10 9 9
12 12 13 11 12 13 13 14 15 16 16 16 14 14 9 16 9 8 20 8 25 25 13 19 6 6 5 3 6 2 4 7 8 7 7 3 9 9 11 5 10 11 8 7 6
12 12 13 14 13 13 15 14 15 15 15 15 13 13 7 17 26 14 2 5 15 18 21 22 10 1 3 1 3 3 2 3 4 2 5 9 12 12 10 4 10 6 5 7 6
11 13 16 16 17 18 13 13 14 14 15 12 10 10 6 9 17 28 21 6 12 17 7 9 5 3 1 4 2 1 3 4 8 4 1 4 7 13 1 4 9 4 6 6 6
16 14 15 13 14 13 14 9 10 10 12 9 7 5 6 8 7 12 22 18 3 9 4 9 4 4 3 4 9 5 3 6 6 4 1 3 12 14 2 4 4 5 6 6 7
17 17 15 14 11 9 13 7 3 3 8 7 7 5 4 14 12 16 17 14 4 9 14 8 6 13 12 12 4 4 4 3 5 6 5 9 10 14 6 3 5 6 6 6 6
16 16 15 12 9 9 23 5 6 3 5 10 5 17 6 11 6 11 25 10 10 17 13 6 20 15 7 4 5 3 2 5 8 4 4 3 9 10 4 4 5 7 6 5 5
16 16 14 9 7 16 20 15 14 17 4 6 6 9 7 5 5 15 21 8 10 17 21 12 9 11 13 8 6 5 5 4 6 8 3 5 7 6 2 1 3 3 4 5 6
13 13 10 7 6 10 12 26 17 11 3 7 6 5 8 7 5 18 20 10 6 22 20 8 5 13 10 8 9 9 8 4 6 4 3 3 5 5 4 4 4 5 5 6 7
12 14 5 15 3 4 6 25 15 2 6 10 6 5 6 7 11 10 6 10 18 15 9 7 9 14 9 6 8 8 6 7 5 4 3 2 2 6 3 7 8 7 7 6 7
12 12 9 10 6 6 20 22 12 4 3 7 8 8 8 6 6 8 8 1 6 11 3 3 7 11 14 5 9 2 4 5 3 3 2 8 7 5 5 10 5 4 6 8 7
15 13 14 7 5 18 21 7 5 5 8 8 8 10 14 9 10 10 13 9 12 20 16 2 9 5 6 6 3 5 5 1 2 1 6 1 3 9 5 7 11 12 10 8 7
17 19 17 21 11 21 14 5 6 2 5 3 9 16 8 13 7 12 2 12 8 8 15 7 6 10 5 7 8 7 7 5 6 4 4 4 6 6 5 6 9 10 9 7 7
23 12 6 21 24 27 5 3 3 2 5 8 17 10 9 9 6 7 4 9 10 16 8 5 4 3 2 4 9 5 4 5 2 0 1 4 7 4 5 5 7 11 9 9 8
5 4 2 9 30 15 3 8 2 4 11 14 5 5 12 10 7 7 6 4 7 9 4 7 5 2 2 3 3 6 7 3 2 3 4 4 5 5 2 3 4 9 10 8 6
3 1 4 28 22 2 3 0 3 11 3 5 5 5 11 9 9 9 4 3 3 7 5 6 4 2 5 4 7 2 2 4 4 4 3 2 6 5 4 8 11 9 9 8 7
1 1 16 24 3 2 2 3 7 8 2 4 2 9 7 7 6 3 6 2 5 8 7 3 5 4 2 0 2 2 7 6 4 4 2 3 5 4 6 7 7 8 4 4 6
1 3 10 7 1 2 1 3 2 3 4 4 5 4 3 5 5 3 5 1 3 5 7 6 1 4 3 4 2 4 5 4 4 3 5 5 5 4 6 6 3 5 6 7 7
1 2 1 2 3 3 6 1 1 2 0 5 3 5 4 3 4 4 4 2 1 3 5 6 3 6 9 6 6 5 5 5 6 4 4 6 4 4 7 6 3 4 6 5 6
1 3 2 4 4 3 3 5 1 3 3 4 5 4 4 4 3 5 3 4 3 3 3 3 4 3 2 5 4 5 6 9 7 5 6 3 6 3 1 4 4 5 2 7 7
2 1 2 1 2 4 2 1 3 1 2 2 3 1 2 4 2 5 6 2 3 3 2 2 2 3 1 3 4 1 2 7 4 3 4 3 5 5 2 1 3 3 2 4 6
2 1 3 3 1 3 3 5 5 7 4 2 13 8 5 7 5 6 6 6 4 5 3 2 5 3 2 3 2 4 8 7 4 4 6 5 3 2 3 4 2 1 4 6 6

GFSSW_925_spd_012.txt.gz
Wind_Speed
9 9 9 8 8 8 9 8 9 11 13 15 15 14 15 13 10 10 9 14 20 7 7 9 11 11 2 0 3 3 3 2 4 5 5 3 7 3 3 4 5 3 3 5 11
11 11 10 10 9 9 10 9 11 12 13 14 13 13 14 12 9 13 19 20 21 22 12 5 5 9 1 2 2 4 3 7 5 4 4 5 2 6 5 7 5 4 4 5 4
10 11 10 10 10 10 11 10 10 12 13 13 13 14 14 8 3 7 22 28 24 21 15 7 5 7 5 3 4 5 5 4 4 6 3 4 7 3 3 7 7 8 9 6 2
11 12 11 10 9 10 10 10 11 11 12 13 14 13 12 10 7 4 9 19 28 21 16 7 4 8 6 6 5 3 7 5 4 2 2 4 5 7 7 10 9 9 6 5 8
11 13 12 12 9 8 9 10 9 11 11 12 13 11 9 6 9 11 5 13 21 24 19 8 6 6 7 6 4 4 4 3 6 8 6 4 9 7 13 13 10 9 9 10 8
12 13 13 11 11 10 10 10 10 12 12 13 13 13 4 14 12 26 26 16 8 24 19 11 7 5 6 5 9 6 6 8 5 10 6 6 9 5 6 4 8 8 10 8 7
14 13 12 12 11 11 13 12 10 11 13 13 13 13 6 16 6 3 6 18 16 23 14 20 11 5 6 3 5 2 3 6 5 5 7 5 12 12 11 3 8 9 10 5 5
13 13 12 13 14 14 12 13 11 11 11 13 13 10 6 2 27 19 8 5 9 19 27 22 22 2 3 2 4 5 2 3 4 2 4 5 18 11 8 6 8 8 7 4 6
12 12 13 13 11 15 13 10 13 12 10 10 10 6 5 6 16 19 21 7 6 18 15 13 11 3 2 5 3 1 4 4 7 5 3 5 8 7 3 5 5 5 2 3 6
14 14 14 14 12 11 14 10 7 7 7 3 5 2 7 4 6 13 22 18 3 10 8 10 6 4 4 4 11 6 4 3 6 3 2 6 14 18 6 1 4 3 3 4 7
17 17 16 15 12 9 12 9 4 1 6 7 7 3 5 13 10 13 15 11 4 6 12 14 6 13 15 13 3 6 4 5 4 4 3 7 8 15 8 5 5 5 4 3 6
16 18 19 12 12 11 24 4 5 5 5 13 5 15 11 1 5 9 20 8 5 11 16 8 17 15 7 7 4 3 4 4 7 1 3 8 10 12 8 6 4 8 6 4 4
13 16 18 17 12 11 21 16 12 5 1 5 10 6 5 9 7 14 18 7 5 12 20 5 10 14 11 6 10 3 5 3 6 7 4 6 8 6 3 1 5 5 5 4 6
12 15 15 13 7 7 7 18 11 15 4 6 9 7 8 4 5 17 22 11 5 16 19 7 5 16 13 13 7 8 7 3 3 4 4 5 6 6 6 4 5 6 6 6 7
14 12 13 12 3 5 5 24 15 6 1 8 8 5 11 8 4 7 24 12 8 7 8 5 11 13 17 16 10 4 6 6 3 3 2 1 2 7 2 5 6 7 7 6 6
14 11 8 8 8 5 11 29 10 3 5 8 7 10 9 8 4 9 12 1 2 7 1 3 5 10 7 6 9 5 4 4 3 2 2 6 7 5 4 6 4 4 7 8 7
14 13 10 7 5 16 28 9 2 4 4 8 7 9 11 6 6 11 17 15 6 12 16 1 3 2 6 7 3 4 4 0 1 1 5 1 2 8 5 5 8 13 10 8 7
15 13 14 19 17 29 11 1 6 4 8 7 7 12 7 6 6 11 14 16 12 2 14 8 6 6 4 5 6 6 7 5 6 4 4 3 6 6 2 6 7 9 11 8 8
14 14 12 21 30 29 4 3 4 6 10 10 14 10 6 8 6 9 9 7 10 13 8 12 5 4 5 6 11 5 8 4 4 2 1 3 7 9 4 6 3 9 12 10 8
4 4 4 15 32 18 3 5 6 1 14 14 6 7 9 17 11 12 12 5 6 11 4 6 4 1 3 6 2 7 8 2 2 3 4 4 5 5 6 4 2 7 10 8 7
4 2 5 24 24 6 4 6 6 9 13 5 6 6 7 9 7 8 10 1 11 9 3 6 4 3 5 6 8 3 3 4 4 4 4 1 5 5 6 5 8 6 6 8 8
2 2 13 25 5 2 6 6 8 7 1 3 3 7 9 11 6 6 8 5 11 10 8 3 6 5 4 1 5 5 7 6 4 4 1 3 6 2 6 6 6 8 6 6 6
3 3 10 9 3 3 2 2 3 3 2 4 4 4 13 7 7 3 3 5 6 7 8 7 2 5 3 1 3 4 4 4 5 3 7 6 5 3 7 6 4 8 7 8 7
2 3 3 3 2 3 3 3 3 2 4 2 5 11 7 4 7 7 7 2 4 4 4 7 3 6 9 5 7 5 5 5 6 4 5 6 5 4 5 3 4 5 4 5 6
2 4 4 4 5 6 3 5 4 5 6 2 4 10 6 5 5 5 3 5 3 5 3 4 4 3 3 3 5 7 9 10 9 7 7 5 8 5 3 2 2 1 3 4 6
3 3 0 1 1 7 4 5 4 3 4 1 6 6 7 3 4 8 7 4 5 3 5 2 2 3 2 3 2 3 4 8 5 4 3 5 5 4 2 4 4 3 3 4 6
2 1 3 1 2 3 3 4 4 6 2 3 6 6 7 2 2 5 6 6 6 6 3 6 5 3 3 1 3 4 8 7 5 4 7 7 7 5 3 6 3 3 3 1 4

GFSSW_925_spd_015.txt.gz
Wind_Speed
9 8 7 8 8 8 7 7 7 7 9 12 12 11 11 12 10 9 7 12 11 13 12 16 7 14 3 1 3 2 3 3 4 5 4 2 4 2 2 5 4 3 3 4 11
8 8 8 8 8 8 8 8 9 9 10 11 10 11 10 9 11 14 17 18 17 18 10 7 3 10 3 3 3 3 4 9 5 4 4 3 3 3 3 3 5 5 4 6 8
8 7 8 8 8 9 10 9 9 9 9 9 9 9 7 8 4 7 20 26 25 19 15 11 7 5 5 3 4 5 5 5 3 6 4 4 5 2 2 5 6 7 11 10 4
9 9 8 8 9 8 9 9 8 9 9 10 10 9 7 9 8 8 10 3 22 22 17 8 6 6 7 7 4 3 6 4 3 4 2 3 3 5 7 12 6 9 8 7 12
10 9 8 9 10 10 9 8 9 9 8 8 9 9 9 6 9 10 3 8 4 21 20 14 9 6 10 9 5 4 3 4 6 6 6 3 10 9 13 15 14 8 7 9 9
11 10 10 10 12 11 11 10 8 8 9 9 8 11 6 13 8 23 29 22 11 15 20 18 8 5 6 6 12 7 8 10 4 7 4 6 8 5 17 6 9 3 8 10 8
11 11 11 10 12 13 12 11 10 9 9 9 9 14 4 12 6 6 6 6 14 10 17 22 20 7 8 5 4 5 3 4 4 3 6 4 7 8 15 7 8 6 6 6 6
11 11 11 11 13 14 13 12 10 9 7 7 8 11 6 3 23 19 8 8 9 11 23 21 22 4 4 5 4 8 3 8 3 4 3 4 12 7 8 2 5 5 2 5 6
12 11 12 13 14 13 14 12 10 8 6 5 7 6 6 7 13 24 23 10 9 10 18 19 10 7 4 6 5 3 5 4 5 6 5 6 7 4 2 3 6 4 4 5 5
12 14 13 13 16 14 14 10 5 6 6 6 2 3 5 5 7 7 18 22 6 8 6 11 8 8 7 9 12 9 6 3 5 2 3 4 13 14 9 7 7 2 4 5 5
12 15 16 16 16 13 10 11 4 1 7 8 7 3 2 15 6 9 13 13 4 8 12 17 9 14 20 11 6 7 6 10 3 2 2 5 6 14 8 5 7 4 7 6 6
12 13 15 15 14 13 15 5 6 4 4 13 6 17 10 3 3 5 17 10 6 9 12 9 15 10 11 9 6 6 5 5 4 1 2 6 15 14 6 5 5 9 9 9 7
13 12 14 13 12 15 14 17 11 3 1 5 15 6 6 13 4 4 14 8 8 11 20 16 12 14 12 10 9 4 6 4 3 3 1 5 6 5 2 1 3 5 9 8 10
13 12 12 13 8 6 7 24 15 9 3 5 11 7 7 4 5 13 23 10 6 15 17 13 3 18 17 16 10 11 5 4 2 4 2 4 6 5 6 3 4 6 7 10 10
13 12 11 9 3 4 5 25 15 7 4 10 8 2 8 10 3 8 26 11 10 8 9 5 8 23 19 19 11 4 6 5 3 3 2 1 2 6 2 4 6 8 8 8 9
13 12 9 9 14 5 11 24 12 3 5 9 7 8 10 4 2 13 13 8 1 6 14 3 0 12 7 9 10 8 6 4 3 1 2 5 5 5 3 4 4 5 8 9 10
12 12 13 11 3 13 24 10 3 4 5 7 5 8 11 6 6 10 17 19 5 10 15 9 4 3 4 11 5 4 7 2 2 3 5 2 2 9 3 4 6 13 13 11 10
11 12 15 20 10 23 18 3 7 4 5 5 6 12 7 7 6 11 17 12 10 5 11 8 2 7 6 5 7 4 7 4 5 4 3 3 5 5 2 4 5 6 11 10 11
8 9 13 23 19 27 4 4 3 3 8 11 10 14 6 7 6 10 12 12 11 11 7 12 4 1 4 5 10 3 5 3 4 2 1 2 5 7 1 4 3 8 14 13 11
2 3 5 16 28 18 2 5 4 5 10 15 7 7 9 12 8 11 12 10 13 13 5 4 3 3 4 5 3 6 8 2 1 4 3 3 4 4 5 5 3 5 10 9 8
6 2 3 20 25 4 3 5 5 7 13 12 6 6 7 8 7 11 13 3 11 17 5 5 4 1 5 4 7 3 2 2 4 3 3 0 4 4 5 5 4 9 10 11 10
4 2 6 30 6 3 3 5 7 9 17 12 8 5 7 10 8 6 10 5 16 8 7 6 6 4 4 1 4 6 8 7 4 3 1 2 5 1 6 6 5 9 9 8 8
3 2 12 7 3 5 4 13 13 9 12 4 5 4 9 8 7 5 7 11 14 16 9 6 2 5 4 1 3 4 4 4 4 3 6 5 4 1 3 3 2 7 7 8 7
2 3 3 4 2 3 5 2 5 4 2 3 4 7 7 9 2 6 7 5 10 11 4 5 3 5 8 4 6 5 5 5 8 4 5 6 4 3 1 4 4 4 5 7 8
2 5 4 5 7 10 4 6 9 5 7 3 5 14 10 5 4 5 5 4 3 8 4 3 3 3 1 2 6 6 8 11 10 10 10 7 8 6 5 5 5 5 6 6 7
3 3 1 2 3 7 7 4 11 6 4 5 9 18 5 6 6 10 8 5 8 3 6 2 3 3 1 2 4 5 6 12 11 4 7 5 7 4 3 5 4 4 5 5 5
3 3 2 2 2 4 4 5 6 5 2 3 12 5 4 1 3 7 7 3 6 6 4 5 6 4 3 2 5 4 10 11 7 5 11 11 9 7 4 6 5 5 6 5 5

GFSSW_925_spd_018.txt.gz
Wind_Speed
6 6 6 5 5 5 5 4 4 4 5 9 11 11 11 11 10 9 12 8 6 12 10 9 8 12 9 5 4 2 7 11 13 9 2 2 4 3 6 10 7 6 6 6 6
6 5 5 4 4 5 5 5 5 5 7 8 9 10 10 9 11 16 16 16 15 12 12 8 9 14 10 8 6 10 10 16 8 8 5 3 8 8 7 10 12 9 6 6 7
8 6 5 5 5 4 4 6 6 6 8 9 9 8 7 6 7 10 21 25 21 14 13 10 6 9 19 11 11 9 16 10 9 9 5 6 10 4 10 12 7 11 13 11 14
9 7 7 5 6 5 4 4 6 7 8 8 8 8 7 8 7 6 10 5 9 18 16 15 8 6 12 18 14 13 15 12 8 5 5 9 8 12 14 21 16 16 16 15 13
11 9 7 7 7 6 6 5 5 7 8 9 10 9 9 8 12 8 7 4 7 11 22 17 16 14 19 20 17 18 15 13 12 9 10 10 14 18 20 23 19 17 13 11 11
12 10 8 9 9 7 7 7 7 7 9 9 10 11 9 13 10 15 18 13 5 5 18 21 12 18 12 19 23 13 17 16 13 12 12 12 18 4 20 17 19 13 13 9 8
13 11 10 10 9 9 7 9 9 9 9 10 10 12 11 15 6 6 7 12 11 12 13 22 26 13 13 15 13 21 13 13 15 14 14 7 18 20 19 12 15 11 9 4 3
15 13 12 11 10 9 9 10 12 11 9 8 8 11 8 8 22 14 7 6 8 16 15 20 23 14 17 8 9 19 15 18 19 15 13 10 19 13 4 3 4 3 2 1 4
15 15 14 12 12 11 9 11 12 12 10 8 6 8 8 5 19 21 23 13 3 13 18 8 14 7 17 11 9 14 16 22 19 12 12 12 14 8 6 12 13 10 3 4 4
15 16 15 15 13 12 10 7 10 9 8 7 3 5 9 9 9 12 17 21 11 10 10 11 9 9 15 13 18 16 17 14 18 14 13 17 18 15 14 10 11 6 7 6 6
15 17 15 16 15 13 5 13 6 4 10 10 7 7 2 9 4 10 11 16 16 11 12 21 10 21 25 24 16 19 18 15 14 10 6 14 19 14 16 12 12 9 9 8 8
16 16 13 14 14 12 13 4 6 5 6 20 11 21 1 7 4 14 14 14 15 20 17 16 21 22 20 23 22 19 18 16 12 5 7 14 19 17 18 14 10 10 11 12 11
15 15 13 12 12 14 16 15 9 8 1 5 23 12 6 15 6 9 17 16 15 15 18 22 15 14 23 24 23 16 17 15 12 5 9 10 20 15 7 5 4 6 10 13 14
15 15 13 10 9 10 9 19 15 11 3 5 10 9 14 7 8 21 20 13 10 18 19 17 15 23 22 26 24 20 12 10 7 4 5 3 5 9 9 6 6 10 12 13 14
14 15 13 13 5 3 6 21 23 7 5 10 8 2 8 14 2 14 21 19 14 12 8 12 14 16 20 28 25 11 13 11 7 8 4 9 6 4 3 7 8 12 14 14 14
13 15 12 9 10 5 13 24 11 3 7 8 7 9 11 19 11 3 14 15 4 10 22 14 5 14 23 19 21 12 12 7 4 2 7 11 9 5 3 3 5 12 15 15 15
13 14 15 10 4 16 27 7 3 6 5 6 5 10 15 10 12 8 16 22 6 6 10 10 14 4 18 19 8 16 16 4 5 5 6 4 6 10 3 2 4 16 16 16 15
12 14 15 17 12 18 14 3 8 4 5 4 8 13 12 11 13 12 15 18 10 11 11 7 4 10 17 19 10 16 15 4 6 6 6 4 6 1 5 2 3 10 16 17 16
12 13 11 17 17 26 5 5 4 4 6 10 14 11 11 11 8 13 14 15 8 14 4 9 4 1 3 5 13 5 10 3 2 1 3 5 4 3 3 2 3 10 17 17 17
9 4 12 16 25 16 3 6 5 5 8 11 10 12 15 16 9 14 15 14 10 15 10 9 2 2 2 6 6 5 7 4 2 5 4 4 3 2 3 2 4 12 18 18 16
6 2 3 18 24 3 4 6 4 6 9 11 9 10 14 16 12 12 13 6 20 15 15 6 8 8 7 6 12 6 4 2 4 2 2 3 4 3 5 6 4 10 17 17 16
6 3 18 32 5 3 5 5 5 11 15 12 9 9 15 18 14 8 15 9 21 11 10 8 5 5 5 2 10 10 12 11 4 5 2 3 2 3 5 5 3 8 15 15 16
3 2 18 15 4 6 6 8 9 8 12 10 10 12 13 14 10 10 15 15 19 17 11 11 7 8 6 3 2 6 11 15 11 2 10 8 3 1 2 3 3 9 15 15 15
3 3 2 4 2 2 8 8 11 13 10 11 10 11 15 14 10 12 10 9 20 20 17 1 4 11 10 7 11 12 19 17 18 11 10 11 7 5 4 3 6 10 13 14 14
4 4 5 5 10 12 6 4 8 6 6 9 3 13 17 12 12 12 13 10 15 19 11 4 4 7 4 3 15 19 19 21 22 22 14 15 17 16 10 7 8 10 13 14 14
3 3 2 3 9 14 13 10 15 10 7 7 8 16 17 15 14 14 11 10 9 17 17 10 3 3 2 2 8 11 19 21 24 22 24 18 16 4 5 8 9 11 13 13 13
3 1 1 3 5 5 4 5 9 11 6 6 15 16 15 12 7 11 13 8 8 14 18 12 6 3 3 3 4 7 18 19 20 21 21 20 20 10 8 9 10 9 9 9 9

GFSSW_925_spd_021.txt.gz
Wind_Speed
8 7 5 6 6 7 6 5 5 4 5 9 11 12 12 10 10 9 13 8 3 5 8 10 13 16 15 11 12 10 12 15 19 16 12 5 6 5 6 11 11 9 8 5 5
9 8 6 5 6 7 6 5 4 5 7 6 6 8 10 9 13 18 16 14 12 8 10 10 10 16 15 15 12 13 13 21 16 12 12 7 7 8 9 11 12 11 10 4 4
10 10 8 6 7 8 6 6 4 5 6 6 6 6 7 6 14 20 21 26 22 13 12 12 9 11 20 19 21 18 20 18 19 11 12 12 12 13 10 14 15 8 9 11 11
11 11 10 8 8 9 7 5 4 5 5 6 6 6 6 10 8 5 1 8 15 18 17 14 12 12 11 23 22 22 21 23 19 13 10 14 13 15 15 16 15 15 16 15 13
12 12 11 9 10 11 10 7 5 5 4 6 7 7 6 12 19 8 6 5 2 12 22 16 17 15 20 18 20 24 23 20 21 15 13 15 17 17 21 20 18 17 14 16 12
13 13 12 10 11 12 12 10 8 5 7 6 8 9 11 16 13 20 12 10 6 4 17 20 14 17 14 22 21 11 23 23 18 19 18 17 19 17 20 19 18 18 16 12 12
14 13 13 11 12 12 13 11 10 7 7 7 7 9 14 17 7 9 18 19 17 14 9 19 20 15 14 15 23 16 22 21 25 19 20 15 22 23 20 22 13 13 13 11 6
15 15 14 13 11 13 12 12 11 9 7 5 6 10 9 15 25 16 9 9 14 17 18 11 19 19 17 15 15 26 22 18 19 22 21 16 23 16 12 6 12 10 6 4 4
15 15 15 15 12 13 13 13 13 10 8 6 5 10 11 7 23 24 25 16 11 10 17 17 16 14 9 18 12 15 21 25 20 23 20 20 20 16 20 7 13 11 9 5 4
18 16 16 15 13 13 13 11 8 7 7 5 8 5 14 10 15 16 21 22 17 10 11 18 9 13 11 13 15 20 27 17 24 22 17 21 21 19 18 16 13 12 12 8 7
19 16 15 15 13 14 12 7 4 2 10 9 10 12 2 10 4 8 16 17 17 16 18 21 12 19 27 21 27 22 17 23 21 22 20 19 19 23 18 19 16 12 11 11 9
18 15 15 14 13 14 12 4 7 1 6 22 19 16 19 2 7 14 16 13 19 21 20 19 19 26 28 24 22 22 21 24 17 11 13 16 17 18 19 18 18 15 14 13 11
16 16 14 12 9 11 17 15 7 6 4 6 24 21 16 14 10 10 18 19 21 23 25 23 23 25 28 24 25 23 28 20 17 14 10 14 19 22 19 22 16 12 12 14 14
16 16 14 9 5 14 10 17 16 11 4 5 7 5 12 4 9 29 22 16 15 23 23 15 21 21 27 29 27 26 16 13 16 7 9 11 7 5 11 13 12 12 13 15 15
15 17 16 18 1 3 5 15 17 5 6 9 7 7 8 11 2 12 31 19 20 17 5 11 8 28 28 27 22 14 16 16 13 12 7 12 6 13 8 16 13 13 15 16 16
16 16 15 12 13 6 11 21 8 3 7 6 6 7 8 20 15 2 19 12 12 14 18 21 13 25 23 21 23 14 17 11 7 7 7 15 13 11 12 10 8 14 15 17 17
17 18 21 15 8 18 24 6 3 6 3 5 4 7 15 14 20 8 11 15 7 7 8 11 19 3 10 17 20 18 20 6 4 5 7 5 12 9 10 6 6 15 17 18 17
17 18 23 21 11 26 13 2 9 3 5 3 5 12 13 11 17 14 4 12 20 9 3 8 7 9 6 14 10 21 15 7 7 8 11 7 8 5 8 4 4 13 17 18 17
15 19 13 24 16 27 4 6 5 3 6 7 5 8 13 14 9 15 10 16 16 17 5 9 4 4 18 10 18 17 19 5 1 4 8 8 10 6 5 6 8 14 18 18 18
10 9 7 23 25 19 6 9 6 6 5 6 10 13 14 15 13 14 13 12 19 15 14 3 1 5 4 16 4 11 13 8 4 8 5 7 8 7 10 7 7 14 19 18 18
9 3 6 23 23 5 6 6 6 10 7 9 10 14 14 14 17 13 8 4 20 14 16 1 3 4 4 4 11 6 11 5 3 3 3 6 5 11 4 2 7 12 17 18 18
6 3 18 29 6 3 6 5 4 8 15 12 6 16 14 16 17 13 12 11 17 15 7 7 4 3 4 4 8 10 9 10 7 4 3 5 6 4 4 4 4 10 15 17 17
3 3 19 22 5 7 4 7 8 3 9 10 11 16 13 16 11 11 9 11 14 18 9 10 6 4 4 7 5 11 8 13 11 1 10 7 6 5 7 8 6 11 15 16 17
2 4 3 4 4 4 8 8 8 13 17 16 10 15 12 15 17 12 8 8 12 19 10 6 7 9 4 8 12 10 18 18 16 10 9 11 8 10 7 7 8 12 14 16 16
3 4 5 5 8 13 6 4 8 6 12 16 7 17 17 15 19 11 13 10 13 16 15 4 5 3 2 5 16 15 19 21 21 18 13 12 15 9 10 9 8 10 15 16 16
4 3 4 2 9 15 16 7 11 11 7 15 9 21 18 13 14 13 13 12 8 13 16 9 2 3 4 2 6 11 17 21 21 21 20 18 16 7 1 4 8 12 15 16 16
5 3 4 3 8 8 5 10 12 14 9 7 19 10 17 16 17 6 13 12 2 15 16 9 5 4 3 6 5 8 18 19 19 21 19 20 17 13 6 8 8 10 12 13 13

GFSSW_925_spd_024.txt.gz
Wind_Speed
6 7 7 8 10 10 8 7 7 6 3 5 7 9 9 8 9 9 13 10 6 7 10 11 12 12 16 13 14 11 7 12 16 15 15 4 3 3 3 5 6 7 7 8 11
7 7 7 7 8 8 7 7 6 7 6 4 4 5 8 8 9 18 18 15 13 13 8 11 10 11 12 12 8 10 8 15 14 11 10 9 5 4 3 7 8 6 10 6 10
9 8 7 8 8 8 8 6 6 6 6 5 5 5 5 4 9 19 26 27 21 13 12 14 15 11 12 15 16 16 18 12 16 18 13 5 8 5 8 6 8 8 9 8 6
10 9 8 7 8 8 8 7 6 6 6 5 5 6 5 6 8 4 2 8 14 18 16 16 12 12 9 15 19 20 21 18 18 17 7 5 6 12 10 8 8 9 8 8 8
12 11 9 8 9 8 8 6 6 7 6 7 6 6 4 7 14 1 4 7 4 10 18 15 14 12 14 9 16 23 18 20 16 17 18 6 8 13 13 9 11 12 11 10 9
13 13 11 10 8 9 8 6 7 8 8 8 8 7 6 14 11 13 12 7 4 5 13 17 14 12 15 16 20 8 21 18 18 17 14 14 10 10 13 9 12 11 11 10 8
14 15 13 11 10 10 9 7 6 8 9 9 8 7 12 16 7 5 11 17 15 15 10 13 19 15 7 15 14 17 18 14 21 19 16 11 18 17 13 12 15 13 10 10 4
15 15 15 13 12 10 9 8 8 9 9 7 7 10 7 14 26 25 10 10 15 16 17 20 12 11 12 8 11 9 12 16 19 16 18 12 18 14 12 14 18 13 7 5 7
16 15 14 14 13 11 9 9 9 10 11 7 5 10 10 6 20 20 21 15 11 11 12 17 16 9 11 8 7 9 12 24 15 16 14 19 19 16 15 18 10 7 9 8 8
15 18 14 14 14 11 8 8 10 5 7 6 9 4 9 8 11 14 19 21 16 11 8 9 7 7 9 11 17 13 16 15 19 15 17 18 18 12 14 7 9 10 8 8 10
15 15 15 14 14 12 8 1 1 0 8 10 10 9 3 6 13 7 11 18 15 15 14 12 9 17 22 22 20 15 16 16 17 13 19 20 23 11 12 14 10 11 8 8 11
14 13 14 12 13 12 9 3 4 2 7 18 20 18 27 14 8 12 12 12 16 17 16 15 20 26 15 18 19 20 19 18 17 16 21 21 19 15 10 12 15 12 9 9 12
14 14 14 11 9 11 12 11 11 2 4 6 21 18 19 11 12 12 15 16 14 20 20 20 21 15 19 19 20 23 21 18 15 22 8 9 9 9 12 14 11 9 10 11 17
16 14 13 11 5 12 13 11 15 7 4 5 6 6 13 7 6 19 14 13 10 18 20 18 21 20 20 23 18 22 22 20 25 20 7 9 4 14 24 20 17 10 9 14 15
17 16 17 21 7 5 7 5 11 4 5 7 7 2 5 10 6 8 28 16 17 16 10 6 11 17 22 21 18 20 17 18 25 12 9 8 4 7 11 13 21 9 9 14 14
17 18 19 17 12 3 11 16 5 2 7 5 5 7 6 12 8 7 16 18 3 16 16 16 8 10 20 22 21 17 15 20 22 10 8 10 7 6 9 11 10 9 10 14 14
19 20 25 17 6 20 18 5 2 5 2 4 4 5 12 8 9 13 11 20 8 6 11 8 20 10 8 18 16 23 14 10 4 4 4 16 8 10 4 8 11 12 12 14 13
19 21 27 22 13 27 16 2 8 6 5 4 4 9 8 8 9 15 10 9 19 13 2 7 11 13 17 11 16 24 13 5 6 7 5 8 7 4 6 8 9 11 13 14 13
19 22 18 25 22 26 5 5 5 3 5 6 4 6 7 14 7 15 18 12 9 19 6 4 11 6 13 18 18 9 10 27 2 6 6 4 3 4 9 6 7 12 14 14 13
18 11 9 26 29 19 4 9 7 6 5 3 10 12 8 12 11 7 10 11 15 17 12 1 8 4 5 11 13 12 16 9 3 8 6 5 8 5 9 9 7 13 15 14 13
11 3 10 33 27 5 6 7 7 9 5 7 7 6 13 10 13 8 5 8 16 18 15 5 7 3 4 6 10 13 8 7 3 2 4 5 2 7 8 11 10 10 15 15 13
5 3 19 33 8 3 6 5 4 6 15 12 7 14 13 12 13 14 10 7 11 19 10 9 5 3 4 2 13 6 7 5 0 3 3 3 2 6 8 7 9 9 15 14 12
5 3 18 18 6 6 4 4 8 6 9 8 9 13 12 15 7 16 10 9 11 12 12 9 3 0 1 6 6 6 5 3 5 4 3 3 3 6 8 7 6 10 12 13 13
3 5 3 3 1 8 10 5 6 13 17 8 5 14 14 16 10 2 8 5 13 15 16 9 5 6 2 6 9 8 6 5 5 0 1 2 7 6 7 9 8 9 10 14 14
2 4 5 5 7 9 7 5 7 5 12 14 7 18 14 11 11 11 11 6 10 15 12 4 2 5 8 12 11 10 11 9 10 7 2 2 7 9 10 11 10 8 9 13 12
4 3 3 3 11 15 14 7 11 8 7 6 12 13 15 12 11 10 10 9 7 8 9 9 5 5 7 7 7 8 10 13 14 8 7 8 5 7 3 9 9 10 9 12 12
4 0 0 1 8 7 6 8 8 10 10 14 18 13 14 13 8 6 9 11 4 9 10 5 3 4 4 4 3 3 9 14 13 11 11 11 8 1 6 8 8 10 9 9 9

GFSSW_925_spd_027.txt.gz
Wind_Speed
7 6 6 6 6 7 7 6 6 5 5 4 3 5 7 7 7 7 7 9 2 6 6 10 9 11 8 4 4 1 2 8 9 9 12 4 4 2 4 3 2 4 4 7 16
8 7 7 6 6 6 7 7 6 6 4 3 2 1 4 5 6 14 18 17 11 9 8 7 8 12 3 3 4 6 5 9 4 8 7 10 7 4 2 2 3 5 6 9 12
9 8 8 7 7 6 5 6 5 5 5 4 3 3 2 1 4 7 13 23 22 13 9 6 13 6 3 5 5 4 10 5 5 14 12 8 3 2 1 2 4 5 7 2 9
9 9 8 8 7 5 5 4 3 3 3 3 2 3 2 3 6 2 4 2 14 17 14 4 5 2 3 4 6 10 11 14 12 17 15 5 4 3 5 6 4 8 7 4 8
10 9 9 9 7 6 5 5 4 3 1 2 2 2 3 4 7 2 4 6 6 10 12 6 6 3 5 5 5 13 13 14 17 17 19 12 10 9 5 7 8 10 10 11 9
13 11 10 10 9 7 6 6 5 5 4 3 3 3 2 9 9 14 19 7 3 11 12 11 7 7 7 6 11 9 12 17 19 16 15 17 8 5 7 6 8 10 10 10 10
15 14 12 11 9 7 7 6 6 5 5 5 3 4 6 13 7 2 2 14 10 9 3 7 19 9 4 6 6 8 16 15 18 15 13 10 15 11 9 7 9 16 10 12 4
14 16 13 12 11 7 6 5 7 6 7 6 3 3 6 7 17 27 14 10 5 6 8 16 12 6 8 5 6 5 5 13 8 10 6 5 21 9 8 8 12 13 10 7 8
15 16 14 11 12 9 7 6 7 8 8 7 4 4 7 7 11 23 14 13 7 10 13 14 7 4 2 5 3 5 7 8 10 6 6 10 16 11 9 8 14 9 10 8 7
18 17 16 13 12 10 7 6 7 5 5 6 7 3 6 5 6 9 18 16 10 3 7 5 4 5 1 5 13 10 6 6 7 6 10 14 17 10 10 14 18 10 10 8 9
18 18 17 16 13 12 9 1 2 1 6 8 8 5 5 3 9 6 14 12 6 3 6 5 6 10 11 9 7 9 11 11 9 10 14 20 19 18 11 11 9 9 8 7 8
19 18 16 18 13 13 11 3 2 3 5 17 16 16 20 5 4 7 9 7 8 14 6 7 18 10 9 12 10 14 15 21 15 14 11 14 19 22 18 12 16 11 10 11 8
18 18 17 17 13 14 16 12 6 3 4 5 12 11 12 11 10 10 12 8 9 10 13 16 6 17 13 14 14 17 16 17 16 14 15 9 16 21 12 18 12 12 9 16 17
19 18 19 17 10 12 9 14 15 9 3 4 4 4 5 5 5 15 6 9 8 17 15 15 15 15 13 19 16 17 16 16 17 13 11 4 7 13 15 16 9 10 9 16 13
22 20 24 25 10 10 8 12 11 4 4 6 5 1 3 6 4 5 15 9 10 9 8 6 5 18 20 22 14 16 8 10 14 15 16 18 6 7 7 13 18 19 10 17 18
24 23 27 24 9 10 17 21 7 2 7 5 4 5 4 7 3 0 3 10 3 10 12 9 3 2 15 15 15 14 3 8 9 8 11 16 12 6 8 16 10 10 16 17 16
26 27 32 22 8 22 24 5 3 4 2 5 4 6 9 7 6 6 7 12 8 6 5 6 17 4 4 3 3 13 4 4 5 6 11 8 15 13 5 8 12 15 18 19 17
28 29 34 21 18 30 13 2 6 5 4 4 3 7 6 8 7 9 6 9 18 5 2 5 5 15 12 18 8 10 15 5 7 9 10 14 8 7 21 8 10 20 22 20 18
27 30 23 23 28 32 5 4 7 6 4 6 3 5 6 9 7 8 11 7 8 18 8 5 7 1 9 9 19 10 12 20 5 4 1 7 8 4 3 7 16 19 20 19 17
19 11 14 33 37 19 4 5 4 4 6 5 8 10 6 6 9 9 6 8 15 16 18 3 9 13 11 17 14 12 12 8 6 3 7 5 5 5 6 9 13 18 18 16 16
10 3 21 41 29 5 5 6 5 6 6 6 5 5 8 4 10 6 6 7 14 7 19 8 6 4 6 10 15 12 11 7 4 9 3 5 4 5 11 14 17 18 18 18 18
5 6 27 37 6 3 4 6 5 5 7 10 5 7 6 9 7 9 11 10 11 12 12 11 4 5 8 6 8 13 9 9 8 9 15 4 3 4 9 10 13 14 16 16 17
7 3 23 19 6 5 4 7 8 8 9 8 10 11 10 7 7 14 10 11 15 14 13 8 5 3 3 4 10 8 13 17 23 5 2 4 4 1 6 8 10 15 15 15 15
4 4 4 4 1 8 7 7 6 8 12 11 7 14 7 6 8 7 15 6 16 13 16 15 5 6 2 2 7 6 19 19 15 3 2 2 6 3 4 8 9 14 15 16 17
2 3 3 5 6 6 11 5 6 5 8 7 4 12 10 5 6 8 5 3 13 11 12 6 4 8 13 16 9 8 5 7 5 4 4 5 6 8 8 10 12 13 13 15 16
4 3 2 5 8 12 7 8 9 7 6 6 9 14 17 14 6 6 6 5 7 6 6 7 5 12 7 8 8 7 5 6 4 2 2 3 2 4 4 6 7 14 17 16 15
3 2 3 6 9 8 6 9 11 7 9 13 15 11 11 21 17 12 6 4 5 6 8 6 2 5 2 4 5 3 7 4 2 2 5 3 5 4 6 8 9 10 15 16 15

GFSSW_925_spd_030.txt.gz
Wind_Speed
8 6 7 7 5 4 4 4 5 4 3 3 3 5 7 8 8 9 5 6 2 3 6 7 4 13 4 2 2 1 1 7 9 8 7 6 4 5 2 4 2 2 4 5 8
9 8 6 7 7 5 4 4 3 3 3 2 1 0 1 2 7 11 18 16 12 9 4 3 4 10 3 2 3 5 5 9 6 9 9 3 1 7 2 1 1 1 3 8 13
11 9 7 8 7 5 4 4 3 3 2 2 1 1 3 3 2 6 6 20 22 12 5 0 2 2 3 3 5 5 14 7 6 11 9 5 4 5 4 5 5 4 2 2 5
12 11 9 9 7 5 3 3 3 3 2 2 1 2 4 5 5 0 3 3 15 19 12 3 0 2 3 5 4 7 5 11 6 6 5 4 3 6 5 7 4 5 4 3 6
13 13 11 10 9 7 5 3 2 2 2 2 1 2 3 2 7 6 1 6 7 17 16 6 5 4 4 4 4 5 5 10 9 10 14 14 12 9 10 10 8 8 7 7 8
15 13 13 12 11 9 6 4 3 3 3 3 3 4 2 4 8 11 11 10 4 9 8 10 6 7 4 5 6 5 6 7 8 12 9 12 17 6 9 10 10 8 10 9 10
17 16 15 14 13 10 7 6 4 4 4 3 2 4 3 11 6 5 2 1 7 10 4 13 15 1 1 4 4 5 9 9 7 4 6 7 22 21 9 8 10 10 10 8 11
17 18 17 15 14 12 9 7 6 6 6 4 3 3 6 7 6 19 14 11 5 9 9 7 5 4 4 5 7 4 3 4 2 7 5 7 26 7 8 8 11 10 11 8 10
20 19 18 17 15 14 11 8 5 4 6 7 4 3 8 6 5 14 14 6 2 5 9 12 4 3 4 3 4 3 5 6 5 10 5 13 23 11 10 8 10 10 10 9 8
21 20 19 18 15 14 12 7 4 3 5 8 2 0 5 3 5 2 13 6 4 4 3 2 2 3 2 5 11 11 5 6 6 5 9 16 18 9 9 8 12 13 13 8 8
23 20 20 19 17 16 14 4 1 1 6 7 6 3 2 3 5 4 7 6 1 1 5 2 3 9 10 7 6 8 5 8 2 7 7 12 17 18 14 11 10 13 10 8 9
25 21 21 21 19 18 16 3 4 3 3 13 13 12 14 10 4 4 13 5 5 11 4 4 11 9 9 10 9 10 14 18 8 8 11 10 16 14 18 18 14 18 11 9 6
27 23 22 21 21 20 17 11 5 2 2 4 4 8 9 8 8 6 10 5 5 9 12 16 7 17 12 14 12 14 15 9 8 9 15 15 21 13 15 17 14 18 15 8 16
27 24 23 22 18 17 10 20 9 3 3 4 3 3 4 7 5 17 14 7 6 15 12 11 16 13 13 16 12 16 7 11 10 10 5 2 10 7 8 15 16 21 10 11 14
26 25 27 34 14 14 9 15 17 3 3 5 4 2 4 7 4 2 14 9 11 8 6 6 7 16 21 18 14 11 10 9 9 12 10 17 9 8 14 17 17 19 14 15 18
27 24 31 23 15 14 15 21 11 4 7 7 4 6 5 4 3 4 4 6 2 8 12 8 3 4 16 15 15 3 5 9 3 5 9 19 11 10 12 14 11 18 11 14 16
22 22 38 34 10 29 30 8 3 4 2 6 5 5 4 6 7 8 8 7 5 4 9 4 11 6 3 3 7 16 8 4 7 7 11 9 11 21 7 13 15 13 13 16 18
23 22 43 30 27 39 21 2 5 5 5 3 5 8 8 9 7 7 5 9 16 7 2 5 6 15 14 15 7 12 15 5 6 3 8 6 10 8 16 25 21 9 12 18 19
13 19 26 27 43 40 7 4 7 5 6 10 6 6 7 8 4 9 11 7 13 18 9 6 7 3 9 10 15 4 12 23 6 4 3 6 5 10 12 7 7 11 18 20 19
11 9 15 43 46 23 6 6 5 4 7 6 7 9 7 6 10 9 8 7 7 18 17 3 5 7 8 6 10 16 7 5 6 4 5 5 7 12 14 10 7 15 17 17 16
7 4 29 44 34 9 6 5 4 5 6 6 6 5 6 5 10 6 5 5 13 12 21 8 7 3 7 12 17 7 10 8 6 7 3 3 6 10 16 14 15 14 17 20 19
3 4 27 45 7 5 4 7 5 7 2 2 4 8 5 9 5 8 11 8 9 7 11 13 4 7 17 8 17 23 20 18 7 8 6 4 7 4 8 15 18 16 14 14 16
3 2 28 27 5 6 5 5 5 6 8 7 8 9 11 7 6 9 11 7 8 12 10 9 4 4 4 5 9 15 17 22 14 3 16 6 7 7 7 8 9 16 14 14 15
4 5 4 5 3 7 8 7 7 7 8 8 5 11 10 7 12 4 6 6 14 13 19 13 5 7 8 1 7 10 22 22 18 6 10 11 17 8 6 10 10 11 15 16 16
3 2 4 10 7 9 12 8 13 7 7 9 4 14 8 7 6 10 15 14 4 11 12 9 5 8 14 22 16 18 22 24 26 12 12 23 25 9 8 12 14 15 14 15 15
2 4 2 6 14 11 13 10 10 8 9 5 8 11 16 12 8 5 6 6 5 11 11 7 4 5 7 8 16 14 17 19 16 13 22 15 2 5 4 8 8 14 16 16 16
3 2 4 7 8 8 6 9 11 8 12 11 15 13 14 21 17 18 6 11 6 6 10 5 3 4 6 1 14 8 18 14 18 20 8 2 2 5 4 7 9 12 16 18 17

GFSSW_925_spd_033.txt.gz
Wind_Speed
10 9 10 9 9 9 8 6 5 7 6 3 1 0 4 11 9 9 7 9 5 7 4 7 4 8 1 1 2 3 2 8 11 8 6 1 1 3 3 3 1 1 4 3 7
11 10 10 10 9 9 8 7 4 6 5 3 1 1 1 3 5 9 21 14 12 6 7 3 3 5 2 2 2 4 5 8 4 4 5 3 5 5 4 5 3 1 1 5 12
12 11 10 11 10 9 8 7 3 3 4 2 0 3 2 1 2 7 9 18 23 13 7 2 2 2 1 2 3 4 14 7 3 5 7 3 4 3 3 5 6 5 3 5 5
14 13 11 11 11 9 8 7 4 1 2 1 1 2 3 3 5 1 3 4 10 20 10 4 2 0 2 4 4 5 4 5 3 3 3 4 3 4 5 7 4 6 4 2 5
17 14 12 12 12 11 9 7 5 2 2 2 2 1 4 1 8 4 1 7 3 18 12 5 4 2 4 3 3 5 2 5 6 8 7 8 12 8 10 9 10 9 6 9 7
20 18 14 14 12 13 10 9 6 4 4 3 2 2 3 3 6 8 10 7 4 12 10 8 5 5 4 3 3 3 4 6 5 7 6 9 12 4 4 6 9 9 11 10 9
20 20 18 16 14 14 12 9 7 5 4 3 2 3 2 11 4 5 4 1 3 7 4 8 8 1 0 4 3 4 6 6 6 4 6 2 20 23 9 9 10 11 10 10 10
22 20 20 19 16 14 12 10 8 6 5 4 3 3 6 7 6 13 15 10 5 7 7 4 7 2 2 6 6 3 2 2 4 10 6 9 26 2 13 15 12 12 10 10 10
25 23 21 21 18 15 13 10 7 5 6 7 4 2 7 4 5 9 12 5 3 3 6 4 4 5 2 3 4 3 6 3 6 6 5 11 13 7 10 9 10 10 9 10 9
26 26 22 22 19 16 14 10 5 4 6 7 2 1 5 3 3 3 7 10 3 2 1 3 1 4 4 6 7 4 8 5 5 2 2 14 19 8 9 7 11 10 10 9 9
22 28 25 22 21 19 18 8 2 1 7 7 5 3 1 1 4 3 8 8 4 3 5 2 3 9 13 10 6 6 5 6 3 7 5 8 12 10 8 11 16 11 11 10 9
28 27 27 24 24 23 23 5 4 3 3 14 9 11 8 3 3 3 13 5 5 7 4 3 11 8 9 7 10 7 14 13 8 8 8 10 20 15 16 18 14 15 15 13 6
26 25 28 27 26 28 25 15 5 2 1 5 6 8 5 6 6 5 9 5 4 6 9 13 4 11 7 8 11 11 15 11 10 7 12 9 26 20 16 17 16 18 16 14 13
24 25 31 27 26 24 14 19 10 4 2 5 4 4 5 5 5 14 19 5 4 10 6 10 13 16 11 13 9 19 9 14 13 5 5 1 9 7 7 15 18 17 16 14 11
25 28 23 36 22 14 12 23 14 4 2 3 3 2 4 8 3 2 12 8 11 8 5 6 5 10 18 15 15 8 9 9 11 8 7 17 6 5 9 17 16 8 15 12 12
26 24 23 34 24 22 24 31 12 3 7 6 3 6 5 4 3 3 4 4 2 7 13 14 3 4 7 10 16 2 8 14 10 9 12 10 11 7 10 14 9 10 12 10 13
24 21 19 31 14 32 40 13 3 4 2 6 5 7 7 6 6 7 6 7 6 6 9 3 10 4 4 4 7 11 6 4 7 8 10 8 12 22 8 6 6 9 9 12 10
17 16 23 24 34 44 24 5 4 5 5 4 5 8 5 7 5 6 6 8 13 7 2 5 6 13 13 14 7 17 13 5 5 4 6 7 9 11 15 22 23 20 10 7 10
10 15 16 26 41 40 12 5 8 7 7 11 9 4 7 8 4 7 9 7 6 17 8 6 6 3 7 11 14 6 13 15 6 4 4 5 8 13 14 15 10 11 9 12 15
5 5 9 30 50 28 8 9 4 4 7 8 7 8 6 8 8 9 8 5 9 15 9 3 5 7 7 12 10 8 6 5 6 6 6 7 7 12 9 23 23 10 9 9 12
3 4 13 46 28 11 6 5 4 4 6 5 6 6 7 6 9 6 6 4 10 9 18 5 6 2 3 12 15 7 6 6 4 4 4 3 7 3 12 16 12 8 10 14 16
3 2 24 39 4 2 5 7 5 6 1 2 3 4 8 8 7 8 8 7 8 8 10 10 4 8 20 7 15 20 15 12 6 7 7 2 10 2 8 13 8 10 12 11 12
3 2 26 30 5 5 7 4 3 5 5 4 6 8 9 4 5 10 6 9 8 10 10 10 5 5 4 5 10 10 13 14 16 2 10 9 10 7 11 12 4 15 15 15 14
2 2 4 6 2 13 7 7 6 3 4 5 5 8 7 6 11 4 5 5 9 13 11 13 5 8 11 10 1 6 14 17 19 11 8 15 20 23 20 9 6 6 12 15 16
2 3 4 7 6 12 7 11 12 7 7 10 6 11 7 6 8 11 11 12 9 9 10 9 8 12 18 20 16 4 12 20 23 22 14 10 21 25 19 10 5 6 12 15 15
3 3 3 8 14 11 13 8 14 11 9 5 9 10 14 8 10 3 6 6 7 5 9 5 6 4 17 20 23 10 14 22 21 24 16 13 21 19 17 18 9 12 14 15 15
2 3 2 9 11 9 7 7 12 10 10 11 15 12 12 15 16 16 6 10 7 4 8 4 3 3 6 6 7 6 16 24 19 20 21 13 20 23 18 8 14 14 16 17 16

GFSSW_925_spd_036.txt.gz
Wind_Speed
12 15 12 11 11 10 8 6 7 8 9 7 5 5 9 15 11 11 8 7 2 9 3 5 3 6 1 1 2 3 2 6 6 7 5 1 1 2 3 3 3 2 3 3 3
16 13 12 12 10 11 10 7 6 6 7 7 4 2 1 4 4 8 16 19 12 6 3 2 3 6 1 1 1 4 4 6 5 5 3 3 1 4 5 6 4 4 2 3 10
19 16 13 14 11 11 9 8 6 5 6 6 5 2 1 1 2 6 9 17 18 11 6 3 3 2 1 0 3 3 7 4 3 3 3 3 5 2 2 5 7 3 6 5 1
19 20 15 14 12 12 9 8 6 4 4 4 4 3 2 2 6 2 4 1 9 17 11 7 3 2 2 4 4 3 6 4 3 3 4 3 4 6 4 7 4 4 5 4 4
22 21 20 14 13 13 12 9 6 5 5 4 3 2 4 1 7 4 1 8 3 17 15 6 4 4 4 2 2 3 3 4 4 6 6 6 10 8 9 9 10 11 7 9 8
25 23 21 17 15 14 13 10 8 6 6 4 3 2 3 2 2 4 9 3 6 14 9 7 5 5 2 3 2 2 3 6 6 5 5 7 10 3 9 7 9 9 10 10 9
23 25 24 22 17 15 15 11 9 7 6 4 2 2 1 10 3 4 3 3 3 7 5 8 7 3 5 2 1 4 5 6 6 6 7 4 15 19 14 11 14 14 10 10 11
27 24 26 23 20 17 15 12 10 7 6 4 3 3 6 5 4 7 9 1 3 5 4 5 6 4 2 2 3 3 2 2 5 6 6 10 19 11 9 18 17 14 11 10 14
30 27 26 24 23 19 16 13 9 6 6 6 3 3 7 5 4 3 8 6 6 6 6 6 4 4 2 2 4 5 5 5 5 3 4 10 5 3 6 6 9 10 10 11 12
28 28 22 25 24 21 17 12 8 5 5 3 2 2 4 2 2 3 8 11 4 5 4 3 2 3 3 6 5 5 5 4 5 3 4 9 14 14 14 11 12 10 9 9 10
28 29 29 27 24 24 23 13 4 1 7 6 6 3 1 0 3 4 6 8 4 4 5 2 3 8 12 9 9 3 3 6 4 8 7 11 16 17 13 9 11 12 11 11 11
27 25 26 15 23 29 30 5 7 6 3 13 7 7 6 3 2 2 10 5 4 5 4 0 10 8 7 5 7 8 14 17 12 10 10 13 25 18 17 17 14 15 16 12 10
23 24 20 20 17 35 33 13 17 9 2 4 7 10 3 4 4 5 8 4 3 5 7 8 4 5 9 7 7 8 13 14 14 6 13 12 27 20 21 23 22 22 20 17 14
24 24 23 22 17 29 18 21 17 8 3 4 4 5 6 5 5 14 15 6 3 10 5 8 11 12 6 4 8 16 8 13 12 5 7 4 12 9 4 11 14 17 15 15 13
27 27 23 19 11 16 20 27 16 5 2 3 4 3 7 10 3 1 8 4 6 7 6 6 4 5 13 16 6 5 7 9 8 7 8 12 5 5 4 11 11 9 11 14 15
33 30 24 22 18 27 35 30 11 5 7 6 4 6 7 5 2 3 5 2 2 7 11 13 4 4 6 4 12 1 7 5 6 5 10 11 12 23 10 10 9 10 11 14 14
36 25 21 14 6 36 45 12 5 4 1 7 5 6 8 6 4 5 6 7 5 4 6 3 8 6 5 6 6 9 3 3 5 7 9 7 10 23 5 7 8 10 11 10 9
29 23 18 18 27 44 37 4 4 6 5 7 6 8 6 7 5 4 6 7 12 4 0 3 5 10 9 16 5 13 12 5 5 4 4 5 10 15 12 20 21 19 14 8 5
21 11 8 10 34 47 12 5 7 7 8 11 12 7 7 5 3 6 8 7 9 15 7 5 5 4 7 6 10 5 12 13 8 7 5 5 8 11 11 16 15 10 10 9 8
4 3 7 24 34 27 8 6 4 4 7 8 5 5 6 8 9 9 8 4 6 10 8 4 5 8 1 3 9 12 4 5 6 6 7 6 7 11 14 12 15 20 16 8 7
3 2 5 36 30 8 5 4 4 3 7 5 5 5 4 6 8 5 4 4 7 6 17 4 5 2 5 10 12 7 9 7 4 4 5 3 7 5 7 2 12 14 11 10 14
0 2 13 39 6 3 4 7 5 5 2 3 3 4 5 6 7 8 8 6 8 8 10 9 3 6 11 12 14 15 15 19 5 5 4 3 14 5 7 8 12 12 6 5 7
3 2 19 26 5 5 6 4 3 4 3 3 3 3 3 6 3 8 4 6 9 11 12 10 4 5 7 1 5 7 12 14 16 3 14 6 11 7 9 7 8 6 5 6 9
1 1 4 2 3 7 7 5 5 3 4 4 3 4 3 5 8 3 5 3 8 11 10 12 5 8 11 19 11 7 13 17 16 7 13 18 19 17 15 15 6 3 5 6 8
2 1 3 6 2 7 4 6 5 5 2 5 5 9 8 4 5 7 11 9 6 7 8 7 7 9 21 26 27 24 12 18 19 26 10 17 18 12 9 10 2 6 7 10 10
1 2 2 6 8 11 5 6 13 4 8 6 7 6 9 6 6 4 4 4 5 4 8 6 4 4 19 20 19 19 16 17 22 20 22 19 18 12 11 2 4 7 10 12 12
5 4 1 10 6 6 6 7 7 7 6 5 9 9 10 14 15 15 9 5 6 3 5 3 2 3 11 10 11 5 8 15 14 14 18 15 19 15 15 16 8 6 12 13 14

GFSSW_925_spd_039.txt.gz
Wind_Speed
17 15 13 12 10 10 9 8 9 9 9 8 5 5 7 6 10 11 6 7 3 7 3 2 2 3 2 2 3 2 2 6 7 7 6 2 2 1 1 1 3 2 2 3 1
18 20 17 11 12 10 9 9 8 9 8 7 5 3 3 1 3 11 14 11 10 5 3 3 1 2 2 2 2 3 3 7 6 5 3 2 0 2 2 3 3 3 2 8 3
20 19 21 16 12 10 9 9 8 8 7 5 4 3 2 1 2 4 9 16 17 13 7 5 5 2 2 1 3 4 6 3 3 2 1 2 3 2 2 5 7 5 4 5 1
23 20 20 21 15 10 9 10 7 7 6 5 3 2 1 1 5 3 4 3 8 17 10 9 3 3 3 3 2 2 6 5 3 3 5 6 2 5 5 8 2 4 4 5 9
25 22 20 21 19 15 9 10 8 7 6 4 2 1 4 2 7 4 3 4 4 15 16 6 4 4 4 2 1 3 3 4 4 6 5 5 12 13 12 11 9 10 9 13 11
25 26 21 19 22 17 13 11 9 8 7 4 2 2 3 3 2 4 6 2 6 15 14 7 5 4 3 2 3 1 4 6 7 8 5 10 16 6 11 12 17 12 15 14 11
26 25 24 21 20 22 17 12 11 11 8 5 3 3 1 9 3 4 2 4 5 8 5 6 9 3 4 1 2 2 5 7 9 7 7 3 14 15 18 14 15 14 12 13 15
27 26 26 23 20 24 20 15 13 12 9 7 5 4 5 3 4 10 3 4 6 8 6 10 8 3 2 1 2 3 2 5 3 2 7 11 17 8 11 13 20 20 19 17 21
27 27 25 25 18 21 23 17 13 10 7 5 4 4 6 2 3 6 11 6 8 7 6 10 6 4 2 2 2 2 3 5 6 1 4 11 7 2 3 4 7 9 13 14 16
28 26 24 26 23 19 24 18 13 10 6 3 3 3 5 2 4 5 9 11 4 6 4 3 2 3 3 5 5 5 4 4 5 3 6 14 19 16 15 13 17 14 12 12 13
30 25 23 25 23 14 26 20 6 1 5 8 4 2 2 3 6 4 7 7 4 3 5 2 6 10 11 8 4 2 2 9 9 9 12 13 20 17 16 16 16 17 17 16 14
29 24 22 22 22 18 39 6 9 8 5 14 5 5 0 3 3 2 13 5 5 4 5 3 10 8 5 4 7 8 12 15 10 11 8 13 28 19 18 22 20 20 18 18 17
28 23 20 24 23 22 30 19 20 12 3 3 7 6 3 5 1 6 8 4 4 5 7 5 2 4 9 5 6 7 13 13 13 10 12 16 24 15 13 19 20 20 22 21 20
28 22 22 24 13 17 18 26 22 9 3 4 5 6 8 5 4 11 14 5 3 10 6 5 6 4 4 5 8 13 8 12 13 7 7 2 11 8 10 14 14 13 15 18 21
23 26 23 21 17 5 14 29 24 4 2 2 5 5 8 10 5 2 8 3 6 6 5 4 4 4 9 9 8 6 4 6 7 8 10 13 6 9 1 6 10 11 15 16 19
25 29 26 23 19 15 23 31 11 4 6 7 4 7 9 7 5 3 6 1 1 5 8 7 3 5 6 5 13 2 3 8 8 5 9 13 11 19 11 12 10 10 13 11 14
34 35 28 20 7 19 31 13 4 4 2 8 6 7 9 7 6 6 7 8 5 4 5 4 12 7 5 5 4 8 3 2 3 5 7 6 10 20 3 9 7 12 11 12 11
32 36 18 22 22 21 27 5 3 6 4 6 7 10 5 7 3 6 9 6 9 2 2 4 5 9 11 15 6 10 10 5 7 5 3 3 10 8 6 12 14 18 13 13 9
35 15 10 21 22 30 11 4 6 6 9 11 12 8 3 5 3 5 6 5 8 13 7 5 4 1 3 3 10 6 11 14 8 10 8 8 13 17 21 15 8 12 14 14 11
4 4 5 13 24 18 6 4 3 4 15 10 5 5 10 12 7 8 8 3 5 11 6 1 4 4 1 2 8 6 1 4 7 5 8 6 9 13 4 10 6 10 11 14 12
3 1 2 14 23 4 4 3 3 2 10 5 4 6 5 7 8 5 4 3 5 2 11 4 3 3 5 9 10 9 11 8 4 5 5 7 8 7 12 6 5 8 9 10 11
5 2 7 25 4 2 3 4 3 3 6 5 4 4 5 7 5 6 7 4 6 8 9 8 3 5 12 9 14 15 12 18 9 8 6 10 17 7 7 7 3 9 9 8 4
5 2 14 7 3 3 4 1 2 3 3 3 3 3 2 4 4 5 5 4 8 8 9 8 4 4 9 2 2 8 15 22 12 8 10 3 9 7 10 4 7 10 7 3 3
2 2 4 3 3 7 3 4 4 3 4 4 4 4 5 3 2 2 4 3 10 8 9 10 5 7 10 14 7 12 14 15 17 8 13 16 21 14 13 15 12 10 5 4 5
1 1 2 2 1 9 5 3 7 4 2 3 3 3 5 3 3 5 7 5 6 11 8 7 6 9 20 24 25 26 27 22 20 26 10 16 18 16 11 5 10 9 7 7 7
3 2 1 5 6 12 4 5 7 4 6 4 4 7 5 4 5 3 4 6 4 3 8 6 4 5 18 22 21 21 18 16 16 21 18 21 24 17 9 3 3 7 8 8 10
6 3 2 7 6 4 4 6 10 7 3 5 7 4 7 12 10 11 8 6 3 1 9 4 3 3 7 13 23 4 5 7 4 7 15 14 15 11 8 7 7 7 7 10 12

GFSSW_925_spd_042.txt.gz
Wind_Speed
18 17 16 16 13 11 10 10 11 11 8 9 9 7 6 2 14 14 13 7 7 10 5 2 4 4 5 5 3 3 8 13 20 15 11 5 9 8 3 8 3 4 3 3 1
20 19 19 19 17 14 11 10 11 11 8 7 7 6 5 2 9 10 10 11 9 8 7 6 6 5 5 6 6 9 10 16 8 12 8 5 8 6 5 10 11 8 4 2 3
23 21 21 19 18 16 13 12 10 9 8 5 6 4 4 2 2 5 11 18 14 10 6 5 4 4 6 5 8 9 14 11 6 7 3 8 10 8 10 15 12 10 5 1 2
23 23 22 20 17 19 16 14 11 8 8 4 4 2 3 5 7 6 5 5 11 13 13 9 6 6 5 8 6 8 11 12 8 8 8 11 10 14 16 18 4 6 5 8 8
24 23 23 22 18 17 19 15 13 9 7 5 3 1 2 5 5 6 6 0 7 19 16 9 10 7 10 5 5 11 10 8 10 9 11 12 18 20 19 18 17 16 15 16 14
25 24 23 22 20 17 20 17 15 12 9 6 3 3 3 8 2 4 7 3 3 15 18 13 6 6 3 5 8 1 6 11 10 13 14 17 21 18 19 20 22 22 23 21 21
25 25 24 24 22 19 17 21 16 14 10 7 4 3 4 6 2 3 7 5 6 10 13 12 7 8 6 4 3 6 11 12 13 12 13 10 20 20 23 23 25 22 21 20 22
25 25 25 25 22 21 14 23 18 15 12 8 6 3 5 2 5 6 6 6 6 5 10 12 10 4 3 2 3 4 5 5 2 2 5 9 18 7 9 14 17 21 22 22 23
26 27 25 23 21 22 15 22 20 16 12 11 6 2 4 2 4 8 9 11 11 8 7 10 9 3 5 6 5 7 7 9 9 1 4 12 12 5 3 8 12 14 14 15 17
26 27 26 23 18 22 18 20 21 18 13 8 3 2 6 4 6 6 9 14 8 13 9 6 4 6 8 8 5 6 8 8 10 2 9 16 22 20 19 22 21 18 17 16 17
26 25 24 22 19 22 22 12 7 4 10 7 6 1 5 7 8 4 12 12 11 13 9 10 7 12 13 13 8 1 6 9 10 10 18 19 23 21 21 22 23 22 21 22 22
25 21 25 22 20 20 17 6 17 9 7 14 6 11 2 6 5 8 14 9 12 12 10 6 12 12 7 11 13 14 15 15 13 11 10 18 32 24 26 24 24 24 23 24 24
25 19 20 20 20 21 10 18 21 14 4 7 14 9 7 6 4 12 15 7 12 12 16 8 3 4 14 12 12 15 15 14 16 15 17 20 25 16 5 10 16 20 23 23 24
25 22 20 20 14 8 6 19 20 5 4 9 11 10 9 7 5 13 17 6 5 13 10 9 10 6 9 11 12 13 8 13 13 9 6 3 11 17 16 18 17 19 17 19 20
24 22 21 17 15 9 4 9 11 6 8 13 9 10 12 11 11 8 16 3 9 10 6 5 6 11 14 13 11 6 5 7 9 11 13 14 6 13 6 15 15 14 15 15 15
23 28 23 24 11 17 12 9 2 5 6 7 7 13 14 14 7 7 9 3 3 7 6 8 3 6 10 9 12 3 7 9 8 5 8 15 15 19 12 10 8 7 6 10 11
33 28 28 22 8 11 10 4 3 5 8 9 9 12 16 13 8 10 11 10 7 6 8 8 16 8 9 8 8 11 4 3 4 6 8 1 12 22 2 6 11 12 12 15 14
46 46 28 20 16 11 11 2 4 8 7 6 12 16 6 18 6 8 13 10 13 5 4 5 5 15 12 16 7 16 11 5 6 5 7 4 11 9 4 3 5 7 14 13 14
36 7 3 11 18 21 6 4 3 8 11 14 14 8 5 10 6 7 10 7 10 13 6 5 4 3 7 5 12 7 10 13 16 16 11 10 20 26 26 23 20 19 7 9 13
19 5 2 11 21 12 4 5 1 5 19 17 7 6 8 13 8 10 12 7 9 15 13 2 4 4 3 6 10 13 1 3 5 5 9 11 19 15 8 13 8 7 8 11 14
9 4 4 13 21 3 4 3 3 15 13 3 7 9 9 14 9 10 10 3 9 10 15 7 4 4 4 10 13 9 8 7 5 6 6 10 13 6 9 10 12 6 7 12 12
2 1 1 23 3 1 3 4 7 12 3 4 6 10 15 13 12 8 8 3 7 11 10 12 4 7 15 11 14 15 12 19 7 8 9 12 22 13 15 11 7 7 10 11 8
2 3 5 4 4 2 4 2 4 4 2 3 4 3 5 10 6 7 6 5 12 10 11 10 5 4 4 5 4 8 14 20 18 13 22 15 14 4 10 8 8 8 13 11 6
0 1 2 2 1 6 5 4 5 4 3 6 8 8 9 8 3 6 6 4 11 10 8 11 5 8 9 11 9 9 16 15 16 10 22 22 31 25 13 13 17 18 10 9 6
2 2 2 3 2 5 5 7 10 5 2 3 4 6 5 4 5 4 6 3 4 8 9 9 5 12 18 22 22 23 25 26 19 23 16 29 20 18 14 14 16 14 8 6 4
3 2 4 3 9 12 6 9 14 4 3 3 6 8 5 4 5 6 5 6 5 11 10 7 4 8 13 20 20 21 21 20 17 12 16 22 24 23 19 14 15 9 7 5 5
2 4 1 6 7 9 5 12 10 9 3 2 7 7 7 6 5 4 5 3 3 4 13 5 4 3 8 13 23 5 4 10 8 7 7 9 13 13 11 8 6 7 9 12 10

GFSSW_925_spd_045.txt.gz
Wind_Speed
21 21 20 20 18 18 16 15 12 11 11 11 11 10 10 10 9 15 16 10 13 8 8 6 8 9 8 9 11 11 14 16 22 21 15 7 6 12 9 11 6 8 13 8 2
23 22 22 22 21 18 18 15 13 12 11 10 10 9 8 8 12 19 16 12 12 14 12 11 11 10 10 11 8 12 13 20 16 15 16 11 11 11 7 15 16 12 9 1 2
24 24 23 24 22 20 18 17 14 13 11 8 8 9 6 6 11 9 25 17 16 12 12 9 8 10 12 9 14 13 18 15 10 10 9 12 12 12 12 15 13 16 12 6 4
23 23 24 24 23 21 16 20 15 14 11 8 7 6 5 8 7 6 6 15 20 18 12 12 11 12 9 11 14 15 16 18 9 6 10 12 14 16 18 17 16 12 7 1 8
23 24 23 24 23 23 20 16 17 14 12 9 7 5 4 8 12 6 6 7 10 14 18 13 13 13 12 9 10 13 17 11 12 13 15 14 18 19 18 16 16 17 13 14 15
24 23 23 23 24 25 22 19 20 17 15 11 7 6 8 13 1 3 5 5 9 16 17 11 6 7 6 9 9 2 11 15 14 15 15 17 20 18 18 21 22 21 21 20 19
24 25 23 24 24 24 23 20 17 21 17 13 10 7 10 10 1 5 7 5 6 14 15 16 7 6 6 4 10 12 15 15 18 19 15 11 19 25 27 24 24 23 21 22 23
26 25 25 26 24 24 22 22 20 25 20 15 11 8 7 3 7 5 9 7 8 8 8 11 9 9 7 2 4 9 13 12 6 5 8 11 16 7 11 17 20 22 21 22 23
27 27 24 26 25 23 21 23 22 22 21 17 9 9 6 4 9 12 10 12 10 10 11 9 10 6 6 9 7 10 10 14 10 4 6 13 12 7 3 10 14 15 16 17 20
25 26 26 24 22 23 20 23 25 19 21 17 6 5 7 8 10 11 11 12 12 12 10 7 6 7 10 10 7 9 14 10 10 6 8 15 20 20 18 19 19 17 17 16 17
25 25 25 22 21 19 19 12 4 5 12 8 14 4 9 9 12 12 15 15 11 13 8 9 9 13 16 15 16 3 7 10 10 9 17 19 21 21 20 22 23 21 21 22 23
25 24 25 22 19 18 16 5 7 4 5 13 9 7 11 14 7 11 18 11 15 15 11 6 14 15 9 8 10 12 13 14 14 13 10 18 28 24 26 27 24 25 25 25 24
26 25 23 20 21 20 15 16 14 17 4 17 13 15 9 10 9 16 18 10 15 15 16 9 1 7 13 10 10 12 13 13 15 15 18 22 26 23 16 19 25 27 27 25 23
26 21 20 19 15 9 14 6 13 8 4 11 12 9 11 8 6 18 21 8 6 15 13 12 7 4 9 12 11 11 9 10 11 9 6 4 10 17 17 17 16 15 15 15 18
27 23 19 20 15 12 11 4 15 5 6 18 13 11 18 13 15 14 20 4 9 8 8 6 7 13 11 12 8 5 2 5 7 9 12 14 8 12 8 14 13 11 12 12 12
26 26 23 12 14 15 9 3 3 3 5 7 8 16 19 15 8 14 15 3 1 8 11 8 4 7 9 6 9 3 4 8 8 8 8 15 15 15 6 7 8 8 5 6 8
30 34 36 34 11 13 7 6 2 6 10 10 10 15 19 15 12 13 15 10 9 6 9 12 14 7 9 7 6 8 2 2 4 4 8 2 11 17 13 17 7 7 9 9 9
32 44 20 20 24 20 10 1 7 4 6 7 16 19 11 18 10 15 16 12 14 13 5 9 6 18 11 13 5 14 8 4 5 4 8 7 10 6 10 2 5 7 10 12 12
41 15 6 3 18 22 8 3 3 7 11 14 18 9 10 18 7 11 14 13 14 14 6 6 2 2 8 7 12 6 8 10 11 16 10 9 16 17 19 19 9 12 16 14 10
27 12 1 11 19 14 3 6 3 4 15 20 7 5 8 17 10 13 12 13 9 17 11 0 3 6 6 5 10 12 0 2 2 5 7 10 16 13 12 12 9 9 9 10 9
6 4 7 17 20 3 3 2 4 16 9 3 10 10 10 15 9 14 16 4 16 15 15 6 3 6 5 10 12 10 10 6 6 7 5 10 10 12 10 9 9 11 9 7 11
1 0 8 21 3 2 4 5 6 11 4 3 8 6 16 17 11 11 12 2 10 11 13 9 3 5 11 8 8 14 11 16 6 7 7 10 20 14 18 10 14 16 14 11 11
2 1 2 10 3 2 5 1 5 4 2 3 5 2 12 15 7 5 8 7 10 12 11 10 5 3 3 3 7 9 16 17 17 14 22 14 15 4 12 17 15 13 13 13 12
2 2 2 2 4 6 6 2 5 5 4 8 9 12 14 12 4 10 9 4 8 9 8 8 4 7 4 8 6 5 13 16 14 7 22 23 33 28 25 19 17 17 17 15 12
2 2 1 3 3 6 4 3 12 4 3 2 4 5 10 5 6 5 8 7 6 5 7 5 5 10 16 20 20 19 20 19 18 20 15 30 26 28 22 21 17 15 15 13 7
3 3 4 1 7 8 6 10 7 5 1 2 7 9 4 5 0 5 8 7 5 9 8 4 4 6 12 19 18 16 18 20 19 18 15 16 21 21 17 11 11 13 10 7 11
5 4 3 2 4 7 4 8 11 12 1 3 9 7 4 4 3 4 2 2 4 7 11 5 2 3 5 9 17 6 6 6 9 12 7 9 10 11 10 7 9 10 11 13 16

GFSSW_925_spd_048.txt.gz
Wind_Speed
23 23 23 22 23 21 19 18 16 14 13 13 13 12 12 11 13 8 18 12 19 15 4 7 10 12 12 7 13 9 8 12 16 15 12 11 1 4 4 6 7 2 5 9 8
23 23 22 24 23 23 21 18 17 15 13 13 13 11 10 10 12 16 18 15 15 11 10 12 10 12 8 9 5 6 8 12 11 13 8 11 2 4 4 8 6 7 6 16 8
23 23 23 22 23 23 22 21 17 16 14 12 12 10 8 6 10 8 24 22 14 14 16 15 13 9 10 9 11 8 12 9 14 16 6 9 11 1 5 5 6 9 8 10 10
24 24 24 25 23 23 23 23 20 18 15 12 11 9 6 5 5 2 13 24 18 14 14 15 10 7 10 13 13 15 13 14 18 12 3 7 8 9 7 8 10 10 7 4 7
23 24 25 25 25 24 24 24 23 21 17 14 11 8 3 6 8 3 6 11 13 19 16 10 11 9 13 10 12 13 14 12 10 9 6 7 9 9 13 10 11 10 12 5 5
24 25 25 26 25 25 24 24 22 20 17 16 12 9 5 12 3 5 6 6 10 14 19 15 4 6 4 11 7 4 7 10 13 9 8 11 12 11 8 14 14 14 11 9 8
26 26 27 27 25 27 26 24 23 22 19 19 16 12 11 13 2 4 6 7 7 15 13 16 4 3 4 3 7 7 9 11 12 11 11 6 15 18 21 17 15 14 15 15 12
25 27 27 27 26 28 26 25 23 23 23 21 18 14 7 6 16 6 8 8 6 8 16 14 10 3 4 3 2 5 9 6 9 19 15 14 15 15 12 18 19 18 15 15 13
27 26 25 28 27 27 26 25 21 24 20 21 16 11 6 10 11 13 11 12 12 9 5 13 9 5 4 3 4 7 5 12 5 5 3 9 6 11 9 4 8 10 13 13 15
28 26 25 26 26 24 26 25 23 19 16 20 12 9 9 10 11 18 13 12 11 11 7 4 4 5 6 6 5 4 11 7 7 6 6 9 12 12 13 14 9 9 9 9 9
27 26 24 24 24 22 22 12 4 5 10 5 8 4 16 17 17 14 15 14 10 9 5 9 5 9 12 12 14 11 6 11 5 7 8 10 14 14 13 14 17 15 14 16 16
26 24 25 24 24 21 18 5 5 7 7 17 14 11 18 21 11 14 19 10 11 11 7 3 8 10 8 5 7 9 7 10 9 8 7 10 19 17 21 18 19 19 18 16 14
24 25 24 22 21 18 12 16 6 3 4 13 14 16 16 12 9 17 17 9 12 14 12 6 1 11 11 4 4 6 6 8 10 11 10 12 16 11 10 19 22 21 20 13 13
24 24 23 17 14 10 12 5 4 9 4 7 8 10 10 7 8 17 18 8 8 15 13 7 6 5 6 9 6 6 2 5 6 6 4 11 7 6 9 10 8 10 10 13 16
26 22 19 15 13 8 7 5 10 6 3 16 9 18 14 10 17 12 19 3 11 10 6 5 3 6 5 6 6 2 5 4 5 5 7 4 3 7 4 7 6 8 11 10 9
25 24 22 21 10 11 11 4 3 3 7 5 8 15 15 14 4 14 11 3 3 5 7 5 3 3 5 2 3 6 2 4 4 2 5 10 9 5 3 4 6 9 6 7 6
28 30 35 29 17 14 10 2 2 5 2 7 8 16 18 16 14 17 12 6 5 5 4 5 7 3 3 7 4 3 3 1 2 2 6 3 9 11 15 12 15 8 2 5 4
33 39 19 16 10 22 9 2 6 2 1 4 14 17 14 17 10 12 13 8 10 8 8 7 4 14 10 8 5 9 4 2 4 2 4 7 7 6 12 9 3 4 4 3 5
35 24 14 9 10 28 6 3 2 3 6 8 18 8 12 10 8 10 11 11 11 9 5 7 2 9 12 6 8 5 7 1 3 4 2 5 6 9 14 10 9 3 6 7 9
24 8 7 8 22 17 3 2 1 5 7 16 5 6 9 14 10 9 13 13 10 14 10 5 3 2 7 6 8 7 6 3 1 2 5 5 7 7 4 6 7 6 5 7 6
7 3 4 12 17 1 2 3 4 12 13 3 5 8 10 14 9 10 12 7 16 15 12 4 2 2 5 7 9 7 5 2 1 3 3 4 5 4 5 7 7 9 9 8 3
3 2 5 18 2 1 2 4 3 1 7 1 3 11 13 14 11 7 9 4 13 11 11 6 3 3 8 8 12 11 6 8 3 4 4 2 7 16 9 2 2 5 7 10 6
2 1 2 4 1 1 1 2 1 2 5 2 5 9 15 11 8 6 11 5 6 10 12 7 3 2 3 2 6 4 6 9 10 4 12 6 6 3 14 20 20 21 11 7 7
2 2 2 1 3 4 3 2 4 3 8 4 6 15 15 6 8 9 8 3 4 3 8 10 4 4 2 4 2 3 6 7 6 5 13 19 25 25 22 24 22 19 17 10 7
2 2 3 2 2 4 1 2 6 2 4 6 4 11 12 6 11 10 10 8 3 4 4 4 3 5 10 13 9 10 10 13 15 20 12 23 23 26 23 22 16 8 12 11 17
3 3 3 3 0 1 3 3 6 3 7 3 7 9 2 5 6 10 11 6 5 5 5 3 2 4 5 12 12 12 16 16 19 19 16 19 24 16 20 6 7 6 3 8 9
4 4 3 5 4 3 3 7 5 2 8 7 8 6 9 8 8 8 7 5 7 8 8 6 3 1 3 7 9 8 9 9 4 7 8 9 17 14 16 13 7 8 9 12 12

GFSSW_925_spd_051.txt.gz
Wind_Speed
21 20 21 21 20 20 21 22 23 18 14 13 12 12 11 12 13 11 10 14 28 13 4 7 9 11 12 3 3 1 2 5 8 7 6 12 5 6 2 5 3 2 6 9 19
21 21 21 21 20 20 21 21 22 23 16 14 13 12 10 10 12 15 13 15 14 20 19 11 6 9 3 5 3 5 5 6 4 7 7 6 4 6 1 3 1 2 5 13 21
23 23 22 22 22 21 21 22 23 24 23 16 13 11 8 7 4 8 19 24 21 15 17 17 10 6 6 4 6 4 5 5 8 10 3 4 6 5 4 1 5 5 7 6 9
25 23 24 23 22 23 22 21 24 25 24 16 14 10 7 3 5 2 8 26 21 18 15 12 4 4 7 8 6 7 4 13 12 11 5 3 5 6 1 4 8 5 3 4 8
26 25 24 24 24 23 23 23 22 23 25 26 15 10 4 5 7 5 5 18 21 18 16 11 7 5 7 6 6 6 8 12 10 8 6 3 4 4 8 9 10 10 5 4 6
27 25 25 24 25 24 23 24 24 24 23 23 15 12 5 6 8 8 8 11 16 23 14 13 3 4 3 4 4 1 4 4 6 7 5 7 5 2 3 10 10 10 12 5 8
27 25 25 26 25 25 25 25 23 24 23 22 20 16 7 12 7 10 10 12 12 14 8 20 7 2 3 3 3 1 4 7 6 6 5 7 7 7 11 8 10 12 12 12 10
27 26 26 24 25 26 25 24 23 24 24 21 24 16 6 16 18 7 12 11 8 7 17 13 10 2 2 3 3 4 3 2 4 10 8 9 11 8 12 9 16 19 18 14 13
27 27 26 25 24 24 25 24 24 24 23 21 19 10 6 11 17 22 16 10 11 6 14 12 5 4 5 2 2 1 4 6 7 10 6 12 4 14 12 9 13 16 14 16 18
27 27 26 23 24 25 25 23 26 21 17 15 16 6 6 9 13 20 17 17 6 8 5 4 4 3 3 4 5 5 4 3 5 4 4 6 9 8 10 9 9 9 9 11 17
26 24 23 23 24 22 21 11 4 2 10 9 8 4 3 17 20 17 21 10 8 5 5 4 3 5 9 6 5 4 3 5 4 5 4 8 9 12 9 12 17 13 11 14 14
24 24 22 22 22 22 20 3 5 2 6 11 14 14 10 21 11 14 19 6 8 10 8 3 4 5 6 9 9 9 7 4 6 3 5 10 18 16 19 15 19 20 14 16 15
23 22 23 21 18 12 14 12 5 3 3 6 10 14 14 8 6 16 12 5 11 7 8 6 4 7 5 5 4 2 2 2 4 6 4 9 10 8 8 16 21 21 18 15 17
23 25 22 19 9 11 6 2 2 5 3 3 8 6 6 6 5 14 14 10 4 10 8 3 3 2 5 4 4 1 5 1 3 4 4 4 6 6 8 8 5 10 13 17 15
26 24 21 16 11 3 5 2 4 3 1 12 9 14 10 3 17 11 11 2 8 8 6 6 5 5 3 3 4 3 5 5 4 3 5 3 2 7 6 4 5 3 9 11 11
26 25 25 24 16 16 10 5 3 3 3 2 6 10 11 16 3 12 4 2 2 4 6 4 5 4 5 2 4 6 3 3 3 3 2 7 5 4 2 4 2 4 9 5 6
31 31 34 23 4 12 9 2 3 3 2 5 5 18 14 8 6 11 10 5 5 6 3 3 3 1 2 4 3 4 5 2 1 1 6 2 4 7 10 13 8 9 7 6 6
35 36 20 12 7 13 10 2 3 1 4 0 10 18 9 11 13 9 9 4 3 4 5 5 1 8 5 5 6 5 5 4 5 3 4 4 6 6 7 10 9 6 2 5 2
36 18 10 8 9 20 3 2 2 1 2 4 14 6 5 6 8 6 6 7 5 6 5 4 3 6 7 3 6 3 3 4 1 3 3 5 7 9 8 7 7 8 6 8 9
19 10 6 7 18 13 2 5 1 0 5 5 4 3 5 7 9 5 9 7 4 8 2 2 4 7 5 4 4 5 4 3 2 0 4 5 5 7 4 7 7 8 7 8 8
5 2 8 15 17 3 1 3 4 12 6 3 4 6 8 8 9 6 12 8 11 11 6 1 4 2 3 5 8 5 2 2 3 4 4 2 6 5 4 4 1 4 7 8 9
3 3 5 2 3 1 3 2 6 5 5 5 1 9 9 5 9 4 9 4 14 9 6 2 3 3 7 5 7 4 5 5 4 5 3 2 8 8 13 4 7 17 16 14 10
2 2 5 6 2 2 4 4 5 3 5 1 5 4 13 6 7 4 7 3 14 13 10 5 3 3 3 3 4 5 8 5 3 2 6 2 6 2 7 15 20 14 15 14 16
1 2 3 2 1 3 2 4 5 5 5 1 6 15 7 4 5 5 4 5 4 5 11 5 4 5 5 2 4 4 5 7 9 3 4 10 14 22 18 19 22 20 9 5 5
3 2 2 3 2 4 6 5 6 8 7 7 12 10 8 5 11 6 6 3 6 3 4 3 3 2 5 7 5 7 7 9 9 16 8 21 16 22 21 23 21 18 9 10 10
2 2 2 3 6 2 1 3 3 6 6 4 7 4 10 7 3 5 7 3 3 1 3 2 1 2 5 9 10 10 12 13 17 20 16 23 26 22 16 15 11 8 9 11 10
4 2 1 5 3 1 1 3 4 6 10 7 8 8 11 6 7 6 6 6 8 7 4 4 3 1 4 4 3 5 10 16 7 7 10 11 13 13 15 8 7 10 11 10 10

GFSSW_925_spd_054.txt.gz
Wind_Speed
20 21 20 20 21 21 21 20 21 21 22 20 16 13 13 12 13 14 17 13 25 12 10 8 11 14 8 3 4 5 2 5 6 8 5 2 4 6 3 4 2 1 7 7 25
20 21 21 22 21 20 21 21 22 22 24 23 16 14 11 10 14 17 21 21 18 23 12 8 6 8 3 5 3 5 5 7 5 5 3 4 1 5 7 4 3 4 4 14 27
21 22 22 21 22 22 21 22 22 21 26 25 25 16 10 6 7 10 16 30 24 23 23 17 8 5 5 3 5 5 6 8 8 6 0 4 4 4 3 5 3 2 4 5 8
23 22 22 21 21 21 22 22 22 23 22 25 24 18 10 5 7 2 6 27 25 21 22 13 4 3 7 6 5 3 6 8 3 6 3 4 3 2 4 6 4 1 5 6 6
24 23 22 22 21 22 23 22 22 23 23 24 24 25 9 5 9 10 6 20 25 23 18 7 6 6 6 7 4 4 4 4 7 8 4 5 6 6 7 10 10 3 6 7 7
25 24 23 22 21 23 22 23 23 23 23 23 22 26 7 11 16 17 7 17 21 21 12 11 7 8 5 5 8 2 8 5 3 3 3 5 6 4 4 9 10 7 8 7 8
25 24 22 22 23 21 23 23 23 22 22 22 21 18 10 15 5 10 13 16 24 25 8 17 7 6 5 3 4 4 2 2 5 3 4 1 15 8 9 7 10 13 10 8 9
26 24 23 23 21 21 22 22 23 22 22 22 20 16 6 20 15 7 12 12 11 16 25 16 10 2 2 2 3 5 4 2 3 2 5 8 19 4 11 8 11 11 13 12 10
26 25 24 22 21 21 22 24 24 24 22 21 18 9 4 13 13 25 11 8 12 13 17 13 10 2 3 5 3 3 3 3 6 9 9 9 3 9 15 8 10 11 9 11 14
25 24 22 21 20 22 21 22 25 23 15 12 13 5 4 9 13 20 20 15 4 6 9 3 4 4 3 2 5 6 4 3 6 5 6 7 9 10 7 7 10 11 10 10 12
24 23 21 20 22 22 21 12 5 2 6 7 5 5 3 11 15 16 19 9 4 3 5 5 3 5 8 9 4 6 2 4 4 4 3 7 6 10 10 8 12 13 13 14 15
23 21 22 23 21 17 11 1 4 6 6 11 17 9 22 14 9 13 18 7 7 8 6 3 4 5 4 5 4 3 4 6 7 2 2 6 12 15 15 13 17 22 19 15 10
23 22 23 21 20 7 13 4 14 8 4 5 6 5 6 7 7 16 15 4 12 11 7 6 5 7 5 3 5 4 4 3 4 5 1 7 9 7 6 7 15 18 17 13 16
24 23 21 19 11 7 7 9 7 4 3 4 8 5 8 7 4 7 15 7 5 13 9 3 3 7 5 3 4 4 1 2 4 4 4 5 5 6 7 9 6 6 8 14 14
25 25 23 17 13 6 5 7 4 1 1 10 10 4 7 2 15 7 3 2 5 8 6 6 8 8 4 5 5 3 5 4 3 3 4 2 2 8 5 6 2 1 5 8 11
29 28 27 23 16 16 10 8 2 4 4 1 8 7 12 10 5 12 3 2 2 7 6 3 3 3 4 3 6 6 5 6 4 3 2 4 5 6 3 4 3 5 10 9 3
32 35 26 14 2 3 7 2 2 1 4 2 6 8 15 10 9 11 8 4 5 7 5 2 2 2 3 7 3 6 6 2 4 2 6 3 4 9 9 11 4 9 10 7 8
36 20 12 6 3 11 8 1 1 1 6 6 9 18 5 14 17 10 7 4 3 6 4 5 2 6 3 4 5 4 6 4 5 2 4 2 5 5 5 7 6 5 7 8 9
24 14 12 10 11 18 2 0 2 3 2 2 10 7 6 5 7 7 4 6 4 4 6 5 1 2 4 4 6 4 2 3 4 3 3 4 6 9 4 6 6 7 9 9 8
11 8 11 9 19 9 2 5 3 2 5 4 4 3 6 5 6 5 5 5 3 6 2 5 4 5 3 4 3 5 6 3 3 1 3 4 5 5 2 3 5 10 11 13 14
6 3 9 13 3 3 2 2 5 10 5 2 2 5 8 6 8 5 10 0 5 4 2 2 4 0 3 3 6 3 1 3 4 4 3 2 6 5 4 3 4 6 6 6 8
3 3 3 10 3 1 3 7 6 6 4 3 3 10 4 6 4 3 6 5 7 5 5 2 5 3 3 2 4 4 5 5 4 4 1 1 7 4 3 3 5 14 7 14 7
2 0 1 3 3 3 4 4 3 4 4 2 4 4 4 5 5 4 5 4 11 5 6 3 2 3 2 4 2 4 5 4 4 3 5 4 6 1 6 13 13 11 15 11 7
2 3 3 2 1 3 4 3 3 7 5 3 5 11 7 4 4 4 3 7 5 6 10 6 2 4 5 4 4 4 5 8 6 3 3 7 11 15 16 13 18 19 15 12 9
3 2 1 4 3 8 8 8 11 7 7 9 5 7 6 3 5 4 4 4 7 4 4 4 3 4 5 6 2 4 6 8 13 16 6 3 8 17 18 18 19 16 11 12 12
2 2 2 2 5 8 7 7 13 11 6 6 6 5 10 2 1 5 6 3 2 3 3 2 1 1 4 6 8 7 10 10 13 15 15 21 24 23 18 8 10 9 11 11 12
4 2 1 4 4 2 3 3 6 5 12 8 6 8 12 7 4 4 5 5 7 6 3 4 3 1 4 3 1 5 11 15 7 7 10 13 17 13 9 10 5 8 9 9 12

GFSSW_925_spd_057.txt.gz
Wind_Speed
19 19 19 18 18 17 16 17 18 18 21 24 26 27 16 14 15 14 16 14 21 13 10 15 18 17 7 4 4 4 3 5 6 7 4 0 2 3 1 5 4 3 6 4 28
20 21 20 21 20 19 18 18 18 18 18 22 23 23 22 13 14 21 29 23 23 19 13 15 9 10 4 5 4 4 5 9 5 5 1 3 1 4 5 6 4 4 4 12 27
24 24 23 21 20 19 19 19 18 19 19 22 22 22 23 10 4 10 24 32 25 23 24 12 10 7 6 4 5 5 5 4 4 3 1 2 5 1 3 5 2 2 7 4 3
25 23 23 23 22 22 21 20 21 20 20 20 22 22 25 11 7 2 4 11 29 25 25 7 4 8 6 7 4 3 6 4 5 4 1 2 3 4 4 7 4 4 4 3 2
24 23 23 23 22 22 23 21 21 21 20 20 20 21 15 6 8 10 9 7 30 26 25 11 6 6 7 8 3 4 2 4 4 7 4 2 6 6 6 12 3 6 6 7 5
26 25 25 23 23 23 22 23 22 21 20 20 19 18 9 10 15 20 18 7 26 27 15 15 8 7 5 5 12 4 8 8 5 5 3 5 5 4 4 8 8 6 8 9 8
25 25 25 23 22 22 22 22 23 20 21 20 18 17 10 12 8 8 13 15 27 25 9 19 8 8 5 3 5 2 1 1 5 4 5 3 11 9 6 9 11 14 8 8 10
26 25 23 22 21 21 21 21 23 23 21 19 16 15 8 7 22 10 7 7 22 21 20 25 12 6 4 3 3 7 2 3 3 7 5 7 17 2 9 10 12 11 13 10 9
26 23 22 20 20 21 21 23 23 23 21 17 13 11 5 5 9 30 11 4 9 13 18 12 13 2 3 6 3 1 4 4 5 7 5 9 2 4 7 8 10 11 10 10 10
25 23 22 20 21 22 21 22 26 21 11 10 10 2 8 6 10 16 19 9 3 6 6 8 7 5 5 8 9 6 5 3 5 2 3 7 7 12 9 5 10 11 11 11 11
24 23 21 21 22 20 18 9 5 3 4 6 4 6 2 8 14 13 16 6 2 4 8 7 2 10 13 7 2 6 4 2 2 3 3 5 5 14 9 6 9 13 15 14 13
25 24 22 22 20 19 6 1 3 3 6 11 14 15 20 11 7 13 19 6 6 8 4 3 3 8 12 10 4 2 2 3 5 1 1 5 9 16 13 10 13 17 16 15 9
26 25 22 21 18 10 5 6 7 2 5 4 6 10 5 5 10 14 15 4 5 6 5 4 5 10 10 8 6 3 4 3 3 4 2 7 7 7 3 5 8 9 13 13 14
27 26 25 23 12 4 7 5 5 1 2 4 6 2 4 4 5 10 13 4 3 7 7 3 3 9 8 5 6 4 3 3 3 3 2 5 5 6 5 8 6 8 7 9 12
29 29 27 23 9 5 8 7 5 1 1 7 3 6 2 7 14 9 8 2 6 6 5 3 2 8 4 4 5 3 5 5 3 4 3 2 2 8 3 4 5 4 6 9 9
34 35 33 18 5 10 5 4 1 4 3 4 4 4 6 8 4 6 4 1 5 6 9 3 2 3 2 4 4 8 5 6 4 2 2 3 3 6 2 2 5 5 8 10 11
36 28 11 5 2 3 6 3 3 2 4 4 5 2 9 15 9 9 7 8 4 5 4 4 2 2 4 7 5 5 6 2 3 3 4 3 2 8 9 7 4 5 6 8 9
21 16 13 4 3 10 5 3 0 3 3 2 5 11 5 16 14 7 6 4 4 5 4 4 2 4 1 4 6 1 5 4 4 2 3 1 5 5 5 5 6 4 2 7 9
11 18 12 8 7 8 3 2 2 2 2 4 10 14 9 8 5 4 4 4 4 1 5 4 3 1 3 3 5 4 2 3 5 3 2 3 7 8 2 5 6 7 9 8 8
6 5 9 6 7 5 2 4 3 2 2 6 4 4 8 5 4 4 4 1 4 2 2 4 4 2 2 4 4 4 7 3 3 2 3 4 5 4 3 3 5 10 10 9 8
4 3 1 4 12 3 2 3 4 6 4 6 3 8 7 6 7 3 5 1 2 3 3 4 3 2 4 3 5 3 1 5 4 2 3 1 5 5 4 3 5 9 8 8 8
2 2 1 9 3 1 2 9 6 6 1 4 9 8 5 5 4 3 5 2 6 6 4 1 4 3 2 1 3 3 5 4 4 3 1 1 6 3 6 7 3 8 7 9 8
1 2 2 3 3 3 5 5 4 5 4 2 4 4 4 4 5 3 3 2 7 4 5 3 2 3 2 2 2 3 4 4 5 3 5 5 5 2 5 5 6 9 11 11 10
2 4 3 3 1 2 3 3 3 4 4 2 4 5 4 4 5 4 3 4 6 4 7 5 3 4 5 3 4 3 4 6 5 3 3 7 7 11 13 13 13 13 6 8 10
3 2 1 4 5 10 8 6 12 5 5 7 5 6 5 3 4 3 3 4 5 7 3 4 2 2 3 4 2 5 4 8 11 9 6 3 6 11 12 14 17 3 6 10 10
2 2 2 3 7 6 8 9 13 7 5 6 7 8 9 3 2 6 6 3 2 3 3 2 1 1 3 4 6 5 7 8 9 10 12 19 22 24 19 13 5 3 8 9 10
5 4 1 4 5 3 4 5 5 3 9 8 5 6 12 6 2 5 4 4 5 5 2 3 3 2 4 4 3 5 8 13 7 5 14 12 20 13 9 8 4 3 5 8 9

GFSSW_925_spd_060.txt.gz
Wind_Speed
21 21 21 21 21 20 19 17 19 18 20 21 21 21 20 22 17 16 17 17 22 14 5 14 21 13 4 2 3 3 2 5 7 7 4 1 3 1 0 2 3 5 1 6 12
21 23 24 23 23 21 20 19 19 19 19 21 21 21 21 22 25 19 32 23 22 15 20 13 10 12 4 5 4 4 4 8 6 5 4 2 3 1 2 4 2 1 6 5 21
23 21 23 22 22 22 21 21 21 20 19 18 20 21 20 20 6 9 33 33 27 24 16 14 16 8 5 3 5 4 5 4 4 3 3 4 1 1 1 3 5 1 5 4 3
24 25 25 22 21 22 22 22 23 21 20 19 18 19 18 16 7 2 7 2 30 23 22 15 8 10 7 7 5 3 6 3 4 2 2 3 1 1 4 6 3 3 1 3 4
24 24 24 24 23 24 23 23 22 22 21 20 16 16 14 9 10 10 5 9 19 29 25 13 8 8 11 11 5 5 2 5 6 6 3 2 5 5 6 9 5 6 1 3 3
24 24 24 24 24 23 23 22 22 22 21 19 16 15 14 18 10 24 29 16 18 29 25 19 8 5 6 5 9 6 9 8 4 4 3 4 5 6 5 4 6 6 8 6 5
24 25 24 23 22 22 21 20 20 20 19 19 16 16 11 18 9 9 10 17 22 30 15 22 9 7 6 3 6 4 4 2 7 5 5 4 8 9 9 7 9 9 9 8 8
26 24 23 22 21 20 21 21 21 22 20 19 16 15 9 7 28 25 21 9 21 24 19 22 16 7 4 3 4 9 2 2 3 8 5 8 8 4 7 8 13 11 7 8 11
24 23 21 21 20 21 23 23 24 23 20 17 11 7 7 6 18 21 18 5 17 17 21 20 14 5 4 6 3 6 5 4 4 7 5 8 0 2 2 3 9 9 10 8 9
25 24 23 21 21 21 21 22 25 16 8 6 5 2 6 6 7 15 15 10 3 8 5 8 9 6 10 8 11 8 8 4 9 2 3 4 6 9 9 7 9 9 10 10 9
24 22 23 21 20 20 18 9 4 3 1 6 7 4 7 12 6 10 12 5 4 5 8 10 6 14 20 12 5 7 5 4 3 2 0 5 5 11 11 6 7 10 12 12 12
26 26 25 23 21 17 12 2 4 0 6 9 11 13 19 14 4 4 16 6 7 7 6 4 5 9 12 7 7 8 7 4 1 1 2 5 8 14 14 8 11 13 13 10 8
30 28 28 26 22 17 9 5 4 2 3 4 6 3 5 7 5 13 9 4 4 9 8 6 6 9 5 10 4 2 5 3 2 2 2 6 6 6 2 4 4 6 6 6 9
32 30 29 29 15 12 4 4 3 3 3 3 3 4 5 6 6 15 13 4 3 8 6 4 8 15 16 5 8 2 4 4 4 3 3 3 4 6 4 8 5 6 8 9 11
38 35 28 17 3 4 5 11 5 2 1 1 2 5 4 7 12 10 6 0 6 6 5 1 8 11 13 9 7 4 5 5 4 4 1 2 3 7 2 4 6 8 6 7 7
34 21 16 7 6 1 4 7 4 2 3 2 4 2 1 10 6 10 6 0 4 6 9 3 3 3 2 6 4 10 6 6 4 2 2 2 3 5 1 2 4 4 6 7 8
24 19 13 5 2 4 9 3 4 1 1 3 3 3 2 5 11 10 7 5 3 5 3 5 4 3 5 8 4 3 4 2 4 3 4 2 1 7 6 4 1 2 6 7 8
19 15 14 6 3 6 2 3 3 3 4 1 3 5 3 12 8 4 8 3 5 5 4 4 1 1 1 4 6 2 4 4 4 2 2 3 5 4 3 2 5 2 5 4 8
17 12 11 10 3 5 2 2 2 3 2 3 4 3 7 8 6 6 3 4 3 2 4 4 3 1 2 3 2 3 3 2 6 3 2 3 6 6 3 1 4 7 7 8 7
10 7 5 3 3 9 1 2 3 3 2 4 2 3 5 5 4 4 3 1 5 3 0 2 5 3 2 3 7 3 7 3 3 2 3 4 4 3 2 3 7 9 9 9 7
4 2 3 5 13 2 2 4 3 4 6 3 3 8 7 5 4 3 2 3 3 2 6 4 4 0 3 1 4 2 1 4 4 3 3 1 4 5 7 6 3 6 6 6 8
3 3 8 13 3 1 3 6 3 4 6 3 7 7 4 5 4 3 4 2 2 4 4 2 4 3 1 1 2 3 5 4 4 3 1 1 5 3 6 4 7 7 8 7 6
2 2 6 6 4 4 6 4 2 5 5 4 3 5 3 4 5 3 4 2 4 4 4 4 2 3 1 1 1 3 4 4 5 3 5 4 4 3 3 7 7 7 6 6 7
2 4 4 3 1 3 5 5 4 1 5 5 5 6 6 6 5 3 3 3 2 3 7 5 3 4 5 3 3 3 4 5 5 3 3 5 6 6 6 8 11 10 3 6 6
3 2 1 4 5 8 8 7 8 7 6 9 6 5 4 3 3 3 3 3 5 6 4 3 3 1 4 2 3 4 4 8 6 5 5 3 6 8 9 12 12 8 3 5 5
2 2 3 3 7 6 8 7 8 7 5 5 5 4 4 4 0 6 6 3 3 3 3 3 1 2 3 2 6 4 7 8 9 7 9 9 18 18 16 10 7 2 4 5 4
6 3 2 5 5 2 3 4 6 3 7 5 3 5 11 6 1 5 5 4 5 6 3 3 3 2 3 4 3 4 7 11 6 5 8 7 11 8 9 8 4 3 2 4 5

GFSSW_925_spd_063.txt.gz
Wind_Speed
17 20 20 20 22 20 19 18 17 17 17 16 17 17 19 19 23 24 18 18 19 19 3 8 18 9 5 2 3 3 2 6 10 8 4 4 5 3 1 3 1 4 1 4 3
23 22 21 23 22 19 19 19 19 18 18 18 17 16 17 20 22 21 18 21 20 14 19 13 11 11 4 4 3 4 5 9 4 5 4 6 4 5 4 2 2 1 2 5 13
23 24 23 22 22 22 21 21 20 20 19 19 17 16 14 15 9 8 26 31 25 21 17 18 12 11 8 3 5 5 5 5 3 5 4 5 3 2 4 2 5 3 1 2 8
25 23 23 23 22 23 22 22 22 21 19 18 18 15 12 7 9 2 6 14 24 24 23 13 9 12 10 10 5 3 5 3 3 4 4 4 3 1 4 4 4 4 1 1 8
24 24 23 22 24 22 22 21 20 19 19 18 17 16 9 7 12 8 6 12 7 30 26 17 11 14 16 12 6 6 2 7 4 2 3 3 3 5 7 7 3 4 2 2 3
25 25 23 22 22 21 20 20 18 18 18 17 17 12 10 17 11 19 14 15 5 28 24 22 11 9 7 6 12 6 12 5 4 7 2 4 4 6 5 5 9 5 7 7 7
26 25 22 21 20 20 18 18 19 18 17 17 17 14 10 18 16 17 13 16 12 29 17 23 10 12 6 5 6 4 5 6 12 4 3 5 7 10 9 5 6 8 9 7 9
25 23 21 20 20 20 19 20 20 20 19 18 16 15 9 13 20 30 27 24 14 23 29 26 13 5 4 5 4 7 1 5 5 12 5 6 7 1 4 9 13 10 10 9 11
24 24 21 20 20 21 21 21 21 20 18 16 13 3 7 8 17 29 15 11 11 21 23 23 11 5 3 7 6 8 5 9 3 10 6 15 2 5 4 5 7 9 10 8 12
26 25 23 22 23 21 20 18 20 8 2 3 4 2 5 6 9 15 14 18 3 13 11 13 12 9 7 8 13 13 8 5 12 4 5 6 9 8 7 4 8 9 11 9 9
28 27 26 24 22 21 18 8 3 2 1 5 4 4 4 12 16 13 11 7 4 12 10 12 10 14 18 10 4 8 7 4 3 2 3 4 5 9 10 6 8 10 11 12 11
30 30 29 27 23 20 9 2 4 2 6 7 12 10 15 5 5 6 12 8 6 9 9 3 12 9 9 8 4 12 9 5 1 2 2 2 7 12 11 7 9 11 10 8 8
35 36 32 26 19 20 10 7 3 2 4 3 3 4 4 6 5 10 11 4 6 7 13 5 6 7 10 17 12 4 10 4 4 2 2 3 5 3 1 3 4 5 2 3 6
38 29 25 19 3 6 2 11 3 5 2 3 3 3 5 4 6 9 14 3 3 7 6 7 6 14 5 7 5 7 1 5 6 3 2 3 3 2 2 10 10 7 8 8 8
35 26 23 10 3 3 3 7 8 2 2 1 2 1 5 4 2 5 8 2 5 5 4 2 15 16 12 6 4 2 5 3 3 4 1 1 2 3 0 5 4 6 6 7 8
33 24 20 9 6 7 2 6 3 3 3 2 2 2 2 3 3 9 10 5 4 8 13 5 2 4 2 17 12 10 6 6 4 2 0 1 2 2 2 3 2 1 4 6 8
27 16 16 9 3 5 4 1 2 3 2 4 1 3 1 2 8 10 7 4 4 5 4 3 4 4 5 10 3 3 3 2 2 1 2 1 2 5 2 2 4 2 4 5 6
23 11 10 10 6 4 3 4 6 4 4 1 4 4 5 5 6 13 6 4 5 5 4 3 4 2 2 3 6 2 3 3 4 3 2 1 5 2 3 4 4 1 4 5 6
19 7 3 4 2 8 0 4 3 5 4 3 4 6 3 5 5 5 5 3 2 2 5 4 4 3 5 2 2 2 2 2 6 2 1 2 4 3 2 2 1 2 2 5 5
13 7 4 5 7 5 1 4 2 2 2 1 4 6 6 4 4 4 3 2 2 2 0 2 6 3 1 3 9 2 6 2 2 3 3 2 3 4 5 4 1 3 4 4 4
5 3 4 11 5 2 3 4 2 2 5 2 1 5 6 5 5 2 2 3 2 3 4 4 4 1 1 1 6 2 2 4 3 1 3 1 3 5 9 7 2 4 4 2 5
4 3 11 17 3 1 3 5 4 5 2 3 2 5 3 4 5 3 3 1 1 2 3 1 5 4 2 1 2 2 3 3 3 3 1 1 4 1 5 5 2 6 5 4 5
2 3 4 6 4 4 4 3 2 6 4 2 3 3 4 3 5 3 2 4 1 2 5 4 2 4 1 1 2 2 4 4 4 2 4 3 3 1 2 4 8 5 6 5 4
2 4 4 3 1 3 4 5 6 1 3 4 4 4 4 5 6 4 3 3 4 3 9 6 3 4 4 2 3 2 4 4 4 2 4 5 5 4 4 6 10 9 1 3 5
3 2 1 4 4 7 3 4 5 7 6 9 6 6 4 3 3 3 3 3 6 5 4 3 3 2 1 2 3 4 4 7 5 5 5 2 5 6 7 7 7 4 2 4 6
3 3 3 3 5 6 6 6 7 6 6 6 5 6 4 3 1 5 6 3 3 3 3 3 2 2 3 1 4 3 4 7 8 3 7 2 13 13 13 7 4 2 2 3 4
6 4 2 5 5 3 4 5 5 2 6 5 2 3 8 5 2 3 3 4 5 5 3 3 4 2 2 2 1 4 9 11 5 4 8 7 9 6 5 3 2 1 1 2 2

GFSSW_925_spd_066.txt.gz
Wind_Speed
23 21 20 19 19 19 19 18 16 16 15 16 15 15 14 15 16 15 14 10 19 17 4 9 17 14 10 8 6 5 9 17 23 21 17 7 14 9 3 9 8 7 4 3 2
22 22 22 21 20 19 20 20 19 18 18 17 18 16 15 14 19 26 18 16 23 14 16 12 16 16 8 9 7 11 14 21 14 12 12 11 13 12 9 12 12 10 5 2 7
22 21 21 21 20 19 20 20 19 18 18 18 16 15 13 11 17 15 21 28 25 22 16 16 17 14 12 11 11 13 17 12 6 7 7 11 11 7 10 12 13 13 5 2 6
22 22 22 21 20 20 20 19 18 18 17 16 14 14 12 7 7 8 2 30 28 25 21 18 17 12 11 12 16 11 16 8 6 5 6 8 7 9 11 4 5 7 4 1 6
22 23 23 21 19 18 18 17 17 17 14 14 13 12 7 8 15 17 15 6 8 25 28 20 22 22 19 14 14 16 6 14 9 5 4 6 7 9 11 8 4 3 2 2 2
23 22 21 19 18 16 16 17 16 16 14 13 10 8 8 13 19 22 15 13 6 18 29 28 17 22 15 11 16 9 15 5 14 10 4 6 7 5 9 12 11 9 10 8 7
23 23 22 20 18 18 18 17 17 17 16 13 12 8 11 19 9 7 9 9 11 13 18 31 15 21 10 11 14 5 12 18 13 10 9 9 16 18 13 10 10 9 11 10 9
24 24 23 22 18 18 18 18 18 18 17 15 11 8 9 9 16 26 22 25 19 16 23 28 21 19 10 7 13 16 7 10 15 19 6 11 21 2 7 20 18 17 15 14 15
26 26 25 23 22 21 20 19 19 18 17 14 7 6 8 6 10 21 19 11 13 13 19 21 15 8 11 16 10 15 13 20 7 19 14 17 10 10 5 8 11 10 11 13 15
29 28 28 27 24 21 19 16 17 7 1 5 5 3 7 5 12 11 16 20 11 13 11 15 11 7 9 14 16 21 22 13 16 9 20 15 17 4 7 5 9 10 10 11 14
28 31 32 30 27 20 17 8 4 3 5 5 5 4 2 9 8 9 15 12 11 14 11 19 11 9 17 24 12 12 17 10 14 6 12 16 12 15 14 14 14 14 14 13 13
31 32 27 25 19 12 9 3 2 4 5 7 11 13 15 6 5 5 10 7 9 10 19 11 17 21 15 17 10 12 16 14 3 9 7 6 9 11 14 16 13 14 14 13 10
32 29 27 22 10 6 6 5 4 3 3 4 3 5 9 8 3 9 18 6 17 15 23 13 2 9 12 17 11 14 15 13 6 7 3 2 8 11 4 2 3 1 1 0 2
30 25 21 17 5 6 4 3 3 2 2 1 2 3 3 3 4 9 23 8 5 15 11 5 1 13 15 14 13 8 6 11 11 10 4 3 3 4 5 7 7 7 6 5 5
29 20 14 14 4 3 2 3 6 2 0 3 2 2 1 3 7 4 12 7 14 6 7 4 11 12 2 8 13 4 7 10 6 4 1 5 4 7 8 9 9 7 6 6 5
29 15 11 5 7 7 4 3 0 3 6 4 3 3 1 3 6 7 6 1 8 10 14 5 3 7 3 4 8 10 9 10 6 2 3 5 4 8 8 9 8 5 5 5 6
28 10 7 3 2 5 1 1 2 4 0 5 3 2 2 4 2 4 4 7 4 5 4 4 4 4 8 7 10 6 10 4 3 3 1 1 4 4 8 4 8 5 5 5 5
26 4 2 3 5 0 1 2 10 6 6 2 4 5 3 5 5 3 8 5 9 5 5 3 4 1 4 2 7 14 2 3 5 6 5 3 5 4 2 5 6 1 0 2 5
20 2 1 1 2 6 2 6 4 4 3 1 3 7 4 7 4 7 6 3 2 3 4 4 3 4 2 1 3 5 3 2 5 2 2 4 3 2 7 10 5 2 3 3 4
9 2 1 5 6 3 2 6 3 1 2 2 4 8 7 14 5 3 4 1 1 2 2 5 6 4 7 8 8 1 8 3 1 5 4 5 4 6 12 10 6 4 2 2 3
2 0 1 12 3 3 4 3 2 3 4 3 5 8 11 5 6 4 2 2 3 1 2 5 3 4 3 1 5 4 2 2 1 2 2 4 3 7 17 13 9 4 1 0 2
4 2 9 9 2 1 2 3 2 2 4 4 2 6 4 3 5 4 4 1 1 1 3 1 5 4 2 3 2 1 2 3 3 4 1 1 3 6 15 11 2 5 2 1 1
2 2 5 4 3 4 2 1 2 6 5 4 4 4 3 3 4 4 3 3 1 1 3 5 4 5 2 2 2 5 4 3 4 2 4 2 4 3 7 7 7 6 3 1 2
1 2 3 3 2 3 5 4 3 1 5 3 3 2 3 5 6 4 5 3 4 4 7 3 3 0 3 3 4 4 8 8 3 3 4 4 2 8 8 5 6 3 2 2 2
3 3 2 4 5 7 6 5 4 5 5 9 4 7 2 2 3 4 3 4 3 3 2 1 3 2 3 2 2 3 5 10 6 3 4 2 4 6 3 7 5 4 2 1 2
3 2 3 3 6 5 9 8 8 4 6 4 5 7 4 3 3 5 5 3 3 1 2 2 3 2 2 2 5 5 7 10 12 11 11 8 14 10 8 4 4 1 1 1 2
6 4 2 3 3 2 3 4 6 5 4 5 2 4 8 4 1 3 1 4 4 4 2 1 4 1 0 2 3 5 9 12 8 8 11 9 7 3 7 5 4 3 2 2 2

GFSSW_925_spd_069.txt.gz
Wind_Speed
22 20 20 19 19 19 18 17 18 19 18 15 16 16 15 15 15 17 19 16 20 16 4 8 18 14 13 12 17 13 15 19 26 25 21 11 14 13 13 19 9 10 12 8 9
23 21 20 21 21 19 18 17 17 17 18 17 17 16 16 14 18 25 23 23 23 19 13 13 18 19 7 15 9 12 16 25 19 21 15 12 10 14 10 14 14 13 6 4 10
23 21 22 21 22 22 19 19 18 17 18 18 16 16 14 11 18 24 27 32 25 24 19 18 16 19 15 12 16 13 18 19 18 4 2 10 11 16 15 15 17 16 14 8 8
23 23 23 22 21 20 19 18 17 17 16 15 15 14 9 7 8 7 18 16 31 22 24 20 18 20 17 15 19 14 22 18 9 3 3 10 12 17 13 12 12 5 6 4 9
26 24 23 22 21 20 19 17 17 16 16 14 11 10 7 11 18 16 15 10 9 31 27 22 22 22 22 19 14 20 14 16 9 5 10 9 14 15 16 5 2 6 3 5 4
26 24 23 23 21 20 19 19 18 16 14 13 9 7 10 19 14 17 12 9 9 6 27 26 20 23 18 15 20 11 18 8 16 10 6 8 11 10 14 11 11 9 9 7 5
26 25 24 24 23 19 18 18 18 18 15 14 12 10 15 18 5 1 3 7 12 9 7 31 25 21 16 17 18 11 13 15 11 16 7 9 14 20 16 10 16 15 14 11 10
28 27 27 25 24 22 20 19 19 18 17 15 11 10 9 9 15 22 21 16 17 20 16 20 29 12 19 8 13 17 12 13 20 12 12 10 21 18 19 16 17 16 13 13 13
28 27 29 31 29 26 21 17 16 15 15 13 8 9 11 2 10 11 15 11 8 20 24 16 22 8 22 15 14 14 11 21 16 25 11 17 13 13 6 12 20 20 17 15 15
30 30 32 29 26 23 20 14 12 11 4 4 6 6 10 5 4 11 10 14 6 14 14 13 13 7 16 11 11 20 23 20 20 12 24 19 17 6 5 8 10 11 13 13 14
31 31 29 27 24 18 7 2 5 4 9 7 5 11 3 2 10 6 11 16 17 13 11 15 15 18 28 28 20 17 17 21 15 8 13 23 18 17 11 11 12 12 13 13 13
32 32 28 24 14 11 2 2 5 4 4 8 11 13 16 5 8 9 12 10 8 11 15 13 19 11 14 22 21 13 19 21 8 8 8 13 20 17 13 16 15 15 15 14 13
32 31 26 19 8 11 9 3 3 2 3 4 4 6 8 11 10 7 15 10 16 10 22 19 6 17 11 16 17 21 14 16 11 12 9 6 13 13 15 15 12 8 11 11 8
32 29 24 15 4 10 5 1 2 2 2 3 2 2 4 2 5 4 11 8 10 13 18 15 5 18 14 10 16 15 15 12 12 14 6 13 3 16 15 11 10 8 7 5 4
33 28 18 9 6 4 3 1 1 2 1 7 3 3 1 2 3 5 8 7 2 3 2 3 12 13 17 7 14 4 4 11 13 15 6 12 5 10 10 11 11 9 7 5 4
34 28 14 6 2 3 1 2 3 3 8 4 2 2 3 1 4 7 4 0 6 6 12 7 9 4 2 4 9 7 12 8 2 3 5 11 10 10 11 12 12 9 8 6 5
37 27 7 5 3 2 7 3 3 6 2 8 5 4 3 3 3 3 7 7 5 4 8 5 4 4 6 6 8 10 10 5 4 4 3 6 6 4 8 12 11 11 8 6 4
41 14 5 4 3 2 3 3 10 7 3 5 4 5 5 3 3 5 12 14 17 10 6 4 4 1 1 1 4 9 2 2 5 9 9 5 7 4 11 9 9 7 5 4 4
24 4 4 4 4 4 3 5 3 2 6 8 8 4 3 7 3 7 7 5 5 5 3 5 3 2 4 2 4 4 3 1 2 3 4 8 4 6 9 11 10 7 6 5 3
10 7 2 3 4 7 2 5 2 2 2 4 3 3 4 8 7 5 6 4 4 6 3 5 5 2 3 4 3 1 6 2 2 5 5 6 6 5 15 15 11 9 8 6 3
4 4 2 7 3 1 4 3 3 3 3 4 9 6 6 7 8 7 5 4 4 4 4 7 4 3 4 4 4 2 3 2 3 3 3 5 3 9 18 15 12 7 4 4 2
3 3 4 4 2 3 4 3 2 4 3 4 5 5 5 5 9 5 5 6 4 3 4 3 5 4 2 2 4 4 4 6 3 3 1 3 4 9 16 15 10 6 4 4 2
5 3 4 6 3 4 4 3 3 6 5 4 4 5 3 3 3 5 4 3 3 1 2 5 4 5 2 2 3 5 7 4 1 2 3 2 5 7 15 11 3 2 3 5 4
2 3 2 4 3 4 4 4 2 3 7 4 3 1 2 5 5 4 5 2 4 4 6 3 2 2 1 4 5 3 8 7 3 2 2 3 8 11 12 10 6 2 4 4 4
3 3 3 4 4 8 4 6 4 4 5 5 2 4 3 1 3 4 2 4 3 1 0 2 2 3 3 3 0 3 5 10 5 5 2 5 2 11 12 9 5 2 4 5 4
3 3 4 5 6 6 8 6 7 6 6 3 4 5 3 2 4 4 4 4 3 3 2 0 2 2 1 1 3 5 6 8 12 14 12 8 7 4 7 4 4 3 4 4 5
7 4 2 5 5 2 3 5 6 6 3 5 4 2 4 5 3 4 2 3 1 3 4 2 4 2 0 2 4 7 12 12 9 8 13 10 11 6 4 2 3 4 5 6 7

GFSSW_925_spd_072.txt.gz
Wind_Speed
24 22 20 18 20 20 20 18 18 16 17 17 16 14 14 16 16 16 19 17 20 19 5 7 16 14 12 7 12 13 7 12 20 21 13 11 9 11 7 7 6 8 4 11 16
25 22 20 21 21 21 20 20 18 18 17 18 17 17 15 13 18 25 24 23 23 18 19 16 14 16 6 7 6 8 11 19 17 13 15 10 9 9 5 4 9 5 14 17 16
24 23 23 21 21 20 19 18 17 17 16 16 16 16 14 10 10 18 24 30 28 24 21 19 18 16 14 9 13 9 14 14 16 11 8 7 6 5 6 6 8 7 10 9 17
25 24 23 22 21 19 19 18 17 16 15 14 15 14 12 9 8 9 16 10 29 25 23 22 16 18 14 12 14 12 19 17 11 3 4 1 3 3 5 5 7 4 0 10 6
25 23 22 21 21 21 20 19 17 16 15 13 13 10 6 7 13 18 21 7 1 23 23 18 17 15 19 15 13 17 13 14 17 6 4 3 2 3 6 6 4 9 8 4 7
24 24 25 23 23 23 21 20 17 15 14 13 11 7 9 15 14 14 6 5 2 6 25 21 10 17 12 17 18 6 15 14 11 8 4 1 0 1 9 9 5 6 4 2 2
26 27 25 25 26 26 24 21 19 15 13 12 11 7 10 14 11 4 3 2 1 4 6 22 27 14 15 15 14 7 5 11 4 7 3 2 3 14 9 8 6 8 6 6 7
28 28 27 30 28 26 25 22 17 15 14 11 10 6 6 9 16 22 21 11 3 5 9 14 16 14 16 6 8 10 4 8 12 7 6 7 7 11 10 11 11 8 7 9 9
28 29 29 29 26 25 22 18 16 12 12 8 3 5 6 2 12 15 13 12 4 2 9 16 6 6 9 13 9 7 8 9 7 14 5 8 7 9 12 11 11 9 9 7 8
27 30 29 28 26 22 17 12 5 4 9 6 4 2 7 5 3 4 7 8 5 6 6 5 5 6 8 12 14 16 16 17 15 16 15 12 10 5 7 4 9 9 11 11 8
27 31 29 27 18 20 11 3 2 3 11 6 7 7 1 7 5 8 5 12 9 5 6 10 6 14 25 22 5 10 11 14 15 12 21 19 14 16 7 5 6 8 7 7 6
28 30 29 24 16 13 12 4 7 3 3 8 10 10 17 10 5 9 8 5 4 6 4 7 10 10 11 14 15 15 8 14 12 12 9 12 19 16 16 10 9 9 8 8 6
28 28 27 22 11 9 11 7 7 7 2 3 7 6 7 9 11 12 4 6 3 3 10 12 9 15 12 14 15 12 10 12 9 7 3 2 7 16 14 10 9 8 6 6 6
29 27 23 18 4 11 5 7 6 7 2 2 1 1 4 3 5 5 5 4 3 11 14 7 14 19 13 13 11 13 11 16 10 11 5 8 4 13 15 9 9 6 4 6 3
28 27 19 7 7 4 4 3 5 2 2 3 2 2 3 2 4 5 7 3 10 11 7 7 17 19 12 6 7 4 11 10 7 8 7 7 1 5 13 11 8 8 7 6 5
31 28 10 5 2 3 4 5 4 3 5 3 2 1 3 5 2 1 4 3 12 7 16 8 10 4 3 13 8 6 5 5 7 3 2 9 7 4 6 11 8 7 8 7 7
36 20 1 2 2 1 6 2 1 5 8 9 3 3 3 3 3 4 6 6 1 5 6 6 4 3 4 8 8 3 10 3 3 1 4 11 8 8 9 11 9 10 9 8 6
15 6 5 1 1 1 1 1 7 4 4 3 4 5 4 4 5 3 2 2 10 10 5 4 7 1 1 2 5 7 1 1 4 4 4 5 5 4 7 9 10 9 9 7 8
6 1 4 1 1 2 2 6 3 2 4 8 10 4 4 0 3 1 4 3 3 3 4 5 4 3 0 1 5 5 5 4 4 5 4 5 3 4 2 8 8 8 7 7 7
8 4 2 3 1 2 1 4 2 3 2 3 3 4 4 3 11 10 4 6 3 3 2 4 6 2 4 2 2 3 5 4 2 2 3 5 7 4 11 11 10 9 8 8 6
1 3 1 3 1 2 3 3 0 5 4 3 6 3 7 7 10 9 6 5 5 2 4 6 2 4 6 4 5 3 2 3 1 1 1 3 2 6 16 12 10 9 8 8 7
4 3 4 2 3 1 4 4 2 3 4 6 6 7 7 8 9 5 7 5 6 4 4 5 4 3 3 3 1 3 5 5 3 2 1 1 3 7 9 9 8 8 6 7 7
4 3 3 4 3 4 7 7 3 7 5 6 4 4 4 4 3 5 5 5 4 5 3 3 3 4 3 2 2 3 3 2 5 2 2 1 2 7 10 9 6 7 7 7 7
3 4 3 2 4 1 3 6 4 3 3 4 3 5 3 6 7 4 4 3 4 4 7 4 4 3 3 3 4 2 4 5 4 2 2 4 5 7 12 9 6 8 7 8 7
4 4 3 4 4 6 3 8 10 7 8 4 1 5 4 2 2 4 3 4 1 1 1 4 3 3 4 4 3 4 3 7 4 5 3 5 2 8 10 8 8 8 8 8 7
3 3 4 4 7 7 7 5 8 10 7 5 6 6 8 6 5 1 2 2 2 0 2 2 2 3 2 0 2 3 5 6 7 7 7 5 5 4 7 6 5 6 8 6 6
7 5 1 6 6 5 2 4 6 9 2 5 7 9 6 4 6 6 4 5 5 2 1 2 3 1 1 1 4 5 10 9 6 6 9 7 6 1 4 5 5 5 7 6 7

GFSSW_925_spd_075.txt.gz
Wind_Speed
22 20 18 18 17 16 16 16 16 15 14 14 14 14 13 12 12 12 13 15 13 24 15 8 9 11 7 3 4 5 2 8 14 16 19 18 12 20 6 5 2 4 8 12 14
23 20 19 19 18 16 15 16 15 14 14 13 13 13 14 12 14 21 19 22 21 21 15 19 5 11 3 4 5 5 5 16 11 9 6 10 1 7 10 3 4 7 8 20 17
22 20 19 18 17 16 15 14 15 14 13 13 12 12 12 10 7 6 12 23 27 24 24 20 16 9 5 2 6 5 13 19 8 9 4 6 7 13 19 10 5 11 11 10 17
24 19 19 20 19 18 17 16 16 15 12 11 10 9 8 4 7 12 12 12 11 29 22 20 8 10 6 9 6 6 14 4 4 5 4 5 5 16 19 7 7 8 10 7 13
23 22 22 22 21 21 19 18 15 15 12 10 7 5 2 4 9 20 22 14 11 30 22 14 12 9 9 8 3 7 3 12 16 3 8 9 5 5 8 2 7 10 9 10 9
25 24 24 23 25 26 25 21 17 14 10 9 9 3 4 9 11 11 13 5 4 2 20 19 6 8 11 7 15 3 10 12 4 11 11 5 4 2 5 3 5 10 5 5 7
25 24 24 26 27 26 24 22 18 13 11 8 8 5 3 10 6 1 1 6 2 2 3 6 18 6 3 11 8 6 4 7 4 8 7 4 3 7 5 5 6 6 5 2 1
25 24 27 26 26 24 23 21 16 12 7 7 7 5 5 11 9 16 13 5 6 3 4 7 8 3 2 2 7 10 4 2 6 6 5 8 5 8 7 3 8 4 6 6 5
26 25 28 26 24 21 22 18 13 6 4 2 1 4 5 0 5 11 9 5 8 7 2 6 2 4 4 6 1 6 6 8 3 7 5 6 1 4 7 7 8 8 6 5 6
26 25 26 25 20 18 20 13 8 6 2 3 1 1 4 1 2 5 5 14 7 7 3 1 3 6 4 10 16 18 14 6 7 13 7 6 6 5 7 9 10 7 6 7 7
25 26 25 23 19 14 17 2 3 4 3 2 3 3 8 0 5 2 9 9 5 5 4 5 8 13 27 15 5 5 9 6 10 8 6 8 7 12 7 4 8 8 8 6 11
26 26 24 21 15 10 16 4 4 1 4 5 6 9 10 5 3 7 14 5 2 2 2 3 14 7 7 9 5 7 9 10 4 9 12 9 14 10 13 6 7 7 7 7 1
26 25 25 18 6 3 14 7 6 5 2 3 3 3 2 5 4 6 2 6 2 7 8 5 3 11 11 13 11 4 5 3 1 3 3 6 7 8 11 9 8 8 7 6 5
26 25 22 16 3 5 4 7 9 5 4 1 1 3 3 1 1 4 3 3 2 6 5 7 7 17 10 13 11 7 6 6 3 7 5 4 4 9 14 18 12 13 8 6 5
27 25 13 4 2 3 2 2 6 3 3 3 1 4 4 2 1 1 3 2 6 8 6 6 17 17 9 9 6 4 4 3 6 9 3 4 1 7 8 17 20 11 8 5 6
29 17 4 3 2 4 0 3 4 3 6 2 3 1 0 2 2 4 3 6 3 1 7 6 6 4 2 5 7 5 6 8 3 2 3 7 6 5 6 20 6 7 8 9 8
25 7 4 2 4 2 4 1 3 6 4 8 3 1 3 3 3 7 5 4 5 6 5 11 2 3 7 8 5 6 4 2 3 4 5 8 5 10 6 5 9 9 9 8 8
6 1 3 1 6 2 1 3 10 4 3 3 5 5 2 2 2 4 3 4 12 10 4 4 6 4 2 3 4 4 4 2 4 4 4 4 6 5 7 8 12 12 10 8 8
2 1 1 3 3 3 1 6 2 1 4 6 9 1 3 2 2 4 3 1 3 2 5 5 4 3 6 2 3 6 5 6 2 0 3 4 2 6 7 7 12 13 11 8 8
4 1 1 2 2 1 4 3 3 3 2 3 5 1 4 2 2 3 2 3 2 3 5 4 7 3 4 3 3 1 6 3 2 1 4 4 3 5 6 7 10 11 10 8 7
3 2 2 3 1 3 3 1 4 6 8 5 4 5 6 3 3 2 5 4 4 1 4 7 5 5 5 5 8 4 3 2 2 3 3 2 5 5 14 12 11 9 8 9 8
3 3 4 1 4 2 3 7 2 6 3 5 4 4 4 7 7 4 3 2 7 4 3 3 5 4 2 5 10 5 5 4 4 5 3 2 4 3 8 8 8 8 8 7 8
2 1 6 2 4 5 6 5 3 2 4 3 4 4 4 5 4 3 3 5 7 3 2 3 3 4 3 2 3 4 8 5 2 2 3 4 4 2 7 7 7 8 8 8 7
2 4 4 4 1 1 3 5 9 3 3 4 4 5 4 5 6 2 2 2 4 2 4 2 3 5 6 4 5 4 5 5 4 3 3 4 4 6 10 9 7 7 8 8 8
4 2 2 4 4 8 4 4 7 7 5 5 1 7 4 2 2 2 2 2 1 3 3 4 3 2 2 4 4 5 4 7 4 4 5 1 3 11 12 10 9 8 7 8 8
3 2 3 3 8 5 5 4 6 6 3 6 3 8 6 3 2 3 1 2 1 1 1 3 2 3 2 3 3 3 6 7 5 4 4 4 4 7 10 6 6 9 9 9 8
5 1 2 4 4 2 1 2 6 8 6 0 3 4 2 2 5 5 2 2 2 2 1 2 4 3 2 2 0 5 9 9 5 5 6 5 7 2 6 9 7 8 8 9 8

GFSSW_925_spd_078.txt.gz
Wind_Speed
20 20 16 16 17 16 14 14 15 14 13 12 11 11 11 10 10 9 10 11 10 20 15 13 11 8 7 3 5 3 2 11 9 9 6 11 5 10 9 3 10 1 6 12 22
19 21 16 16 16 17 16 14 14 14 13 12 11 10 10 10 11 17 14 16 18 18 15 13 7 5 4 5 5 4 4 9 6 5 3 5 4 10 9 15 9 3 6 19 27
23 19 18 18 19 19 18 17 16 15 14 12 10 9 7 7 3 5 14 21 19 22 21 17 11 4 5 3 6 6 9 3 5 6 7 5 1 4 11 13 12 8 9 8 18
22 22 20 20 19 20 21 19 18 16 13 11 9 6 5 2 4 11 9 7 10 17 26 17 7 5 7 10 5 5 4 4 3 7 8 7 1 2 18 21 12 10 12 7 12
22 21 21 20 22 23 23 21 18 16 12 10 8 4 2 2 8 13 15 13 9 13 27 13 12 11 7 6 2 4 1 7 5 6 8 10 9 12 21 18 11 8 6 8 6
23 22 21 23 23 24 22 19 18 16 10 10 5 5 2 4 9 9 6 3 10 9 23 14 6 11 6 5 7 3 8 2 4 7 7 6 3 4 15 14 8 4 7 7 7
22 22 22 25 25 23 20 22 16 14 8 8 2 7 2 9 2 1 4 9 6 9 6 9 18 7 2 2 7 2 7 5 5 5 5 6 8 10 7 10 5 3 4 8 9
23 23 22 24 24 20 20 20 16 7 5 5 4 8 5 8 3 11 8 5 9 6 9 8 1 5 3 3 5 8 2 3 5 8 6 16 22 7 7 4 6 7 5 5 4
23 23 23 23 21 18 21 16 10 6 8 6 6 4 4 4 3 5 7 8 12 8 9 4 4 6 5 4 5 6 5 7 2 9 5 6 6 7 7 10 11 8 6 5 5
22 23 24 23 19 17 19 9 10 9 6 7 6 2 3 1 2 11 11 14 4 8 7 2 4 6 5 6 15 9 13 5 4 6 3 3 3 2 4 7 9 7 7 6 7
22 23 22 21 16 14 9 4 4 4 5 2 4 2 6 10 3 6 8 7 2 6 1 3 6 7 20 9 3 7 7 8 3 5 3 5 4 9 8 3 8 7 7 8 8
23 23 21 17 11 10 7 4 3 3 2 4 4 3 7 4 2 5 8 4 3 3 0 1 10 8 13 11 4 12 11 5 3 10 4 8 13 8 9 6 6 6 7 8 4
23 23 20 14 3 4 9 6 4 3 3 3 1 2 2 0 3 2 2 2 2 2 3 5 3 7 9 14 9 2 9 6 3 3 4 3 7 9 8 9 7 8 7 7 9
25 24 16 9 2 2 1 1 1 2 4 4 3 2 3 2 1 3 3 3 2 4 7 5 4 4 8 18 12 4 5 4 2 2 4 5 5 9 15 14 11 10 9 7 8
24 20 9 2 1 1 2 3 3 2 4 2 1 6 4 2 3 3 8 2 5 5 4 5 9 8 9 13 9 4 6 7 3 2 1 1 2 5 3 13 20 20 14 8 8
21 9 5 3 2 1 2 4 2 5 3 1 4 2 1 2 1 2 4 6 4 2 4 5 2 6 6 4 6 8 8 7 3 2 4 8 8 5 7 12 10 15 11 9 9
11 3 3 1 1 1 2 3 4 6 3 6 2 5 6 4 2 6 4 3 4 5 5 3 4 2 4 10 4 5 7 3 3 4 5 7 7 13 7 7 9 13 10 9 9
2 2 3 1 1 3 1 4 10 4 4 2 1 4 1 3 0 1 4 3 8 3 3 4 4 1 3 4 5 4 5 4 5 4 3 6 8 7 4 10 6 9 12 10 9
1 1 3 2 3 2 2 6 1 2 5 4 3 3 3 5 4 5 5 3 6 12 2 4 3 1 6 1 2 4 3 2 4 0 3 5 6 8 3 2 8 10 9 9 8
1 2 3 4 3 2 4 1 3 4 3 1 4 0 3 1 3 7 5 2 0 13 12 4 5 4 3 3 7 4 9 3 2 3 4 4 4 5 3 7 9 11 9 7 6
3 3 6 4 2 3 3 4 4 6 6 5 3 4 2 2 4 1 6 2 2 3 4 6 3 5 4 3 6 4 4 2 2 3 4 1 5 5 9 11 13 8 9 9 8
2 3 10 6 4 1 2 5 4 5 2 5 2 4 4 3 4 3 2 2 6 2 4 3 4 5 2 4 4 4 5 6 4 4 2 4 5 4 7 8 8 8 9 8 8
2 2 3 4 3 2 4 5 3 3 3 2 4 2 4 3 3 2 1 3 5 2 3 4 2 4 2 2 4 4 6 7 3 3 5 5 5 4 4 7 7 10 8 7 8
2 2 4 4 2 2 2 4 5 3 5 4 4 5 5 5 5 3 1 2 4 1 1 3 3 5 6 4 5 6 8 9 5 3 2 5 4 1 4 8 6 7 9 9 8
3 1 2 3 3 3 2 2 3 5 2 4 2 4 2 3 2 2 1 2 3 3 2 3 3 3 2 5 4 5 7 10 8 6 5 3 7 7 10 9 10 9 8 8 8
2 3 3 3 4 3 4 4 3 2 2 4 3 7 2 1 2 1 4 1 2 3 3 3 2 2 4 1 1 2 6 8 6 5 3 4 6 6 6 3 6 8 9 9 8
4 4 2 5 3 0 4 4 6 1 6 6 4 3 4 3 4 5 4 5 1 3 1 2 4 3 3 1 1 5 10 9 5 5 7 6 7 2 11 10 10 8 10 11 9

GFSSW_925_spd_081.txt.gz
Wind_Speed
17 20 19 14 15 16 17 16 16 15 14 13 13 11 10 11 12 10 7 9 9 8 10 11 7 1 3 3 4 4 2 9 9 7 4 8 14 10 2 3 5 3 5 8 28
18 21 19 18 19 19 18 18 18 17 15 14 13 11 9 8 10 12 12 14 16 11 12 8 4 1 2 4 5 5 6 7 7 5 5 4 8 7 5 8 7 7 7 12 24
19 20 20 20 19 19 20 21 20 18 15 13 12 8 6 5 3 6 13 25 19 25 16 12 9 3 3 4 5 6 7 2 2 6 5 6 3 5 6 6 5 6 10 6 14
19 20 19 19 20 21 23 24 21 20 19 13 10 5 3 2 4 5 10 9 15 21 13 13 6 4 5 7 5 2 2 2 2 5 5 6 6 5 12 12 9 10 9 7 9
19 20 20 20 23 23 23 21 20 19 18 9 8 6 4 2 8 8 11 11 6 3 18 13 11 6 6 6 2 9 2 7 3 7 8 8 6 4 8 5 15 12 11 11 9
20 20 21 20 22 23 19 20 19 16 12 6 4 7 3 3 3 6 5 5 7 13 10 18 7 11 3 4 7 8 12 4 5 4 4 7 5 6 3 2 18 14 12 8 8
19 20 20 21 21 21 18 21 18 11 0 6 6 8 3 7 2 7 10 9 6 11 7 16 16 8 5 2 4 1 14 2 3 6 6 4 3 7 6 12 17 19 9 8 5
19 20 20 21 21 18 17 17 13 5 7 8 6 5 4 5 2 5 4 11 9 5 11 13 10 2 6 2 4 7 1 10 5 7 5 10 17 9 13 17 16 22 13 5 6
19 19 20 20 19 16 16 9 12 10 8 7 4 2 5 5 1 3 7 8 7 9 9 16 7 5 7 5 5 4 4 5 3 8 4 6 4 18 17 17 15 16 18 3 5
19 19 19 19 17 15 10 8 9 8 6 8 6 2 4 4 2 6 6 13 4 7 7 3 4 7 6 8 15 12 6 3 4 5 3 5 3 9 18 19 17 14 12 6 6
19 18 19 16 14 12 3 1 4 4 4 1 0 1 3 11 3 3 4 5 4 4 2 4 6 8 10 8 5 11 8 5 4 2 4 4 2 6 4 9 11 10 12 12 9
18 18 18 13 9 9 4 4 3 1 1 2 3 3 5 4 2 2 6 1 2 2 2 5 13 9 13 9 6 14 10 4 2 2 4 4 7 7 7 6 9 10 15 15 6
20 18 15 9 1 3 9 5 1 2 2 2 1 1 3 2 1 2 2 2 2 2 3 7 3 8 10 11 7 2 16 6 4 3 2 3 5 7 11 7 5 7 8 8 10
21 17 11 5 4 2 3 4 2 0 4 4 2 2 2 1 2 4 3 2 2 2 1 2 3 8 6 8 4 4 8 7 3 4 4 6 4 6 11 14 8 13 10 9 7
21 16 6 1 5 3 2 2 2 2 4 1 4 5 3 2 2 2 7 1 2 0 1 1 6 7 2 8 5 3 6 7 4 4 2 0 1 6 4 9 20 18 11 8 9
20 8 2 1 1 4 3 3 3 5 3 2 1 3 1 2 3 4 3 5 2 2 3 1 6 3 5 3 6 6 10 8 5 3 2 6 6 5 6 9 4 11 12 10 9
15 2 2 2 1 6 4 3 4 5 2 4 1 2 2 2 2 3 2 1 1 3 2 2 4 4 0 3 4 6 4 3 3 4 4 3 6 12 5 6 5 7 9 9 10
4 2 4 3 4 6 3 4 9 4 5 1 2 3 5 6 3 5 5 2 6 4 2 3 2 4 2 4 7 5 7 4 6 4 3 2 6 6 7 8 7 8 8 8 9
3 2 3 3 5 5 2 6 2 3 3 2 3 3 4 5 3 4 6 3 7 13 3 4 3 1 5 3 2 4 4 5 5 3 3 4 7 8 4 7 4 5 7 10 9
0 2 3 1 5 2 3 3 4 4 3 3 2 2 2 4 7 7 8 4 5 10 6 3 4 1 6 1 6 3 9 3 2 2 3 4 5 6 5 9 4 7 9 8 7
3 2 3 1 4 2 3 5 5 7 6 5 3 3 3 1 5 4 3 4 7 5 10 2 2 2 5 3 6 3 2 2 3 3 4 1 5 6 6 8 9 7 7 8 8
3 2 4 1 3 2 1 3 5 4 3 5 3 4 3 3 0 3 3 3 3 11 7 6 4 3 2 4 6 1 5 5 4 4 2 3 6 2 7 7 8 6 8 7 8
2 3 0 2 1 3 5 5 5 6 6 5 4 5 2 2 2 2 2 5 6 4 7 6 2 4 2 2 1 4 4 3 4 3 5 5 5 1 3 5 7 10 8 8 7
3 3 4 4 1 3 5 6 6 5 4 5 4 2 3 2 2 1 3 3 4 2 2 5 3 4 6 3 6 5 7 12 8 4 3 5 7 7 3 5 7 8 8 8 9
4 2 2 4 3 6 4 5 7 6 4 3 3 3 2 2 2 2 1 1 3 1 2 3 4 4 3 4 4 4 8 15 14 13 8 4 6 8 7 8 8 8 7 7 7
2 3 3 3 4 4 4 4 6 7 3 6 3 5 0 3 3 1 1 2 1 1 2 1 2 2 3 1 2 2 6 12 17 12 9 6 7 6 5 6 6 8 9 9 8
2 1 0 3 4 3 1 3 7 10 9 7 5 4 5 4 4 3 3 3 4 1 2 2 4 3 3 1 1 5 10 11 8 6 12 10 11 3 3 7 9 8 10 11 9

GFSSW_925_spd_084.txt.gz
Wind_Speed
17 17 19 19 18 18 19 19 19 18 16 16 14 12 12 9 10 10 7 10 9 8 6 9 5 2 4 1 3 4 2 13 11 9 7 6 8 4 3 6 2 3 2 8 7
18 17 17 18 18 18 19 20 20 20 19 17 14 12 9 8 7 9 17 16 15 15 6 4 3 1 2 4 4 4 8 6 5 4 4 4 7 5 5 4 2 2 11 18 12
18 18 19 18 18 21 21 20 20 19 18 17 14 11 5 3 2 6 9 21 21 20 14 4 6 4 4 3 4 5 4 4 1 6 6 6 1 2 7 2 4 5 6 8 7
18 18 18 19 18 20 22 20 19 19 18 16 6 5 2 1 4 2 8 17 14 21 17 9 4 3 5 6 4 4 6 3 4 2 6 6 5 2 5 10 9 6 1 3 5
18 18 19 18 19 19 21 18 20 18 14 7 4 5 4 2 6 7 9 5 10 6 19 11 10 4 6 6 1 11 4 5 1 3 4 7 5 5 7 3 5 6 7 8 11
18 18 19 19 19 20 18 19 19 15 9 1 5 8 4 1 2 11 2 4 7 6 5 15 6 8 3 5 8 9 8 2 5 3 3 5 4 5 4 2 4 3 5 8 10
19 18 19 20 19 18 17 18 15 7 2 3 6 5 3 5 1 6 8 9 8 6 4 9 16 10 4 3 6 1 12 4 2 3 3 3 2 6 3 2 7 6 4 8 12
19 18 18 18 18 16 16 13 8 11 7 5 4 4 3 3 1 8 7 8 6 3 2 2 9 13 4 1 4 4 3 6 5 6 5 5 8 5 7 6 6 11 6 7 15
19 18 18 18 17 14 10 7 7 10 6 5 3 2 3 3 1 4 8 5 1 3 3 5 8 7 6 5 5 4 6 10 4 8 3 6 2 8 8 7 5 13 9 8 14
19 18 18 15 14 11 3 4 3 5 7 4 3 2 5 3 2 4 4 6 1 2 4 3 6 6 5 6 14 12 4 9 8 6 3 4 3 4 10 10 8 6 5 12 13
19 18 17 14 11 10 1 2 3 4 6 1 4 1 3 5 2 5 2 1 2 3 4 5 7 16 12 8 3 11 7 6 4 4 5 4 5 4 6 7 10 10 4 19 15
19 18 16 11 7 7 1 3 2 2 3 1 4 4 4 4 1 2 3 1 1 2 2 4 13 11 6 11 5 16 13 5 2 3 3 6 7 8 8 9 14 17 19 20 18
19 17 14 8 2 2 5 3 1 1 3 1 1 1 3 4 1 2 2 0 2 1 1 5 1 12 5 11 11 11 19 6 6 4 3 5 5 7 4 6 6 10 18 19 19
18 15 10 5 1 1 1 1 1 1 4 0 1 1 1 1 2 3 2 0 1 4 2 2 3 7 6 4 9 7 9 8 9 7 4 2 5 6 8 10 9 13 11 15 15
16 12 6 1 1 1 1 1 1 2 4 1 2 3 2 3 1 2 3 1 2 2 2 1 4 6 1 4 8 4 11 7 5 5 5 1 1 6 3 11 21 14 9 9 8
15 7 1 0 0 1 2 2 1 5 4 0 1 1 2 2 0 2 1 3 2 2 0 3 4 3 6 10 0 5 12 9 5 3 2 6 6 5 5 9 5 8 11 13 13
12 1 2 1 0 3 2 2 4 4 3 1 3 3 3 4 3 3 2 1 2 2 0 2 4 2 5 3 3 2 7 4 3 3 4 3 5 9 4 6 7 8 8 8 9
1 1 3 1 2 5 2 4 4 3 4 2 2 4 4 8 4 8 4 3 5 4 3 5 5 6 4 3 1 4 4 4 6 5 3 3 6 6 7 7 8 8 8 5 8
1 3 1 2 5 4 3 3 5 4 1 2 1 3 5 5 3 5 6 4 7 11 4 4 3 4 2 3 2 3 2 4 6 3 3 4 5 9 4 9 8 7 5 8 7
1 1 2 4 7 2 3 4 2 2 2 2 3 5 3 6 6 7 8 5 3 9 5 1 4 4 2 4 4 6 8 3 1 3 2 3 3 5 5 6 4 6 7 5 5
2 2 1 5 6 3 2 5 4 4 3 3 3 3 5 4 6 5 4 2 7 8 6 4 2 4 7 3 4 4 3 4 3 3 4 0 4 6 5 5 9 6 6 6 7
2 2 2 6 2 0 1 3 2 4 3 4 3 3 3 2 5 5 4 2 7 9 8 6 3 3 2 2 6 1 4 4 4 3 3 3 5 2 5 7 6 6 6 6 7
1 2 1 2 0 3 6 5 4 3 3 4 4 5 2 3 3 2 1 2 7 9 6 6 2 4 4 2 2 2 3 4 5 3 6 4 4 2 4 6 1 6 6 6 7
3 3 4 4 2 3 4 5 5 6 5 2 4 3 3 2 3 1 1 2 5 6 10 3 2 3 4 3 5 5 5 6 6 3 4 6 6 12 9 5 3 4 5 6 6
4 2 2 4 4 6 4 3 6 5 4 3 1 4 3 4 5 3 1 4 4 3 3 3 3 2 2 1 2 2 5 10 9 8 8 2 9 11 8 7 6 6 7 7 7
3 3 3 3 4 5 6 6 8 8 6 9 5 11 3 3 1 3 2 3 3 2 2 2 1 3 1 3 2 3 7 10 13 10 7 11 12 6 7 1 4 7 8 8 8
3 1 3 3 5 3 1 4 6 9 8 6 12 8 10 6 3 3 1 1 1 1 3 2 4 2 2 0 0 5 7 12 7 5 12 9 14 5 2 5 7 8 9 11 9

GFSSW_925_spd_087.txt.gz
Wind_Speed
16 17 16 17 16 16 18 19 17 16 17 17 16 12 8 7 6 8 5 10 8 9 6 7 1 4 5 2 4 2 3 12 19 13 9 4 8 2 2 6 2 4 4 5 8
17 17 17 18 17 17 19 20 18 17 16 15 15 10 5 5 4 8 10 12 15 17 8 4 1 1 4 3 4 5 9 10 3 6 6 5 5 8 5 4 2 3 3 16 13
17 18 17 18 17 17 17 20 18 17 17 15 13 7 2 1 0 4 7 11 19 17 11 5 4 2 3 3 4 5 7 6 3 6 5 6 5 5 8 5 7 7 6 11 14
17 18 18 18 18 17 19 18 18 18 15 12 6 3 6 4 2 3 7 15 8 18 13 8 5 4 8 9 4 4 7 3 1 2 5 6 6 5 7 5 8 8 8 9 6
17 18 18 17 19 18 17 18 18 16 11 8 2 7 6 2 3 5 8 7 11 8 9 13 11 5 11 7 3 6 4 6 3 3 3 8 5 4 6 8 7 6 4 11 4
18 18 18 18 19 18 17 18 16 10 6 4 2 8 4 2 1 5 4 3 1 7 7 14 7 9 6 6 9 8 5 7 4 3 2 5 3 4 3 6 9 8 4 6 6
18 18 17 18 18 17 17 15 11 8 5 6 6 3 2 3 2 5 8 9 6 6 3 4 15 5 3 6 9 2 12 2 4 6 4 4 3 7 1 3 7 9 9 6 3
17 18 17 17 16 15 14 10 9 9 6 4 5 1 2 1 2 7 5 4 3 1 0 5 3 1 3 5 10 5 6 7 5 7 4 5 10 4 5 4 7 9 7 5 2
17 17 16 16 15 13 9 3 5 4 3 3 3 2 1 1 2 8 4 3 1 4 3 5 5 4 7 4 7 9 9 14 4 7 3 4 2 3 4 5 7 6 9 5 2
17 17 16 15 13 11 5 1 0 0 1 2 4 2 3 2 2 4 6 5 1 0 2 1 4 7 6 3 11 17 8 9 9 6 4 5 4 2 6 7 9 6 5 8 4
17 16 15 13 11 9 0 2 4 3 3 1 2 2 4 4 3 1 3 2 1 4 2 2 1 14 15 11 12 13 6 12 6 4 7 8 6 7 4 5 8 7 7 6 9
16 16 14 10 8 6 2 4 2 1 3 3 3 2 4 4 2 2 4 1 1 0 2 1 9 12 11 13 5 14 8 4 3 3 5 6 10 8 6 9 10 10 8 8 5
15 14 12 9 2 2 5 3 2 1 1 2 2 2 3 3 3 0 1 1 1 1 1 1 5 17 12 10 4 8 12 5 7 4 2 6 6 7 4 4 7 9 9 9 13
14 11 9 5 0 1 2 2 2 2 4 3 2 1 1 2 3 1 2 1 1 2 1 1 7 17 8 9 8 7 12 8 13 10 6 1 4 5 8 9 9 15 11 11 11
11 9 6 1 1 1 2 2 2 2 3 3 1 2 2 3 2 0 2 1 3 2 2 1 2 12 10 7 7 5 15 7 4 5 3 1 2 4 1 13 13 11 11 13 10
11 5 2 1 2 1 3 1 2 5 4 0 2 2 2 1 1 4 2 3 1 2 1 1 3 2 3 5 7 8 11 10 4 3 2 5 5 4 4 8 11 14 16 16 15
6 3 3 2 2 5 3 3 4 4 2 0 2 3 3 4 2 1 1 3 2 3 2 2 1 2 4 5 3 14 17 5 4 3 4 1 4 7 5 6 7 10 14 13 13
5 6 4 2 3 5 2 4 4 2 4 3 2 4 4 8 5 4 2 4 3 3 1 4 3 5 4 3 5 16 6 4 7 6 4 2 5 5 6 6 6 5 5 3 7
7 6 4 4 5 3 3 3 5 5 4 2 1 2 4 6 4 6 6 4 6 10 4 4 4 3 5 6 3 1 2 3 6 3 3 3 5 8 6 7 3 7 6 7 7
5 5 2 6 5 2 3 4 2 3 2 3 2 5 3 4 6 8 8 5 4 9 4 3 5 5 3 6 6 3 3 3 2 4 2 0 3 3 3 2 5 4 7 6 4
3 3 2 5 3 3 2 4 5 5 5 4 4 3 4 2 6 5 3 5 5 5 5 6 1 5 2 4 4 2 2 4 4 2 3 3 3 4 3 3 7 7 6 6 5
3 2 2 4 2 1 1 4 5 5 3 5 2 5 4 3 3 4 5 4 8 10 8 6 1 4 1 1 5 0 4 3 4 4 2 2 3 3 4 5 5 7 4 2 5
3 2 1 2 3 3 5 6 4 5 4 4 3 5 3 2 2 2 3 5 9 10 7 3 2 4 3 2 4 3 2 4 4 3 6 5 4 3 4 3 2 3 3 5 7
3 3 3 3 1 2 5 5 7 9 4 7 5 3 3 2 3 0 1 4 8 3 5 2 2 2 4 4 4 5 6 6 5 3 6 4 5 7 8 7 5 0 4 7 8
4 2 1 3 4 3 4 4 6 10 6 7 7 14 11 3 2 3 2 4 2 7 2 1 2 2 3 1 3 1 3 7 6 5 6 6 8 12 6 7 6 2 5 6 9
3 3 1 1 2 4 5 4 5 7 4 8 7 17 9 8 6 3 1 2 0 4 4 1 2 1 3 2 2 2 5 7 9 5 4 3 9 5 6 2 4 4 6 8 8
3 2 3 1 3 3 2 4 5 10 5 5 12 10 7 7 14 13 7 3 4 3 2 2 3 2 2 2 2 5 5 7 4 4 7 8 8 5 3 4 6 5 8 9 9

GFSSW_925_spd_090.txt.gz
Wind_Speed
16 15 15 16 17 16 15 16 18 15 15 15 14 12 11 8 7 6 9 9 9 11 4 7 4 8 9 7 8 4 8 19 27 24 22 17 13 5 2 5 3 3 4 3 2
14 15 16 15 16 15 15 15 16 15 16 15 13 11 6 6 6 10 5 9 14 14 9 3 5 8 10 10 7 9 14 26 21 20 17 17 15 12 8 8 5 8 7 11 11
14 14 15 15 14 17 15 16 16 16 16 13 12 6 4 4 6 2 3 10 8 16 10 4 1 6 17 10 11 10 19 21 11 8 10 15 13 8 12 11 11 10 11 14 16
14 14 14 15 14 17 14 15 16 15 13 9 7 1 5 2 2 2 5 7 12 13 12 5 3 5 7 12 13 10 16 11 12 5 10 14 15 13 14 13 7 11 12 12 15
14 14 14 14 14 16 15 16 15 12 7 5 2 5 4 2 2 6 9 7 4 5 11 11 9 6 10 9 10 16 10 13 14 3 8 13 14 12 13 8 8 11 10 10 13
15 14 14 14 14 14 15 14 12 7 4 4 4 5 1 2 2 5 4 2 1 2 2 8 8 6 7 9 14 11 18 12 12 13 6 13 16 11 16 10 13 13 12 8 9
15 15 14 14 13 13 12 10 8 6 6 5 6 2 1 3 1 2 3 5 4 2 4 4 11 11 10 8 17 9 18 12 12 16 9 9 15 17 12 12 13 15 14 11 8
15 15 14 14 13 13 10 5 5 4 3 2 4 1 1 1 2 4 1 3 4 4 4 2 12 3 3 3 8 19 11 18 15 14 10 14 17 16 15 13 13 15 14 15 14
15 15 14 14 12 11 8 2 2 2 2 1 0 2 2 2 2 5 4 3 2 3 0 4 9 6 7 4 11 16 14 26 13 16 10 17 12 9 15 14 15 13 12 13 15
15 15 13 12 11 11 7 3 3 1 1 1 1 3 3 1 2 2 3 2 3 2 1 3 6 5 8 4 8 20 20 24 16 16 15 17 12 6 12 13 14 13 11 11 17
15 14 13 11 11 8 2 2 3 3 4 2 0 3 0 1 4 2 2 3 3 1 1 3 5 12 22 14 10 15 17 23 19 8 18 17 18 14 6 9 15 13 11 11 18
15 14 12 9 9 5 1 1 1 2 3 4 3 5 3 1 3 4 3 3 3 5 2 3 11 13 13 10 11 11 20 17 17 7 15 16 16 16 15 13 13 14 15 13 11
14 12 10 9 2 1 2 2 2 1 3 2 3 3 2 2 4 4 4 1 6 5 4 7 2 12 15 9 3 15 21 16 19 9 4 8 14 15 16 15 15 15 13 11 15
14 11 9 4 0 1 1 2 2 1 2 4 3 1 3 2 3 2 2 2 3 5 4 7 3 16 16 15 5 14 18 14 18 15 9 9 6 17 20 15 17 15 15 13 13
12 10 6 2 0 1 1 2 1 1 3 3 2 1 2 4 3 2 1 4 6 5 5 2 2 17 13 17 9 1 6 15 17 16 6 10 6 6 6 20 17 16 16 16 14
12 7 5 1 2 0 2 1 1 2 2 2 3 3 3 5 2 0 2 2 1 3 3 4 2 4 6 12 11 5 9 10 9 8 6 11 13 7 8 14 19 18 17 16 16
10 4 5 2 2 2 2 1 2 2 1 1 4 4 4 3 4 4 3 4 3 3 1 3 2 5 11 5 4 4 11 5 6 6 6 4 9 9 7 5 10 15 19 18 17
2 6 3 1 2 3 0 2 1 2 3 2 3 5 5 7 4 6 5 3 7 4 1 4 4 9 6 2 4 4 6 4 8 9 9 5 8 7 7 10 11 7 5 5 16
6 5 2 1 3 1 2 2 3 2 2 2 4 3 5 5 3 6 6 4 5 13 4 4 2 8 4 4 8 1 8 1 4 3 5 6 5 12 8 7 4 8 9 7 8
3 4 3 3 3 2 2 3 4 4 2 2 3 3 3 5 6 7 9 5 4 13 4 2 3 8 9 6 3 4 8 4 1 6 5 4 3 1 5 5 2 1 6 8 8
3 2 2 2 1 0 2 4 7 7 3 3 4 5 5 1 6 6 5 3 8 11 10 1 3 4 7 4 7 4 3 3 2 3 1 5 4 3 6 6 6 5 5 5 6
3 1 2 1 1 1 5 9 8 9 4 5 2 2 4 3 2 3 6 4 11 11 7 6 1 2 5 2 4 3 6 3 2 3 2 3 5 5 4 5 7 7 3 2 3
2 2 1 1 3 4 8 6 4 14 11 9 7 6 6 3 4 3 1 6 10 8 4 4 2 5 7 3 1 4 4 3 4 1 2 1 5 4 4 3 7 7 3 1 5
2 1 2 2 2 2 4 5 11 11 3 10 6 8 15 6 4 5 6 4 7 5 2 5 1 3 2 5 7 4 10 10 4 3 5 4 2 5 8 3 6 7 2 5 7
3 2 2 2 2 4 2 7 9 11 7 11 4 13 7 5 9 7 7 3 7 5 3 2 1 2 4 4 3 5 10 11 6 4 5 5 10 14 8 5 8 6 2 6 9
2 3 1 2 1 2 6 8 10 10 3 5 8 11 1 2 2 5 7 3 1 5 1 3 1 1 2 3 3 3 6 12 12 10 11 7 14 6 10 10 6 5 4 9 10
3 2 1 1 0 1 3 5 7 9 1 4 9 7 3 2 11 12 6 10 5 2 1 0 0 1 2 3 4 2 2 8 5 5 9 10 10 4 6 2 4 6 6 9 12

GFSSW_925_spd_093.txt.gz
Wind_Speed
14 13 14 14 13 14 13 14 15 14 16 16 15 14 12 10 10 9 13 9 8 8 11 8 10 15 15 14 15 8 5 17 29 26 24 21 17 13 3 10 4 3 7 6 12
15 15 14 15 15 14 15 15 14 16 16 16 14 12 10 6 9 11 5 7 13 16 14 13 11 16 12 16 9 13 7 23 25 23 18 18 20 14 10 10 8 9 7 10 16
15 15 15 15 15 15 16 14 16 16 15 13 10 8 3 4 8 4 1 6 14 13 17 13 7 8 16 15 14 15 21 23 18 20 13 5 18 19 15 15 11 9 9 9 14
15 14 15 15 15 15 16 15 15 14 11 8 7 2 5 5 2 1 5 9 12 9 12 13 9 8 8 14 17 13 27 19 20 4 8 13 12 17 14 13 8 9 10 9 13
16 15 15 15 15 15 15 15 14 10 7 5 1 3 4 5 1 4 8 7 6 5 12 10 12 13 11 15 15 23 11 19 15 2 9 15 20 22 16 14 6 7 10 11 10
16 15 16 15 14 14 13 12 10 6 3 0 2 5 6 7 2 4 6 4 3 4 6 5 8 11 9 8 10 14 16 10 15 11 14 20 18 12 13 15 8 9 11 9 11
16 16 15 15 15 14 11 8 6 3 3 3 3 3 6 4 1 1 3 5 4 5 6 7 14 12 10 7 15 11 10 16 12 17 9 8 14 21 18 11 13 14 13 11 10
16 16 15 15 14 13 12 6 5 3 4 3 4 4 2 0 3 4 3 1 3 6 6 4 13 8 6 1 4 16 14 16 16 16 17 14 20 20 16 15 15 16 14 14 13
16 16 15 14 14 12 11 7 5 3 3 3 5 5 1 2 3 2 4 4 2 3 3 3 9 4 1 5 7 11 9 21 20 14 16 17 15 22 19 19 16 15 15 15 16
16 16 14 13 13 13 10 5 6 5 4 4 5 6 4 1 2 0 2 4 3 2 2 1 4 5 5 4 6 14 21 23 24 19 19 19 19 12 17 19 17 16 16 16 16
15 15 13 12 12 11 5 4 5 5 9 6 3 6 2 1 3 3 3 5 6 4 1 3 3 9 15 15 10 6 22 18 23 17 20 19 21 14 9 14 17 17 16 17 16
15 14 12 11 12 7 3 4 4 4 7 7 5 5 4 2 4 5 4 6 6 6 6 3 10 14 11 14 10 9 14 20 21 15 18 17 19 17 14 14 16 15 16 14 16
13 12 11 10 6 2 3 2 2 4 5 4 5 4 2 3 7 3 5 2 8 8 4 9 5 11 12 10 7 9 15 19 23 12 12 11 16 17 16 17 14 14 14 16 16
12 10 10 7 2 3 1 1 2 2 3 7 3 2 2 3 4 1 5 7 4 4 5 9 6 11 14 7 9 11 15 14 17 15 10 14 6 17 19 20 19 17 17 15 14
10 8 7 1 5 4 2 1 1 3 3 2 2 3 3 6 4 5 2 5 10 3 2 2 4 12 14 12 12 3 15 7 14 14 11 14 7 14 23 21 20 19 18 16 15
9 5 4 1 0 2 1 2 3 3 1 1 2 2 3 5 4 1 4 4 3 4 5 4 2 2 3 11 13 5 6 11 9 8 7 13 15 11 11 16 18 16 18 16 16
6 3 4 2 3 2 1 3 2 2 3 0 4 3 4 3 4 6 6 5 4 3 2 1 2 4 8 7 4 3 5 5 4 4 6 15 12 3 8 3 11 17 17 17 15
4 8 4 4 2 3 2 2 2 8 3 7 5 3 3 6 3 6 4 5 11 7 3 4 3 4 7 1 3 3 1 2 6 8 11 3 7 7 9 6 7 6 5 13 16
9 4 3 3 1 3 3 2 5 5 13 8 14 2 4 4 1 5 5 4 4 11 3 3 5 7 2 3 6 4 5 7 6 1 8 8 7 7 5 5 5 7 7 8 8
3 5 4 1 1 5 2 5 7 11 10 8 4 6 7 2 4 5 5 5 4 11 1 4 5 8 7 6 2 3 6 3 3 4 5 5 11 6 9 8 7 6 11 11 8
4 3 2 2 2 2 2 4 7 10 8 6 7 6 5 2 5 4 1 1 6 10 7 0 2 3 7 7 8 4 3 7 4 2 4 6 5 9 9 7 5 2 2 5 6
2 1 2 2 1 2 4 6 5 12 10 5 6 4 4 4 4 3 3 3 5 10 5 3 2 4 2 4 6 3 6 8 3 3 2 3 5 6 10 7 7 7 3 2 3
0 3 2 3 3 4 6 4 7 9 7 7 5 4 9 3 3 6 2 5 6 8 1 6 2 4 5 3 2 4 6 7 1 3 1 4 6 7 5 3 6 5 4 3 5
2 2 2 1 1 3 5 5 8 5 4 6 4 2 8 8 6 6 7 3 1 0 8 6 0 3 3 5 9 5 11 11 2 2 2 4 6 7 6 4 5 6 2 2 5
2 2 1 1 2 2 3 5 8 7 5 7 1 9 3 6 5 6 6 5 5 4 4 3 2 2 4 5 5 8 12 12 5 5 3 5 6 5 3 1 3 3 2 3 5
2 3 2 3 2 3 3 5 7 6 3 3 6 9 3 4 3 4 8 2 1 3 3 3 2 1 2 3 1 3 5 10 8 10 12 12 16 10 9 9 10 6 2 2 6
3 2 3 4 3 2 3 5 4 7 2 4 7 7 2 3 10 9 7 10 4 2 3 2 1 2 3 2 3 2 6 8 7 6 10 11 9 8 6 6 3 3 1 3 6

GFSSW_925_spd_096.txt.gz
Wind_Speed
15 14 14 15 16 16 15 16 15 14 17 16 16 15 13 13 10 9 13 3 3 6 10 12 8 11 15 13 15 9 3 11 17 18 17 14 13 8 7 9 5 4 12 14 20
15 15 15 15 15 16 15 16 15 17 16 16 15 13 13 10 9 15 6 2 5 10 11 11 11 11 11 8 7 10 6 10 12 17 12 5 15 11 6 12 7 7 8 24 18
15 15 15 15 15 16 16 16 17 17 17 14 11 11 7 3 9 4 4 3 6 10 13 15 10 12 14 13 11 10 12 13 14 15 12 3 12 13 11 11 11 11 8 11 17
14 16 15 15 15 16 16 16 16 16 13 10 9 6 3 6 3 6 6 7 10 11 7 15 9 9 4 12 13 10 21 15 17 9 5 4 9 18 4 8 14 16 11 8 12
14 15 15 15 14 15 15 15 14 13 9 6 4 2 3 7 1 5 7 6 6 6 4 9 11 10 10 7 14 21 13 19 17 1 3 11 13 14 9 4 6 19 14 10 11
14 15 15 15 14 15 14 13 11 8 6 7 4 2 6 9 3 5 7 5 6 6 0 5 4 4 12 9 9 6 13 11 10 5 4 7 9 9 11 7 4 13 10 11 10
14 15 15 15 14 14 13 11 8 5 5 7 3 5 11 4 3 3 4 5 7 9 7 2 3 2 8 8 9 7 8 5 5 11 2 5 10 8 16 17 15 9 9 8 11
14 15 15 14 14 14 12 12 8 7 6 6 4 8 6 2 2 3 3 3 1 6 6 4 4 3 4 4 1 3 5 6 10 15 12 7 7 14 20 1 4 6 8 8 9
14 14 15 14 13 13 14 12 9 7 5 5 5 7 5 1 3 0 3 6 5 0 5 1 6 3 6 2 1 2 3 8 7 9 10 12 6 14 17 15 10 8 9 10 8
13 14 13 13 13 12 12 9 8 7 5 6 9 5 4 2 3 1 1 3 5 4 1 1 2 3 2 2 6 5 4 7 12 11 8 8 8 8 10 8 9 9 9 8 12
13 13 13 12 11 12 8 6 4 5 8 6 1 9 0 1 2 5 1 5 7 6 3 4 1 5 6 9 8 2 14 13 12 10 11 10 8 14 9 12 10 9 9 8 9
13 12 11 10 11 5 3 4 5 2 6 12 6 4 1 5 4 6 1 4 3 6 6 1 6 11 8 10 14 6 3 17 6 13 15 14 11 14 9 5 7 7 8 9 7
12 11 9 9 6 2 3 4 3 3 3 5 4 4 2 4 5 3 5 5 9 9 2 5 6 7 13 9 9 6 4 7 9 5 4 8 12 13 11 8 7 8 9 8 10
11 9 8 6 3 3 2 2 2 2 1 6 2 2 3 4 4 3 3 5 3 5 3 6 9 7 7 6 5 2 3 12 16 13 3 14 5 5 11 12 10 9 8 6 7
9 8 5 1 5 3 4 1 1 2 1 1 3 3 6 4 2 2 2 4 7 7 3 2 4 6 10 4 9 2 9 8 3 6 6 12 2 5 20 13 14 11 9 9 7
8 5 2 1 2 2 1 1 2 1 4 1 2 3 2 2 5 3 4 3 6 6 2 5 7 4 2 11 8 4 3 4 3 2 3 9 7 5 10 22 11 12 12 10 9
5 4 4 3 1 2 0 3 1 4 1 2 5 3 3 3 4 5 5 4 2 4 2 6 3 3 8 6 5 5 2 3 3 2 2 11 5 6 2 12 14 15 13 13 10
5 8 6 4 0 3 3 1 5 5 2 12 8 3 2 5 3 5 1 2 8 7 3 3 4 2 2 3 2 1 3 1 3 4 5 7 3 5 4 7 4 5 6 11 9
11 7 4 3 3 4 3 3 3 3 9 6 6 1 2 1 2 3 2 4 2 7 3 2 4 3 6 3 1 5 3 5 4 4 5 4 1 5 8 7 3 4 5 4 3
4 7 3 1 3 5 1 3 3 8 9 7 2 5 5 2 2 3 6 5 1 5 1 2 4 7 5 3 6 4 4 2 1 3 3 3 6 4 6 6 6 4 5 4 2
3 2 2 1 2 2 2 2 3 8 10 6 7 5 6 4 3 2 2 2 3 5 1 2 2 3 3 4 6 3 1 5 4 1 1 4 1 4 7 7 6 5 4 5 6
3 1 4 1 1 2 2 2 2 8 7 3 4 3 3 5 3 2 2 1 3 5 1 3 0 3 2 2 3 4 6 3 2 5 3 3 1 8 7 7 6 5 3 4 5
1 3 2 2 2 1 4 3 4 6 5 5 3 1 6 3 3 4 1 5 6 5 1 3 1 3 3 2 3 2 4 3 0 1 2 1 2 6 1 4 5 6 6 4 3
2 2 3 3 1 2 3 1 5 6 2 5 3 4 7 5 7 4 3 5 4 6 6 3 1 2 1 3 6 4 6 8 4 1 4 3 2 4 6 4 7 6 5 7 6
1 2 1 2 2 1 1 2 6 5 3 3 3 8 1 4 3 6 6 5 5 5 4 2 2 1 3 3 4 4 7 12 5 4 2 3 3 4 5 3 4 5 4 6 7
3 3 2 3 3 5 3 5 4 4 3 2 3 5 3 3 2 3 5 3 2 3 4 4 3 0 3 2 3 3 7 7 4 6 6 5 3 4 7 7 6 4 6 4 6
2 1 1 4 3 2 2 3 3 3 3 3 4 5 1 2 5 6 3 5 5 2 2 2 2 1 1 1 2 2 4 6 2 3 2 4 2 5 6 6 2 6 3 4 4

GFSSW_925_spd_099.txt.gz
Wind_Speed
13 13 13 14 14 13 14 14 14 14 16 15 14 14 13 14 13 9 9 9 3 5 6 11 18 15 10 4 4 2 5 8 21 16 10 4 8 1 3 8 5 3 5 12 19
12 13 13 13 14 14 14 15 15 16 15 15 13 11 11 10 8 13 12 8 5 6 7 2 15 8 3 4 4 7 4 17 9 4 1 4 7 11 6 7 5 7 11 18 17
12 13 14 14 13 15 15 15 16 16 15 12 11 9 7 3 4 1 2 4 7 8 8 12 16 2 4 4 4 4 8 3 16 14 3 5 3 4 14 4 10 15 13 13 13
12 13 13 13 14 14 14 14 15 14 13 9 7 4 2 1 2 1 5 7 9 10 13 7 5 2 4 8 5 6 7 9 7 6 5 5 5 3 9 4 12 13 16 11 13
12 13 13 12 13 14 14 15 13 12 9 7 4 3 2 2 3 5 6 7 8 8 5 3 3 2 10 2 6 8 14 8 14 8 6 8 4 3 7 8 7 15 14 12 10
13 12 13 13 13 13 15 13 11 9 6 8 5 2 1 3 1 3 5 8 11 13 9 1 3 6 7 5 4 4 5 7 7 7 4 1 4 4 2 7 5 8 12 11 10
14 13 13 12 13 13 14 12 10 8 6 7 4 3 3 8 2 2 3 2 5 9 5 9 3 4 7 5 7 2 5 3 6 13 3 3 1 7 6 11 11 9 8 10 11
14 14 12 13 12 13 13 14 10 8 7 6 4 2 4 4 5 3 4 3 1 5 4 3 6 4 3 12 2 2 3 3 2 12 10 5 6 7 3 5 11 12 9 10 10
14 13 14 11 12 13 14 13 11 8 7 5 4 2 5 3 2 1 3 5 6 3 5 6 3 3 3 3 2 2 3 4 5 10 7 7 3 13 10 5 15 11 4 10 9
14 13 12 11 10 12 13 9 4 5 5 6 8 3 4 2 2 0 2 2 3 4 3 3 2 0 1 1 10 6 2 4 6 10 6 9 3 3 10 5 12 15 7 8 11
13 13 10 10 9 11 10 3 3 2 4 5 2 3 1 3 4 5 5 2 4 4 0 3 2 3 1 6 8 4 2 8 3 7 9 7 8 10 15 18 16 15 12 7 8
12 12 10 8 8 4 4 2 1 2 3 9 9 3 2 3 4 6 4 1 1 3 4 3 6 6 1 7 2 3 8 9 7 5 5 8 9 19 9 5 23 20 17 8 6
11 10 8 6 5 1 1 3 2 1 1 4 1 2 2 7 5 5 5 2 4 5 3 5 5 8 5 6 4 3 3 10 8 2 4 9 6 3 5 6 3 5 6 7 8
9 8 5 4 2 2 3 2 1 0 2 1 2 2 4 5 4 4 3 1 3 3 2 4 7 7 5 3 4 4 7 7 7 2 5 2 3 8 8 10 6 7 7 6 6
8 6 4 2 1 3 1 1 1 1 5 5 2 1 4 1 6 1 3 3 3 5 2 3 5 5 3 6 6 2 3 1 5 2 5 3 1 5 7 15 11 12 9 8 7
6 4 5 3 3 1 1 2 1 5 2 3 3 4 2 0 3 1 2 2 4 4 3 3 4 3 2 6 6 1 1 11 6 3 2 6 4 4 12 24 5 4 9 9 8
3 6 4 2 3 1 1 2 4 6 4 5 2 3 3 1 2 2 3 1 1 4 3 3 3 6 7 5 4 5 2 3 3 2 3 12 8 7 7 11 14 15 11 10 8
7 11 5 3 2 0 1 3 8 1 3 4 3 3 0 2 2 3 2 3 4 4 3 1 4 4 2 3 4 4 3 2 4 3 2 6 5 5 7 3 13 9 9 11 10
16 9 3 1 1 1 3 5 5 3 3 5 6 3 2 1 2 1 2 2 4 8 1 2 4 4 5 3 3 4 1 1 1 1 4 3 4 6 3 5 7 8 7 8 9
10 8 2 1 0 1 4 4 2 2 4 3 1 3 4 3 0 0 1 3 3 3 3 3 4 5 5 3 7 1 1 2 2 3 2 2 1 3 3 6 6 6 7 7 5
4 3 3 1 1 4 3 2 2 4 5 4 4 3 4 3 1 1 2 4 4 1 3 3 2 2 2 2 5 1 3 2 2 3 3 3 4 5 3 5 4 4 2 4 4
3 2 4 3 3 1 2 2 1 4 5 1 3 2 1 2 3 2 0 2 9 2 3 2 2 1 2 5 4 3 3 2 3 3 0 3 3 4 5 7 6 5 5 5 5
4 3 3 1 3 1 2 1 3 2 3 4 2 3 2 1 1 3 3 6 7 4 2 2 2 2 2 2 2 3 3 2 2 1 1 2 3 4 6 6 5 4 4 4 4
3 2 2 2 2 5 4 1 4 1 1 3 2 4 3 4 6 3 4 4 7 4 7 5 1 2 4 4 4 4 5 5 4 3 1 2 1 2 3 3 2 4 4 4 4
2 3 4 2 2 5 4 3 3 1 2 2 2 4 3 3 3 3 3 4 4 7 5 1 0 1 5 4 3 4 5 7 4 3 3 2 5 1 1 3 1 3 5 5 4
4 4 3 3 4 5 3 1 3 1 0 2 3 3 4 3 2 2 1 2 2 3 3 2 2 2 3 2 3 2 6 6 3 2 2 5 2 3 3 5 6 4 4 5 5
4 2 5 3 3 4 3 4 4 3 1 3 2 3 2 2 2 3 3 3 3 3 2 1 2 2 3 3 4 3 1 5 3 1 2 3 3 3 4 4 4 4 4 2 7

GFSSW_925_spd_102.txt.gz
Wind_Speed
12 11 11 11 11 13 12 12 13 14 15 15 15 13 12 11 11 8 5 7 4 6 4 12 14 13 20 4 5 3 6 19 25 16 12 7 12 8 4 7 2 1 6 10 29
11 11 12 12 12 11 13 12 13 13 15 14 13 12 10 9 7 6 9 9 10 7 7 5 4 11 5 5 5 8 10 16 15 2 4 6 9 7 6 5 2 5 9 23 29
12 11 12 13 12 12 12 13 12 13 13 11 11 9 7 3 3 2 3 5 8 10 10 9 7 7 12 5 3 4 11 10 11 17 10 6 7 7 7 4 4 13 20 14 23
12 12 12 13 13 12 12 13 10 11 11 10 7 6 4 3 3 2 4 6 8 9 10 9 6 8 5 8 4 10 4 13 7 5 6 1 7 6 1 4 4 16 21 13 17
12 13 12 13 13 12 12 12 10 9 8 8 6 5 1 2 5 3 2 5 4 5 7 3 4 7 5 6 8 5 5 6 6 9 2 5 4 3 5 9 7 2 13 16 16
12 13 14 14 13 13 12 12 9 7 6 7 7 3 1 3 2 1 1 4 6 7 6 3 4 3 2 6 7 3 2 7 5 11 2 3 1 2 5 7 11 7 7 10 14
13 13 14 13 13 13 13 9 9 8 7 7 6 4 2 7 2 2 3 4 1 4 3 5 4 3 3 2 6 4 1 5 7 14 6 3 7 5 4 7 8 9 7 4 4
13 13 13 13 12 13 13 12 10 8 6 6 4 2 4 5 6 4 5 10 4 2 2 3 5 3 1 4 6 5 2 4 4 15 9 5 4 3 2 6 7 9 8 9 4
12 13 14 13 11 12 14 12 9 7 6 5 3 2 6 4 1 2 3 1 6 2 3 3 3 2 1 2 2 3 5 4 5 13 9 9 2 5 5 8 3 8 8 8 9
11 12 13 11 10 11 13 10 3 2 1 3 5 3 5 1 2 3 2 3 2 4 1 4 3 1 2 2 1 5 2 4 4 11 10 18 8 5 8 8 4 6 8 10 9
11 11 13 9 8 11 7 1 3 2 0 4 2 3 2 5 4 3 4 2 2 3 3 3 3 3 2 5 0 6 3 2 2 5 8 13 10 6 3 5 4 9 9 11 11
10 10 10 7 7 5 4 2 2 2 2 4 7 5 5 2 3 4 5 1 1 2 1 5 3 6 5 8 3 4 7 2 6 3 3 9 5 9 11 4 3 6 12 15 12
10 9 7 5 6 3 2 3 2 3 3 2 2 0 2 4 3 4 3 1 3 3 3 5 4 9 4 5 3 3 5 6 3 6 5 5 3 3 5 7 10 10 15 19 12
8 8 5 4 3 2 3 1 4 2 4 3 2 1 3 2 2 6 1 2 2 2 3 3 5 6 5 3 4 2 5 3 16 2 2 4 3 4 2 13 12 14 20 21 15
7 6 5 6 1 2 3 4 4 2 5 5 1 1 3 3 5 1 1 1 4 3 2 5 4 3 2 3 6 1 1 8 8 4 4 1 4 3 18 15 18 20 21 16 9
7 6 8 6 3 3 5 5 3 5 2 4 2 2 3 3 3 4 2 1 3 3 2 3 3 4 2 8 3 2 3 12 8 3 3 3 2 2 11 23 23 11 9 11 8
8 10 10 5 3 7 7 3 4 5 3 5 2 2 1 2 2 2 2 4 2 4 2 2 3 2 3 5 5 3 2 4 4 4 3 8 4 7 6 13 19 14 8 8 7
10 15 7 6 7 7 5 4 7 3 3 3 2 1 2 2 0 4 3 4 3 2 3 3 5 1 2 2 3 3 2 2 3 4 2 7 4 5 4 6 9 12 9 8 9
19 12 5 7 6 7 4 5 6 5 2 2 4 5 3 2 2 3 1 2 5 5 2 3 5 4 10 5 3 2 2 2 2 3 4 3 5 8 5 5 5 11 8 9 9
16 9 4 6 6 5 4 4 3 2 1 1 2 3 2 3 2 2 2 3 3 8 4 5 4 5 3 3 3 3 2 1 3 4 3 3 3 2 2 2 3 5 8 8 8
10 3 5 5 5 4 4 4 2 1 2 2 2 1 2 2 2 1 1 4 5 2 5 4 1 1 1 1 3 2 2 1 2 3 4 4 4 4 8 3 4 3 1 3 4
8 3 4 5 3 1 2 5 3 1 4 3 3 1 2 3 2 1 1 2 7 3 3 1 1 2 4 3 2 3 3 2 3 2 2 3 2 3 6 4 6 5 5 5 4
5 3 1 1 3 1 2 3 3 2 2 2 2 2 1 1 1 2 2 5 7 3 2 1 2 3 3 2 2 4 3 1 4 3 2 4 3 3 5 6 6 6 4 4 6
3 3 2 2 1 7 5 3 2 1 2 3 3 3 1 3 3 3 2 2 6 3 5 1 2 3 4 4 3 2 3 2 4 3 1 2 3 4 5 6 6 4 4 4 4
2 3 4 3 2 5 3 5 4 4 1 2 3 3 2 2 2 3 3 5 3 7 3 2 1 0 3 4 2 2 2 5 2 4 4 0 1 3 3 1 3 3 2 3 3
4 4 3 2 5 6 3 4 5 3 2 2 5 1 3 2 1 1 1 2 1 6 5 4 3 4 2 3 5 1 3 6 0 3 9 3 5 3 3 4 5 1 1 3 3
3 3 4 2 4 5 5 6 6 7 3 4 5 2 4 4 1 2 3 4 2 2 3 3 3 3 3 4 2 4 1 5 4 3 5 5 5 2 2 4 4 4 3 3 6

GFSSW_925_spd_105.txt.gz
Wind_Speed
14 11 10 12 14 12 11 13 10 12 12 14 14 13 13 11 11 10 7 10 4 8 3 5 7 7 3 4 5 2 8 11 19 21 6 9 13 12 8 7 3 6 5 9 33
13 12 10 12 13 13 12 11 12 12 13 13 13 11 9 9 8 9 8 9 11 7 5 4 3 3 2 3 4 8 7 17 6 17 9 15 12 19 5 6 3 4 8 31 33
11 12 12 12 12 13 13 13 13 10 11 11 10 8 6 4 2 4 1 4 9 8 7 5 5 3 2 3 3 6 17 10 13 11 9 4 17 7 7 15 5 8 17 22 24
11 12 12 12 13 13 13 12 12 10 9 9 9 6 4 1 2 1 3 6 6 6 6 4 2 3 4 5 4 9 16 17 12 9 12 11 11 8 7 2 5 8 22 21 18
11 13 12 12 13 13 12 13 11 9 8 6 8 5 1 1 5 1 3 5 3 4 2 2 3 5 7 5 2 15 14 13 16 14 2 9 18 12 5 3 5 5 18 24 22
13 12 14 12 13 13 12 12 10 9 7 6 8 4 1 3 1 2 2 3 4 4 3 2 3 6 6 5 7 5 12 14 18 8 8 15 14 4 2 6 10 2 11 18 21
11 12 13 12 13 12 12 12 10 8 6 6 6 4 2 7 2 4 5 4 4 4 3 4 5 4 1 3 4 6 8 7 16 10 6 2 15 6 1 10 11 10 8 3 8
12 12 12 13 14 12 11 12 10 8 6 4 3 2 5 4 6 7 5 8 5 5 3 4 4 1 1 2 3 7 6 7 12 14 6 13 5 13 6 8 8 7 7 5 4
12 10 11 12 13 10 11 11 9 6 4 3 2 1 6 5 3 2 3 3 5 3 2 2 2 1 2 1 3 9 5 6 7 17 9 9 2 15 6 3 5 5 7 7 6
10 10 10 11 10 8 11 10 1 1 1 3 3 2 4 2 1 2 3 3 1 2 1 4 3 1 2 3 3 3 6 4 5 10 9 13 10 5 13 2 5 5 6 7 6
10 7 9 9 7 8 6 1 2 2 1 4 3 2 2 7 5 3 3 1 1 4 2 3 3 4 7 7 1 5 4 5 2 7 9 12 6 9 7 13 8 7 6 7 7
11 6 7 7 5 5 3 1 1 1 1 6 5 4 6 2 3 5 3 1 1 2 2 4 3 5 5 5 5 1 6 4 2 5 2 10 6 11 9 3 9 8 7 5 7
10 6 5 4 5 2 2 2 1 1 2 3 2 0 1 3 2 3 1 1 3 3 2 4 5 9 7 5 4 1 5 2 4 6 6 6 4 5 5 4 3 7 7 4 5
10 6 5 5 2 5 1 2 3 2 4 3 1 1 2 1 1 5 3 1 2 3 4 4 4 7 5 4 3 2 5 3 8 5 3 3 2 0 5 5 6 6 7 5 7
9 8 7 9 4 4 5 5 4 2 3 2 0 0 2 4 4 1 3 2 3 4 3 5 4 5 3 1 3 0 4 4 6 3 2 2 4 1 9 9 12 11 5 6 10
11 9 11 8 5 6 8 7 3 5 4 3 1 1 2 2 1 4 1 1 2 4 3 4 0 3 3 6 3 3 4 9 6 3 2 4 3 5 11 18 12 13 11 11 11
13 12 13 10 4 10 10 3 4 4 3 3 1 1 3 4 3 3 3 5 0 4 2 2 2 4 3 2 4 3 9 4 2 2 2 2 2 6 9 5 11 16 17 17 17
14 15 11 6 12 13 6 5 4 4 4 1 2 1 3 3 3 4 4 3 3 2 3 2 4 5 3 3 2 3 3 4 4 3 3 2 3 4 1 6 7 10 14 15 15
20 15 10 12 12 11 4 4 6 5 3 2 3 5 2 2 2 4 1 2 3 3 4 4 4 2 7 4 1 2 2 3 5 3 4 1 6 7 5 6 2 8 8 9 5
21 10 6 12 11 8 4 4 3 4 1 3 3 1 2 1 1 3 2 2 5 4 3 5 3 6 3 2 4 3 0 2 3 3 4 2 4 3 8 10 5 6 7 7 6
12 4 7 10 10 4 3 5 3 1 1 2 3 1 3 1 3 2 5 3 5 4 2 3 3 4 1 3 1 2 2 2 2 3 4 3 2 3 6 6 5 6 5 3 5
7 3 9 12 3 0 3 5 3 2 2 2 3 3 2 1 2 2 2 2 7 2 2 1 3 2 3 3 2 1 2 1 3 2 3 3 3 5 5 5 4 5 6 5 5
3 3 4 4 3 1 2 3 3 2 1 1 2 2 1 0 2 3 3 4 6 4 3 3 2 1 5 3 2 2 2 1 4 3 3 4 3 4 5 7 6 6 6 5 4
4 4 1 1 1 6 5 4 3 2 2 2 2 3 2 2 1 3 2 2 6 5 1 5 3 4 4 2 1 1 2 2 3 3 5 2 2 4 5 5 4 5 5 4 4
2 3 4 4 3 5 4 5 5 4 1 1 2 3 4 3 3 2 1 3 3 6 4 2 3 2 4 4 2 2 1 3 3 3 4 6 3 2 4 5 5 3 3 5 5
4 4 2 3 4 6 3 5 5 3 4 2 4 4 3 2 3 2 1 3 1 4 1 3 2 2 3 4 4 2 2 3 3 3 5 5 1 2 2 3 7 7 6 5 4
3 2 4 1 3 5 5 6 7 7 3 4 7 4 4 4 2 1 1 2 3 1 4 2 2 3 3 5 2 6 5 2 1 1 5 2 4 2 3 4 4 5 6 6 6

GFSSW_925_spd_108.txt.gz
Wind_Speed
13 14 11 12 13 14 14 13 12 11 11 13 13 13 13 11 11 11 6 7 4 8 8 4 3 3 2 3 3 0 5 12 16 14 15 10 4 14 11 12 5 5 3 7 30
14 12 11 11 12 12 13 12 14 12 10 11 12 10 10 9 9 8 7 8 9 9 4 1 2 2 2 2 3 6 7 18 10 12 13 12 13 11 9 13 9 3 3 24 36
16 13 12 11 12 12 12 13 12 13 10 10 10 7 6 5 2 4 1 3 6 7 4 3 3 2 2 3 4 5 15 17 16 11 3 11 12 8 10 10 14 6 12 17 24
15 13 12 11 11 11 11 11 12 11 9 8 8 6 5 2 2 2 3 6 5 6 4 3 3 2 3 6 6 7 9 15 17 4 5 11 7 8 10 15 18 7 15 18 22
14 14 12 11 11 12 10 11 11 8 9 5 8 5 2 1 6 2 2 6 4 3 1 3 4 4 7 4 5 11 7 8 12 17 16 9 11 3 13 25 19 9 12 21 21
15 13 12 11 10 11 10 10 10 8 8 5 6 4 1 2 2 3 3 4 4 3 2 1 3 4 5 7 9 4 9 9 12 15 12 16 5 0 4 20 20 14 16 19 23
15 12 14 12 10 10 10 8 9 8 7 4 3 3 0 8 3 4 6 5 5 4 2 3 3 2 1 5 9 5 8 10 12 16 9 12 13 11 8 16 19 8 5 9 21
16 14 13 13 9 10 9 8 9 8 5 2 1 1 4 3 7 8 6 8 8 7 4 4 3 2 2 2 2 4 5 5 10 18 12 9 11 8 4 10 13 2 5 5 4
17 15 11 13 10 7 7 7 8 5 3 2 0 2 6 6 4 4 6 4 6 5 2 2 2 2 1 3 3 5 6 10 6 19 12 17 6 5 2 16 5 4 2 6 7
16 15 13 13 10 6 5 6 2 2 4 3 1 1 4 2 3 4 6 4 1 2 3 5 4 1 2 3 3 3 3 6 7 12 17 15 10 6 3 13 16 4 4 4 7
16 15 12 11 8 5 2 5 2 2 1 4 3 2 2 8 7 4 4 1 1 4 3 3 3 4 9 8 11 5 7 12 5 5 13 13 8 9 8 11 16 11 6 3 3
14 13 13 8 8 5 3 3 2 3 1 4 4 4 5 4 3 3 1 1 1 2 1 4 4 7 7 5 11 8 9 5 2 5 12 11 6 7 5 6 9 9 11 5 1
13 13 13 8 8 5 5 5 2 3 4 2 3 1 3 3 2 3 3 1 3 1 2 4 5 7 10 5 10 9 5 1 3 6 3 10 5 8 6 6 4 6 11 5 3
12 12 10 8 5 7 4 5 4 4 4 2 1 1 2 2 2 4 2 2 1 1 3 5 4 7 7 6 4 4 7 2 8 2 1 3 2 4 8 7 6 10 10 5 5
13 10 11 11 8 5 6 7 6 3 3 2 1 0 2 2 3 2 4 2 3 2 2 6 4 7 9 4 1 4 6 5 5 4 2 2 3 2 2 3 2 9 6 7 6
12 10 12 11 5 9 11 10 3 5 5 0 3 2 1 2 1 4 2 1 0 2 4 6 2 3 4 3 3 6 3 3 4 1 3 4 1 2 4 3 5 4 6 6 7
11 11 16 9 6 15 14 4 4 4 3 2 2 2 3 4 4 5 4 6 2 4 3 2 2 3 6 2 2 1 1 2 4 4 2 5 4 0 11 8 6 4 5 10 10
14 11 11 7 16 18 6 5 3 4 4 2 3 4 3 4 2 4 5 4 2 2 2 2 3 6 2 1 3 3 1 3 3 2 1 2 3 2 2 6 8 8 9 12 12
17 16 7 13 16 14 5 3 6 5 4 5 3 5 2 1 1 5 1 3 3 4 4 5 4 3 4 2 3 2 3 1 4 2 3 3 4 3 8 8 2 8 10 9 11
22 10 5 14 13 8 4 4 2 4 3 3 4 1 2 1 0 3 3 4 5 3 2 2 2 3 3 2 5 5 1 3 3 3 4 4 4 5 12 11 8 4 7 7 4
16 4 10 14 12 3 3 5 3 2 3 2 3 3 2 2 2 2 4 4 5 6 2 1 3 5 2 5 4 3 3 2 3 2 3 4 0 3 7 6 5 7 5 2 3
8 3 14 17 2 0 3 5 3 3 2 2 3 3 3 2 3 2 1 3 5 3 3 2 3 2 2 1 2 1 2 2 3 2 3 3 4 7 7 7 7 7 5 4 2
4 3 7 3 3 2 2 2 2 3 2 3 2 1 2 2 1 2 3 4 6 4 3 4 3 3 7 4 2 5 4 3 3 2 3 4 2 5 7 7 7 7 6 6 7
4 5 2 2 0 4 5 4 3 2 2 4 3 2 2 1 4 2 2 1 4 5 6 4 3 3 3 3 2 3 4 4 3 3 3 2 2 5 6 7 7 6 5 6 6
1 3 4 5 4 4 3 5 5 4 1 2 2 3 5 3 2 2 1 2 4 7 4 3 4 4 2 4 2 3 3 4 4 2 3 4 3 2 3 4 5 6 7 8 8
5 4 2 2 5 7 4 5 5 3 4 2 3 4 3 4 5 5 3 3 1 5 4 4 2 3 4 6 3 4 6 2 4 3 5 3 4 2 4 5 8 8 8 8 8
3 3 4 1 3 5 5 7 7 7 3 2 6 4 3 3 4 3 3 2 0 2 4 2 1 2 2 4 0 5 5 3 2 3 4 3 1 3 5 6 6 7 7 6 7

GFSSW_925_spd_111.txt.gz
Wind_Speed
11 11 13 14 13 12 11 10 10 10 9 9 11 12 11 9 11 10 5 4 2 3 5 3 1 1 1 1 3 1 7 12 21 14 16 6 16 15 9 13 13 9 7 9 24
13 10 11 13 12 12 12 12 11 9 9 7 9 9 8 8 7 6 3 5 5 5 5 4 1 2 1 2 2 6 6 18 18 15 15 16 13 13 14 15 13 14 11 16 25
12 12 12 11 12 12 10 11 10 10 7 8 9 6 6 5 2 3 1 2 3 1 3 3 5 2 0 1 3 4 15 19 17 17 8 11 13 13 13 15 15 8 17 12 21
15 13 11 11 12 12 11 11 9 10 4 10 4 5 4 1 1 1 1 4 3 2 5 6 3 4 4 5 5 7 11 15 19 14 13 13 10 8 17 20 20 16 12 18 18
16 13 11 10 11 11 11 11 9 8 5 8 3 4 0 2 5 3 1 4 2 1 4 4 4 4 6 5 4 14 16 13 12 11 16 15 14 15 16 17 21 17 18 19 20
17 13 12 11 10 10 11 11 9 7 4 5 2 2 2 1 2 4 3 2 1 3 1 3 4 4 4 6 11 4 11 15 12 14 10 16 19 9 7 12 10 12 15 20 20
16 12 11 11 12 10 10 11 9 7 6 3 3 1 1 7 2 4 6 5 3 3 1 3 3 3 2 5 1 5 7 12 15 13 11 14 15 22 15 8 7 11 15 22 22
17 11 10 10 11 9 10 11 9 8 3 3 3 2 4 3 5 8 6 4 6 7 6 5 4 3 3 2 3 5 5 5 4 15 9 13 16 13 13 9 14 7 21 21 25
21 13 11 9 11 9 8 10 8 5 3 5 2 2 5 3 4 3 4 2 3 4 4 3 1 3 1 4 5 6 5 9 11 15 8 15 7 6 6 10 9 4 15 19 17
23 14 11 7 9 8 7 8 2 5 6 3 2 2 4 1 3 3 2 2 1 1 1 2 2 0 2 3 4 4 4 5 10 4 15 16 11 5 4 8 8 4 15 18 16
21 14 6 7 8 7 4 4 1 1 3 4 3 2 2 6 5 1 1 2 1 3 2 2 1 6 9 9 13 11 15 14 14 12 16 18 17 11 9 4 5 9 13 14 18
22 14 7 3 5 7 4 3 4 2 2 4 2 3 4 2 2 3 1 1 0 3 1 2 7 8 6 9 10 12 16 16 15 6 13 16 14 4 11 4 4 9 13 10 19
18 14 5 4 4 6 7 6 3 3 4 2 3 1 0 3 1 3 1 1 3 3 3 4 6 8 7 11 10 14 10 11 7 11 8 11 5 10 8 11 9 13 9 13 20
11 8 8 6 1 5 4 8 5 3 4 2 0 2 2 2 1 2 1 3 2 3 2 5 5 5 10 11 10 6 8 12 11 4 3 2 4 5 11 6 2 7 9 14 17
14 8 7 8 3 2 1 7 7 1 3 1 1 1 1 2 2 1 2 1 4 3 1 6 4 7 10 5 2 3 6 2 2 4 2 3 4 1 8 5 9 12 11 15 13
14 9 14 12 4 4 7 8 2 5 4 1 2 2 1 3 1 3 1 2 2 3 3 7 3 4 4 10 2 7 4 1 2 2 3 2 2 3 2 6 12 8 7 10 4
22 14 13 14 5 11 10 1 4 4 4 2 2 2 1 3 3 3 3 3 1 3 3 3 3 3 6 5 1 2 3 2 2 3 3 4 6 3 4 8 5 10 6 7 5
16 16 14 8 5 15 5 4 2 3 4 2 4 3 2 2 3 4 4 5 1 2 1 1 3 5 3 1 2 3 1 1 2 2 2 2 4 3 6 10 7 3 2 8 4
21 15 11 10 17 13 3 2 5 5 5 6 4 4 1 2 0 5 1 2 3 4 3 5 4 3 2 3 2 0 3 3 2 2 3 3 5 5 12 9 8 5 7 9 6
19 8 7 20 16 4 3 4 2 3 4 3 4 3 3 2 1 4 1 2 4 3 3 3 4 1 1 1 1 4 1 2 3 3 5 3 4 6 14 13 12 7 8 7 8
16 3 12 18 11 3 3 5 4 2 3 3 3 3 3 3 1 1 3 3 1 4 2 2 2 6 3 6 6 4 3 3 3 2 3 3 3 5 7 8 8 7 8 3 9
5 4 18 20 3 1 2 4 4 3 1 2 3 3 4 4 2 1 1 3 5 2 1 1 3 1 2 5 2 2 1 1 2 1 2 3 4 6 7 6 7 8 7 7 8
3 3 9 5 3 2 3 2 2 3 3 3 2 2 0 3 3 2 4 4 5 3 2 4 3 3 7 4 2 5 4 2 2 1 6 4 2 5 5 7 8 9 8 8 7
3 4 2 1 2 3 5 4 4 2 2 3 3 1 2 2 4 3 2 2 3 3 4 1 3 2 2 2 2 5 7 5 4 4 1 3 4 6 8 8 10 9 8 6 5
2 3 4 6 6 4 3 4 5 4 2 2 1 2 4 3 1 1 1 3 3 6 2 3 3 2 3 1 2 4 5 9 7 0 4 3 5 3 5 6 6 5 8 10 11
5 4 2 2 7 8 5 5 6 3 4 3 3 4 3 4 5 6 2 1 4 5 3 3 1 2 3 4 6 7 8 8 6 5 6 5 6 3 4 4 9 9 9 9 10
3 2 4 2 5 6 5 7 7 7 2 1 6 5 2 3 3 3 2 2 1 3 4 3 2 3 2 2 1 6 5 4 3 4 1 4 1 4 7 7 7 8 7 7 7

GFSSW_925_spd_114.txt.gz
Wind_Speed
14 14 12 10 10 8 11 9 9 9 9 7 8 9 8 8 8 8 7 3 3 4 6 2 2 3 3 4 8 8 10 14 21 24 24 15 20 21 22 21 22 15 14 16 21
15 14 13 10 11 9 10 11 10 9 9 5 6 9 7 8 4 7 4 4 5 5 5 6 3 3 3 4 5 11 13 22 21 20 20 21 12 17 19 25 26 21 20 13 21
16 15 13 11 9 10 8 8 10 8 8 6 10 6 5 5 3 3 3 0 1 4 4 6 6 5 8 7 9 9 19 19 21 17 17 21 21 19 19 20 23 24 22 14 12
20 15 12 11 8 7 8 10 10 7 7 5 6 3 4 2 3 4 3 3 3 4 6 5 5 5 7 10 11 14 20 18 21 19 19 22 21 23 22 21 20 21 23 19 12
26 15 12 11 8 8 7 9 10 8 5 5 5 4 1 3 3 5 3 2 4 4 3 4 6 6 11 7 10 18 19 19 19 19 20 20 25 25 24 21 20 21 18 21 15
23 18 14 9 10 7 6 8 10 8 6 4 3 3 2 4 3 4 4 1 3 3 3 4 4 6 11 14 14 13 12 17 17 19 19 22 23 22 28 17 16 17 19 26 20
22 18 13 9 9 8 5 7 9 7 5 5 4 2 3 5 2 4 4 2 3 3 4 4 4 7 3 10 13 14 17 18 20 18 21 15 25 28 28 25 19 17 18 28 24
25 16 12 10 8 5 7 5 8 6 6 3 5 2 3 3 3 4 3 3 3 6 7 4 5 8 8 7 11 13 12 15 15 12 20 18 25 25 23 23 23 19 18 20 27
23 24 15 11 8 2 6 4 6 4 3 6 2 2 2 2 3 1 4 3 2 2 3 3 4 8 6 7 7 7 13 17 16 14 14 21 17 19 11 18 23 19 18 12 16
23 28 20 14 9 7 5 2 2 7 5 3 1 3 3 2 1 0 2 4 3 2 4 4 4 8 6 5 10 11 10 15 15 7 10 16 19 7 11 13 14 17 12 10 8
23 20 20 12 10 9 11 9 4 2 4 3 1 1 1 3 1 2 2 5 4 4 5 2 6 11 13 13 16 14 17 22 22 20 13 15 18 15 9 9 11 13 8 7 10
26 14 19 13 12 13 12 5 2 1 2 5 2 2 3 1 1 3 4 5 5 6 3 5 13 16 8 12 16 19 20 23 23 23 17 15 19 17 13 12 12 13 12 11 12
4 22 13 11 15 12 9 6 3 3 1 3 3 2 1 2 1 3 4 2 5 9 8 11 11 9 14 14 17 19 19 21 21 8 14 12 12 14 8 9 11 12 10 11 11
5 12 13 14 7 9 5 8 5 4 1 5 4 2 1 0 4 4 1 2 3 5 7 10 5 8 13 17 14 19 7 14 16 10 5 16 6 11 10 10 14 13 12 8 10
15 11 11 13 11 3 7 11 10 2 2 4 3 1 1 2 1 3 1 2 7 7 3 4 9 9 14 11 4 6 6 11 13 9 5 12 3 4 12 9 10 7 6 3 8
15 15 16 10 7 8 14 13 6 2 2 4 2 2 3 2 2 2 1 2 4 7 9 18 8 6 4 12 13 11 7 5 4 2 5 3 2 3 1 2 3 4 3 3 7
11 15 14 8 5 16 16 5 3 2 2 4 4 3 2 2 2 2 2 2 2 3 2 5 5 4 4 7 5 3 6 2 2 3 5 5 9 7 8 2 3 3 11 10 11
13 20 11 5 14 19 8 2 2 3 4 2 3 4 2 1 1 1 1 2 2 2 3 5 1 5 1 1 4 3 5 4 4 4 3 5 5 4 10 9 3 4 8 10 11
15 15 11 11 19 17 2 2 0 3 5 8 4 3 3 2 0 1 1 4 2 3 3 5 2 0 3 3 3 3 3 4 2 1 2 4 4 6 17 16 11 9 5 6 7
9 9 4 18 15 7 2 3 2 2 4 5 4 4 4 4 3 1 3 3 4 2 3 3 5 1 1 3 2 2 3 0 1 3 4 4 6 9 19 16 14 10 3 8 7
4 3 11 17 12 1 1 2 2 3 3 5 4 4 3 3 3 2 2 3 3 5 2 4 3 6 1 6 5 4 2 2 1 3 3 3 5 10 10 11 14 8 7 9 12
6 3 16 18 3 1 2 3 3 5 2 2 1 3 4 4 3 2 2 3 3 5 5 3 3 3 3 4 5 4 7 4 3 4 5 6 5 10 11 15 12 11 8 8 10
3 3 9 2 3 3 2 3 2 4 4 4 2 1 2 3 2 2 4 5 5 3 4 3 3 2 3 1 1 5 13 5 2 2 5 3 5 7 12 16 15 15 11 7 10
3 4 2 2 1 3 5 5 5 1 3 2 2 2 3 3 2 3 1 2 4 4 4 3 4 6 5 4 4 6 17 10 1 7 13 10 12 13 14 15 15 14 13 13 13
2 3 4 6 6 5 3 7 7 6 2 3 3 2 3 3 3 2 1 3 2 6 4 3 4 5 6 3 3 9 13 16 8 5 9 10 14 11 11 12 12 12 13 14 13
4 4 2 2 8 14 6 7 11 4 6 5 2 7 3 2 0 4 2 1 2 4 2 3 2 2 6 9 10 14 16 12 13 13 14 14 13 7 7 8 12 13 12 12 12
3 2 2 6 9 11 6 8 11 8 1 2 6 7 3 2 2 4 4 2 2 4 5 3 1 1 2 4 5 7 12 10 9 10 6 10 6 6 9 11 12 11 11 11 11

GFSSW_925_spd_117.txt.gz
Wind_Speed
17 14 12 11 9 10 10 10 10 9 7 8 7 7 9 8 11 9 10 4 5 8 6 4 6 6 6 8 10 9 11 16 22 23 22 19 22 19 21 21 29 24 21 19 7
19 17 14 13 10 9 11 10 10 9 7 6 5 7 8 8 9 10 5 7 7 7 10 10 6 4 7 9 6 12 13 22 20 19 19 20 21 23 22 19 26 26 17 25 14
19 24 17 14 11 9 11 10 8 7 6 5 5 8 7 6 8 2 6 5 8 7 5 7 6 8 11 11 13 13 18 20 20 19 19 18 20 20 22 22 23 23 26 25 28
20 19 18 15 13 9 10 9 9 7 6 3 5 5 5 4 3 7 4 4 5 4 5 8 9 11 11 15 15 19 22 21 21 20 19 20 20 24 24 25 22 25 23 23 23
23 23 23 17 13 11 8 9 8 7 6 3 2 4 2 5 7 8 5 2 3 4 8 9 10 10 15 12 14 18 20 22 22 21 20 20 23 26 26 26 24 24 25 22 15
24 27 19 21 14 9 7 6 7 7 5 4 1 3 5 6 2 6 4 2 3 5 6 7 7 7 12 16 17 16 19 21 21 19 20 21 24 24 25 27 28 25 25 24 21
23 21 10 21 14 8 8 5 6 4 3 4 5 3 5 6 3 4 4 4 5 7 7 6 6 7 7 12 12 14 20 21 21 19 24 23 28 28 33 25 27 28 24 25 21
22 21 16 15 15 13 10 8 7 4 3 3 5 3 5 3 5 5 5 7 7 8 9 8 6 10 14 11 16 17 16 19 22 20 23 21 20 27 25 24 27 29 26 21 22
22 20 15 19 15 13 10 10 8 5 4 5 4 1 3 3 6 4 6 8 5 6 7 7 7 12 13 12 11 14 15 21 22 21 19 16 17 23 23 20 26 25 27 22 18
22 23 17 20 16 12 10 9 10 12 9 4 1 3 4 3 3 3 6 8 8 6 7 8 7 11 11 8 12 14 14 19 20 20 12 20 19 23 21 20 21 24 22 19 19
24 29 23 22 18 15 17 13 7 3 6 5 4 1 3 2 3 6 6 8 9 8 10 8 7 11 18 16 19 16 19 23 23 22 22 22 19 20 22 14 17 17 15 17 14
28 23 10 19 16 16 14 5 1 4 5 11 3 4 2 1 4 5 4 6 8 10 8 7 14 17 14 16 15 18 21 26 25 22 19 22 25 15 17 16 15 14 14 16 14
24 2 20 12 13 13 13 7 4 5 3 6 6 4 2 4 4 4 5 4 10 12 12 14 15 9 13 14 17 19 20 25 24 24 21 23 24 19 18 20 14 11 12 15 16
15 2 12 15 11 7 10 9 7 6 2 7 6 4 4 1 4 3 3 6 4 8 9 12 10 9 11 16 14 20 20 25 24 17 13 13 5 16 16 12 13 15 12 14 16
15 15 13 18 9 8 4 10 8 3 2 8 5 3 2 4 2 6 3 5 10 11 5 6 7 11 15 18 8 11 13 11 13 10 8 12 6 2 14 9 10 9 12 11 12
16 16 16 10 3 4 11 11 4 2 3 5 4 4 4 4 3 2 4 5 7 8 11 18 18 13 12 14 14 15 10 14 7 4 5 8 10 3 1 9 8 5 5 0 3
14 4 18 9 3 13 15 6 2 3 4 6 4 5 3 3 3 3 3 4 2 5 1 8 8 6 2 8 6 6 11 3 5 6 1 0 6 5 7 5 5 9 9 7 3
17 12 9 4 12 17 12 3 5 3 3 3 4 7 2 4 4 3 2 2 4 1 5 5 2 4 2 3 5 8 6 4 5 3 4 9 5 6 9 3 14 10 7 7 12
6 16 11 8 15 10 4 4 3 3 6 8 7 3 4 5 4 3 3 4 2 0 4 5 3 3 3 3 2 7 5 9 6 2 2 3 1 5 16 15 15 11 8 13 14
5 5 4 13 11 9 3 3 2 3 7 10 3 6 6 6 4 1 1 3 3 2 2 4 5 2 2 4 8 4 9 3 1 6 4 5 6 7 14 15 13 14 13 14 15
3 2 6 15 8 5 3 0 2 4 4 5 2 3 2 4 2 1 2 1 4 6 5 4 4 7 4 4 4 4 3 5 4 3 4 3 5 9 13 11 12 12 12 14 14
4 2 12 14 3 3 4 1 1 8 3 2 1 1 4 5 3 1 2 2 5 4 5 3 4 4 4 3 5 7 9 4 4 5 6 6 6 11 15 15 14 15 15 13 12
3 2 2 4 3 4 2 2 0 4 5 2 2 2 2 4 2 4 3 3 4 5 7 9 5 3 5 4 5 5 14 3 3 2 13 5 4 13 17 19 16 10 13 13 13
3 3 1 2 2 2 4 3 3 2 4 1 1 2 4 4 1 4 1 2 4 5 8 5 5 5 6 5 5 7 14 12 3 8 12 13 14 17 17 17 15 13 15 14 14
1 3 5 4 5 4 4 4 6 3 1 3 2 4 1 2 4 3 2 4 1 3 2 3 3 5 7 7 12 12 16 18 13 14 9 14 17 13 13 14 15 14 14 15 17
2 3 2 0 7 9 4 4 6 4 5 4 4 5 4 0 3 3 4 1 2 5 3 3 2 4 6 8 12 15 17 15 14 15 15 16 15 10 12 12 14 14 14 15 15
2 0 3 4 8 8 5 5 7 6 1 4 3 5 3 4 1 5 4 5 3 5 6 4 2 2 3 2 5 5 12 9 13 13 10 10 9 10 12 14 14 14 14 14 13